[[{"header":{"parameterUnit":"m.s-1","parameterCategory":1,"la1":30.6,"la2":28.766,"lo1":-90.7593,"lo2":-88.6598,"dy":0.0162,"dx":0.0183,"nx":116,"ny":114,"refTime":"2024-07-06T12:00:00:Z","depth":0,"parameterNumber":2,"parameterNumberName":"U-component_of_WINDS"},"data":[0.0,0.0,0.0,0.0,0.0,0.0,0.0,0.0,0.0,0.0,0.0,0.0,0.0,0.0,0.0,0.0,0.0,0.0,0.0,0.0,0.0,0.0,0.0,0.0,0.0,0.0,0.0,0.0,0.0,0.0,0.0,0.0,0.0,0.0,0.0,0.0,0.0,0.0,0.0,0.0,0.0,0.0,0.0,0.0,0.0,0.0,0.0,0.0,0.0,0.0,0.0,0.0,0.0,0.0,0.0,0.0,0.0,0.0,0.0,0.0,0.0,0.0,0.0,0.0,0.0,0.0,0.0,0.0,0.0,0.0,0.0,0.0,0.0,0.0,0.0,0.0,0.0,0.0,0.0,0.0,0.0,0.0,0.0,0.0,0.0,0.0,0.0,0.0,0.0,0.0,0.0,0.0,0.0,0.0,0.0,0.0,0.0,0.0,0.0,0.0,0.0,0.0,0.0,0.0,0.0,0.0,0.0,0.0,0.0,0.0,0.0,0.0,0.0,0.0,0.0,0.0,0.0,0.0,0.0,0.0,0.0,0.0,0.0,0.0,0.0,0.0,0.0,0.0,0.0,0.0,0.0,0.0,0.0,0.0,0.0,0.0,0.0,0.0,0.0,0.0,0.0,0.0,0.0,0.0,0.0,0.0,0.0,0.0,0.0,0.0,0.0,0.0,0.0,0.0,0.0,0.0,0.0,0.0,0.0,0.0,0.0,0.0,0.0,0.0,0.0,0.0,0.0,0.0,0.0,0.0,0.0,0.0,0.0,0.0,0.0,0.0,0.0,0.0,0.0,0.0,0.0,0.0,0.0,0.0,0.0,0.0,0.0,0.0,0.0,0.0,0.0,0.0,0.0,0.0,0.0,0.0,0.0,0.0,0.0,0.0,0.0,0.0,0.0,0.0,0.0,0.0,0.0,0.0,0.0,0.0,0.0,0.0,0.0,0.0,0.0,0.0,0.0,0.0,0.0,0.0,0.0,0.0,0.0,0.0,0.0,0.0,0.0,0.0,0.0,0.0,0.0,0.0,0.0,0.0,0.0,0.0,0.0,0.0,0.0,0.0,0.0,0.0,0.0,0.0,0.0,0.0,0.0,0.0,0.0,0.0,0.0,0.0,0.0,0.0,0.0,0.0,0.0,0.0,0.0,0.0,0.0,0.0,0.0,0.0,0.0,0.0,0.0,0.0,0.0,0.0,0.0,0.0,0.0,0.0,0.0,0.0,0.0,0.0,0.0,0.0,0.0,0.0,0.0,0.0,0.0,0.0,0.0,0.0,0.0,0.0,0.0,0.0,0.0,0.0,0.0,0.0,0.0,0.0,0.0,0.0,0.0,0.0,0.0,0.0,0.0,0.0,0.0,0.0,0.0,0.0,0.0,0.0,0.0,0.0,0.0,0.0,0.0,0.0,0.0,0.0,0.0,0.0,0.0,0.0,0.0,0.0,0.0,0.0,0.0,0.0,0.0,0.0,0.0,0.0,0.0,0.0,0.0,0.0,0.0,0.0,0.0,0.0,0.0,0.0,0.0,0.0,0.0,0.0,0.0,0.0,0.0,0.0,0.0,0.0,0.0,0.0,0.0,0.0,0.0,0.0,0.0,0.0,0.0,0.0,0.0,0.0,0.0,0.0,0.0,0.0,0.0,0.0,0.0,0.0,0.0,0.0,0.0,0.0,0.0,0.0,0.0,0.0,0.0,0.0,0.0,0.0,0.0,0.0,0.0,0.0,0.0,0.0,0.0,0.0,0.0,0.0,0.0,0.0,0.0,0.0,0.0,0.0,0.0,0.0,0.0,0.0,0.0,0.0,0.0,0.0,0.0,0.0,0.0,0.0,0.0,0.0,0.0,0.0,0.0,0.0,0.0,0.0,0.0,0.0,0.0,0.0,0.0,0.0,0.0,0.0,0.0,0.0,0.0,0.0,0.0,0.0,0.0,0.0,0.0,0.0,0.0,0.0,0.0,0.0,0.0,0.0,0.0,0.0,0.0,0.0,0.0,0.0,0.0,0.0,0.0,0.0,0.0,0.0,0.0,0.0,0.0,0.0,0.0,0.0,0.0,0.0,0.0,0.0,0.0,0.0,0.0,0.0,0.0,0.0,0.0,0.0,0.0,0.0,0.0,0.0,0.0,0.0,0.0,0.0,0.0,0.0,0.0,0.0,0.0,0.0,0.0,0.0,0.0,0.0,0.0,0.0,0.0,0.0,0.0,0.0,0.0,0.0,0.0,0.0,0.0,0.0,0.0,0.0,0.0,0.0,0.0,0.0,0.0,0.0,0.0,0.0,0.0,0.0,0.0,0.0,0.0,0.0,0.0,0.0,0.0,0.0,0.0,0.0,0.0,0.0,0.0,0.0,0.0,0.0,0.0,0.0,0.0,0.0,0.0,0.0,0.0,0.0,0.0,0.0,0.0,0.0,0.0,0.0,0.0,0.0,0.0,0.0,0.0,0.0,0.0,0.0,0.0,0.0,0.0,0.0,0.0,0.0,0.0,0.0,0.0,0.0,0.0,0.0,0.0,0.0,0.0,0.0,0.0,0.0,0.0,0.0,0.0,0.0,0.0,0.0,0.0,0.0,0.0,0.0,0.0,0.0,0.0,0.0,0.0,0.0,0.0,0.0,0.0,0.0,0.0,0.0,0.0,0.0,0.0,0.0,0.0,0.0,0.0,0.0,0.0,0.0,0.0,0.0,0.0,0.0,0.0,0.0,0.0,0.0,0.0,0.0,0.0,0.0,0.0,0.0,0.0,0.0,0.0,0.0,0.0,0.0,0.0,0.0,0.0,0.0,0.0,0.0,0.0,0.0,0.0,0.0,0.0,0.0,0.0,0.0,0.0,0.0,0.0,0.0,0.0,0.0,0.0,0.0,0.0,0.0,0.0,0.0,0.0,0.0,0.0,0.0,0.0,0.0,0.0,0.0,0.0,0.0,0.0,0.0,0.0,0.0,0.0,0.0,0.0,0.0,0.0,0.0,0.0,0.0,0.0,0.0,0.0,0.0,0.0,0.0,0.0,0.0,0.0,0.0,0.0,0.0,0.0,0.0,0.0,0.0,0.0,0.0,0.0,0.0,0.0,0.0,0.0,0.0,0.0,0.0,0.0,0.0,0.0,0.0,0.0,0.0,0.0,0.0,0.0,0.0,0.0,0.0,0.0,0.0,0.0,0.0,0.0,0.0,0.0,0.0,0.0,0.0,0.0,0.0,0.0,0.0,0.0,0.0,0.0,0.0,0.0,0.0,0.0,0.0,0.0,0.0,0.0,0.0,0.0,0.0,0.0,0.0,0.0,0.0,0.0,0.0,0.0,0.0,0.0,0.0,0.0,0.0,0.0,0.0,0.0,0.0,0.0,0.0,0.0,0.0,0.0,0.0,0.0,0.0,0.0,0.0,0.0,0.0,0.0,0.0,0.0,0.0,0.0,0.0,0.0,0.0,0.0,0.0,0.0,0.0,0.0,0.0,0.0,0.0,0.0,0.0,0.0,0.0,0.0,0.0,0.0,0.0,0.0,0.0,0.0,0.0,0.0,0.0,0.0,0.0,0.0,0.0,0.0,0.0,0.0,0.0,0.0,0.0,0.0,0.0,0.0,0.0,0.0,0.0,0.0,0.0,0.0,0.0,0.0,0.0,0.0,0.0,0.0,0.0,0.0,0.0,0.0,0.0,0.0,0.0,0.0,0.0,0.0,0.0,0.0,0.0,0.0,0.0,0.0,0.0,0.0,0.0,0.0,0.0,0.0,0.0,0.0,0.0,0.0,0.0,0.0,0.0,0.0,0.0,0.0,0.0,0.0,0.0,0.0,0.0,0.0,0.0,0.0,0.0,0.0,0.0,0.0,0.0,0.0,0.0,0.0,0.0,0.0,0.0,0.0,0.0,0.0,0.0,0.0,0.0,0.0,0.0,0.0,0.0,0.0,0.0,0.0,0.0,0.0,0.0,0.0,0.0,0.0,0.0,0.0,0.0,0.0,0.0,0.0,0.0,0.0,0.0,0.0,0.0,0.0,0.0,0.0,0.0,0.0,0.0,0.0,0.0,0.0,0.0,0.0,0.0,0.0,0.0,0.0,0.0,0.0,0.0,0.0,0.0,0.0,0.0,0.0,0.0,0.0,0.0,0.0,0.0,0.0,0.0,0.0,0.0,0.0,0.0,0.0,0.0,0.0,0.0,0.0,0.0,0.0,0.0,0.0,0.0,0.0,0.0,0.0,0.0,0.0,0.0,0.0,0.0,0.0,0.0,0.0,0.0,0.0,0.0,0.0,0.0,0.0,0.0,0.0,0.0,0.0,0.0,0.0,0.0,0.0,0.0,0.0,0.0,0.0,0.0,0.0,0.0,0.0,0.0,0.0,0.0,0.0,0.0,0.0,0.0,0.0,0.0,0.0,0.0,0.0,0.0,0.0,0.0,0.0,0.0,0.0,0.0,0.0,0.0,0.0,0.0,0.0,0.0,0.0,0.0,0.0,0.0,0.0,0.0,0.0,0.0,0.0,0.0,0.0,0.0,0.0,0.0,0.0,0.0,0.0,0.0,0.0,0.0,0.0,0.0,0.0,0.0,0.0,0.0,0.0,0.0,0.0,0.0,0.0,0.0,0.0,0.0,0.0,0.0,0.0,0.0,0.0,0.0,0.0,0.0,0.0,0.0,0.0,0.0,0.0,0.0,0.0,0.0,0.0,0.0,0.0,0.0,0.0,0.0,0.0,0.0,0.0,0.0,0.0,0.0,0.0,0.0,0.0,0.0,0.0,0.0,0.0,0.0,0.0,0.0,0.0,0.0,0.0,0.0,0.0,0.0,0.0,0.0,0.0,0.0,0.0,0.0,0.0,0.0,0.0,0.0,0.0,0.0,0.0,0.0,0.0,0.0,0.0,0.0,0.0,0.0,0.0,0.0,0.0,0.0,0.0,0.0,0.0,0.0,0.0,0.0,0.0,0.0,0.0,0.0,0.0,0.0,0.0,0.0,0.0,0.0,0.0,0.0,0.0,0.0,0.0,0.0,0.0,0.0,0.0,0.0,0.0,0.0,0.0,0.0,0.0,0.0,0.0,0.0,0.0,0.0,0.0,0.0,0.0,0.0,0.0,0.0,0.0,0.0,0.0,0.0,0.0,0.0,0.0,0.0,0.0,0.0,0.0,0.0,0.0,0.0,0.0,0.0,0.0,0.0,0.0,0.0,0.0,0.0,0.0,0.0,0.0,0.0,0.0,0.0,0.0,0.0,0.0,0.0,0.0,0.0,0.0,0.0,0.0,0.0,0.0,0.0,0.0,0.0,0.0,0.0,0.0,0.0,0.0,0.0,0.0,0.0,0.0,0.0,0.0,0.0,0.0,0.0,0.0,0.0,0.0,0.0,0.0,0.0,0.0,0.0,0.0,0.0,0.0,0.0,0.0,0.0,0.0,0.0,0.0,0.0,0.0,0.0,0.0,0.0,0.0,0.0,0.0,0.0,0.0,0.0,0.0,0.0,0.0,0.0,0.0,0.0,0.0,0.0,0.0,0.0,0.0,0.0,0.0,0.0,0.0,0.0,0.0,0.0,0.0,0.0,0.0,0.0,0.0,0.0,0.0,0.0,0.0,0.0,0.0,0.0,0.0,0.0,0.0,0.0,0.0,0.0,0.0,0.0,0.0,0.0,0.0,0.0,0.0,0.0,0.0,0.0,0.0,0.0,0.0,0.0,0.0,0.0,0.0,0.0,0.0,0.0,0.0,0.0,0.0,0.0,0.0,0.0,0.0,0.0,0.0,0.0,0.0,0.0,0.0,0.0,0.0,0.0,0.0,0.0,0.0,0.0,0.0,0.0,0.0,0.0,0.0,0.0,0.0,0.0,0.0,0.0,0.0,0.0,0.0,0.0,0.0,0.0,0.0,0.0,0.0,0.0,0.0,0.0,0.0,0.0,0.0,0.0,0.0,0.0,0.0,0.0,0.0,0.0,0.0,0.0,0.0,0.0,0.0,0.0,0.0,0.0,0.0,0.0,0.0,0.0,0.0,0.0,0.0,0.0,0.0,0.0,0.0,0.0,0.0,0.0,0.0,0.0,0.0,0.0,0.0,0.0,0.0,0.0,0.0,0.0,0.0,0.0,0.0,0.0,0.0,0.0,-3.3643,0.0,0.0,0.0,0.0,0.0,0.0,0.0,0.0,0.0,0.0,0.0,0.0,0.0,0.0,0.0,0.0,0.0,0.0,0.0,0.0,0.0,0.0,0.0,0.0,-2.0331,-2.0957,-2.1635,-2.1695,-2.1695,-2.1695,0.0,0.0,0.0,0.0,0.0,-2.1201,-2.0842,-2.0831,-2.1145,-2.0801,-2.0946,-2.1565,-2.0872,-1.9851,-1.8672,0.0,0.0,0.0,0.0,0.0,0.0,0.0,0.0,0.0,0.0,0.0,0.0,0.0,0.0,0.0,0.0,0.0,0.0,0.0,0.0,0.0,0.0,0.0,0.0,0.0,0.0,0.0,0.0,0.0,0.0,0.0,0.0,0.0,0.0,0.0,0.0,0.0,0.0,0.0,0.0,0.0,0.0,0.0,0.0,0.0,0.0,0.0,0.0,0.0,0.0,0.0,0.0,0.0,0.0,0.0,0.0,0.0,0.0,0.0,0.0,0.0,0.0,0.0,0.0,0.0,0.0,0.0,0.0,0.0,0.0,0.0,-3.5424,0.0,0.0,0.0,0.0,0.0,0.0,0.0,0.0,0.0,0.0,0.0,0.0,0.0,0.0,0.0,0.0,0.0,0.0,0.0,0.0,0.0,-1.8498,-1.9383,-2.0394,-2.1321,-2.1964,-2.2024,-2.2024,-2.2024,0.0,0.0,0.0,0.0,-2.2024,-2.2024,-2.1919,-2.2233,-2.3032,-2.3272,-2.3691,-2.4298,-2.4298,-2.3152,-2.1055,-2.0591,0.0,0.0,0.0,0.0,0.0,0.0,0.0,0.0,0.0,0.0,0.0,0.0,0.0,0.0,0.0,0.0,0.0,0.0,0.0,0.0,0.0,0.0,0.0,0.0,0.0,0.0,0.0,0.0,0.0,0.0,0.0,0.0,0.0,0.0,0.0,0.0,0.0,0.0,0.0,0.0,0.0,0.0,0.0,0.0,0.0,0.0,0.0,0.0,0.0,0.0,0.0,0.0,0.0,0.0,0.0,0.0,0.0,0.0,0.0,0.0,0.0,0.0,0.0,-4.1948,-4.2692,-4.3284,-4.3403,-4.3809,-4.4181,-4.0375,-3.9402,-4.0248,0.0,0.0,0.0,0.0,0.0,0.0,0.0,0.0,0.0,0.0,0.0,0.0,0.0,0.0,0.0,0.0,0.0,0.0,0.0,0.0,-2.0089,-2.0456,-2.1659,-2.2667,-2.3295,-2.3355,-2.3355,-2.3355,-2.3355,0.0,0.0,-2.3355,-2.3355,-2.3355,-2.2838,-2.3146,-2.435,-2.5525,-2.6432,-2.7061,-2.7061,0.0,-2.6462,-2.4103,-2.3041,0.0,0.0,0.0,0.0,0.0,0.0,0.0,0.0,0.0,0.0,0.0,0.0,0.0,0.0,0.0,0.0,0.0,0.0,0.0,0.0,0.0,0.0,0.0,0.0,0.0,0.0,0.0,0.0,0.0,0.0,0.0,0.0,0.0,0.0,0.0,0.0,0.0,0.0,0.0,0.0,0.0,0.0,-3.2251,-3.4151,0.0,0.0,0.0,0.0,0.0,0.0,0.0,0.0,0.0,0.0,0.0,0.0,0.0,-4.1202,-4.2622,-4.3457,-4.4215,-4.4976,-4.6363,-4.709,-4.7162,-4.7834,-4.8173,-4.8189,-4.6972,0.0,-4.1965,-4.1474,0.0,0.0,0.0,0.0,0.0,0.0,0.0,0.0,0.0,0.0,0.0,0.0,0.0,0.0,0.0,0.0,0.0,0.0,0.0,0.0,0.0,-2.2315,-2.346,-2.4096,-2.4522,-2.4567,-2.4186,0.0,0.0,-2.361,-2.3595,-2.3595,-2.3595,-2.3714,-2.4597,-2.6288,-2.7619,-2.8453,-2.8723,0.0,0.0,0.0,-2.751,-2.6123,-2.4642,0.0,0.0,0.0,0.0,0.0,0.0,0.0,0.0,0.0,0.0,0.0,0.0,0.0,0.0,0.0,0.0,0.0,0.0,0.0,0.0,0.0,0.0,0.0,0.0,0.0,0.0,0.0,0.0,0.0,0.0,0.0,0.0,0.0,0.0,0.0,0.0,0.0,0.0,0.0,0.0,-3.1869,-3.4045,-3.4899,-3.5922,-3.6193,0.0,0.0,0.0,0.0,0.0,0.0,0.0,0.0,0.0,-4.4055,-4.4613,-4.5597,-4.7084,-4.7483,-4.7834,-4.8189,-4.9255,-4.9731,-4.9779,-5.0101,-5.0253,-5.0236,-4.9898,-4.8595,-4.6515,-4.4462,-4.3024,-4.2042,0.0,0.0,0.0,0.0,-4.073,-4.0561,0.0,0.0,0.0,0.0,0.0,0.0,0.0,0.0,0.0,0.0,0.0,0.0,-2.1709,-2.3028,-2.4126,-2.4799,0.0,0.0,0.0,0.0,0.0,-2.3625,-2.3595,-2.3595,-2.3595,-2.4575,-2.6108,-2.8109,-2.9277,0.0,0.0,0.0,0.0,0.0,0.0,0.0,0.0,0.0,0.0,0.0,0.0,0.0,0.0,0.0,0.0,0.0,0.0,0.0,0.0,0.0,0.0,0.0,0.0,0.0,0.0,0.0,0.0,0.0,0.0,0.0,0.0,0.0,0.0,0.0,0.0,0.0,0.0,0.0,0.0,0.0,0.0,0.0,0.0,0.0,0.0,0.0,0.0,-3.4399,-3.6178,-3.6784,-3.8689,-3.9386,0.0,0.0,0.0,0.0,0.0,0.0,-4.3935,-4.4705,-4.6089,-4.8277,-4.8592,-4.9236,-5.0299,-5.0365,-5.0371,-5.0388,-5.1133,-5.1488,-5.1505,-5.1708,-5.1809,-5.1792,-5.1589,-5.1183,-5.0405,-4.7276,-4.5771,-4.5314,-4.4181,-4.3284,-4.2777,-4.3876,-4.3927,-4.369,0.0,0.0,0.0,0.0,0.0,0.0,0.0,0.0,0.0,0.0,0.0,-2.2504,-2.3374,0.0,-2.4814,0.0,0.0,0.0,0.0,0.0,-2.364,-2.3595,-2.3595,-2.3595,-2.3595,-2.5495,-2.747,0.0,0.0,0.0,0.0,0.0,0.0,0.0,0.0,0.0,0.0,0.0,0.0,0.0,0.0,0.0,0.0,0.0,0.0,0.0,0.0,0.0,0.0,0.0,0.0,0.0,0.0,0.0,0.0,0.0,0.0,0.0,0.0,0.0,0.0,0.0,0.0,0.0,0.0,0.0,0.0,0.0,0.0,0.0,0.0,0.0,0.0,0.0,0.0,0.0,0.0,0.0,0.0,-4.1662,-4.2708,0.0,0.0,0.0,0.0,-4.3348,-4.4626,-4.6196,-4.8179,-4.9172,-5.0046,-5.0881,-5.0927,-5.0982,-5.1131,-5.1133,-5.115,-5.1134,-5.1894,-5.2249,-5.2266,-5.3044,-5.3382,-5.3348,-5.2587,-5.2232,-5.2063,-5.0473,-4.9001,-4.772,-4.7635,-4.7175,-4.6515,-4.6599,-4.6599,-4.6583,0.0,0.0,0.0,-1.737,-1.7126,-1.7091,-1.7427,-1.8028,-1.8641,-1.9169,-2.116,-2.2677,0.0,-2.4732,0.0,0.0,0.0,0.0,0.0,0.0,-2.4231,-2.4231,-2.4231,-2.4852,-2.6147,-2.729,-2.8637,0.0,0.0,0.0,0.0,0.0,0.0,0.0,0.0,0.0,0.0,0.0,0.0,0.0,0.0,0.0,0.0,0.0,0.0,0.0,0.0,0.0,0.0,0.0,0.0,0.0,0.0,0.0,0.0,0.0,0.0,0.0,0.0,0.0,0.0,0.0,0.0,0.0,0.0,0.0,0.0,0.0,0.0,0.0,0.0,0.0,0.0,0.0,0.0,0.0,0.0,0.0,0.0,-4.3681,-4.5957,0.0,-4.4917,-4.5971,-4.6788,-4.6843,-4.829,-4.9482,-5.0189,-5.1008,-5.1838,-5.2622,-5.3099,-5.3598,-5.411,-5.411,-5.3873,-5.3382,-5.3653,-5.3534,-5.3078,-5.3365,-5.3501,-5.3484,-5.3196,-5.3078,-5.3044,-5.2503,-5.1403,-5.0002,-5.0002,-4.9289,-4.8274,-4.8748,-4.8325,-4.7581,-1.7658,-1.7439,0.0,-1.6998,-1.6773,-1.6815,-1.7362,-1.7777,-1.8443,-1.9561,-2.146,-2.2957,0.0,0.0,0.0,0.0,0.0,0.0,0.0,0.0,-2.4844,-2.4619,-2.5023,-2.6108,-2.7899,-2.8786,0.0,0.0,0.0,0.0,0.0,0.0,0.0,0.0,0.0,0.0,0.0,0.0,0.0,0.0,0.0,0.0,-2.3841,0.0,0.0,0.0,0.0,0.0,0.0,0.0,0.0,0.0,0.0,0.0,0.0,0.0,0.0,0.0,0.0,0.0,0.0,0.0,0.0,0.0,0.0,0.0,0.0,0.0,0.0,0.0,0.0,0.0,0.0,0.0,0.0,0.0,0.0,0.0,-4.4819,-4.6195,-4.8515,-4.9497,-4.8218,-4.9328,-5.0011,-4.9825,-5.0853,-5.1617,-5.1891,-5.2646,-5.3433,-5.4228,-5.4718,-5.5209,-5.5681,-5.5681,-5.5463,-5.4972,-5.4972,-5.4718,-5.4245,-5.3974,-5.3873,-5.3856,-5.3619,-5.3501,-5.3501,-5.3501,-5.2909,-5.1961,-5.1691,-5.0828,-4.9813,-5.0287,-4.9864,-4.9038,-1.7368,-1.7284,-1.706,-1.6407,-1.6301,-1.6595,-1.7552,-1.7728,-1.8685,-2.1321,-2.2313,-2.3482,0.0,0.0,0.0,0.0,0.0,0.0,0.0,-2.5561,-2.5277,-2.4694,-2.5974,-2.732,-2.8667,0.0,0.0,0.0,0.0,0.0,0.0,0.0,0.0,0.0,0.0,0.0,0.0,0.0,0.0,0.0,0.0,0.0,-2.6437,0.0,0.0,0.0,0.0,0.0,0.0,0.0,0.0,0.0,0.0,0.0,0.0,0.0,0.0,0.0,0.0,0.0,0.0,0.0,0.0,0.0,0.0,0.0,0.0,0.0,0.0,0.0,0.0,0.0,0.0,0.0,0.0,0.0,-4.1552,-4.4144,-4.6985,-4.9388,-5.0417,-5.1244,-5.1943,-5.1518,-5.1494,-5.219,-5.2337,-5.2723,-5.3534,-5.4245,-5.4972,-5.5733,-5.5715,-5.5767,-5.5749,-5.5749,-5.5784,-5.5715,-5.5715,-5.5733,-5.57,-5.4955,-5.4617,-5.4549,-5.3839,-5.3518,-5.3501,-5.3501,-5.3501,-5.3416,-5.2638,-5.1894,-5.1219,-5.1219,-5.1202,-5.1116,-1.732,-1.6914,-1.6528,-1.6326,-1.6094,-1.6336,-1.752,-1.8117,-1.9029,-2.0752,-2.2781,0.0,0.0,0.0,0.0,0.0,0.0,0.0,-2.6303,-2.4956,-2.4717,-2.5989,-2.7799,0.0,0.0,0.0,0.0,0.0,0.0,0.0,0.0,0.0,0.0,0.0,0.0,0.0,0.0,0.0,0.0,0.0,0.0,0.0,-2.7934,0.0,0.0,0.0,0.0,0.0,0.0,0.0,0.0,0.0,0.0,0.0,0.0,0.0,0.0,0.0,0.0,0.0,0.0,0.0,0.0,0.0,0.0,0.0,0.0,0.0,0.0,0.0,0.0,0.0,0.0,0.0,0.0,-4.3693,-4.354,-4.7445,-5.0584,-5.1257,-5.3081,-5.3729,-5.2359,-5.3032,-5.3445,-5.3146,-5.3666,-5.4296,-5.5074,-5.531,-5.575,-5.6478,-5.6511,-5.6748,-5.7289,-5.7289,-5.7019,-5.6511,-5.6511,-5.6224,-5.5681,-5.5497,-5.5108,-5.4583,-5.438,-5.3991,-5.3501,-5.3501,-5.3501,-5.3484,-5.3264,-5.2689,-5.2012,-5.2012,-5.1674,-5.1183,-1.7332,-1.6876,-1.6477,-1.6328,-1.6225,-1.6518,-1.7549,-1.8506,-1.96,-2.0946,-2.29,0.0,0.0,0.0,0.0,0.0,0.0,-2.5959,-2.5779,-2.5196,-2.5749,-2.7779,0.0,0.0,0.0,0.0,0.0,0.0,0.0,0.0,0.0,0.0,0.0,0.0,0.0,0.0,0.0,0.0,0.0,0.0,0.0,0.0,-2.9699,-2.8472,-2.7959,-2.7735,-2.6767,-2.6019,-2.5345,-2.4672,0.0,0.0,0.0,0.0,0.0,0.0,0.0,0.0,0.0,0.0,0.0,0.0,0.0,0.0,0.0,0.0,0.0,0.0,0.0,0.0,0.0,0.0,0.0,0.0,-4.4207,-4.6726,-4.6688,-4.9508,-5.219,-5.3816,-5.4416,-5.4678,-5.4681,-5.4605,-5.4652,-5.4884,-5.4992,-5.5395,-5.6139,-5.6173,-5.6511,-5.7239,-5.7256,-5.7459,-5.7881,-5.7881,-5.7679,-5.7256,-5.7256,-5.7036,-5.6613,-5.6308,-5.5936,0.0,-5.5192,-5.4634,-5.3957,-5.3957,-5.3788,0.0,0.0,0.0,0.0,0.0,-5.2334,-5.1674,-1.7308,-1.6964,-1.6633,-1.6301,-1.65,-1.6936,-1.7593,-1.8837,-2.0187,-2.1515,0.0,0.0,0.0,0.0,0.0,0.0,0.0,0.0,0.0,0.0,0.0,-2.9532,0.0,0.0,0.0,0.0,0.0,0.0,0.0,0.0,0.0,0.0,0.0,0.0,0.0,0.0,0.0,0.0,0.0,0.0,0.0,0.0,-3.1421,-2.9624,-2.925,-2.9562,-2.8349,-2.751,-2.6841,-2.6258,0.0,0.0,0.0,0.0,0.0,0.0,0.0,0.0,0.0,0.0,0.0,0.0,0.0,0.0,0.0,0.0,0.0,0.0,0.0,0.0,0.0,0.0,0.0,0.0,-4.69,-5.0034,-5.0465,-5.0874,-5.2465,-5.5993,-5.4772,-5.4694,-5.7377,-5.5876,-5.5297,-5.6684,-5.6167,-5.6156,-5.6884,0.0,0.0,0.0,0.0,-5.7881,-5.7881,-5.7881,-5.7881,-5.7881,-5.7881,-5.7881,-5.7865,-5.7222,-5.6884,-5.6765,-5.6122,-5.5361,-5.4583,-5.4583,-5.416,-5.3501,-5.3501,-5.3501,-5.3501,-5.3501,-5.3061,-5.2435,-1.6952,-1.6633,-1.6301,-1.5955,-1.6338,-1.6936,-1.7593,-1.8837,-2.0187,-2.1515,-2.2802,0.0,0.0,0.0,0.0,0.0,0.0,0.0,0.0,0.0,0.0,0.0,0.0,0.0,0.0,0.0,0.0,0.0,0.0,0.0,0.0,0.0,0.0,0.0,0.0,0.0,0.0,0.0,0.0,0.0,0.0,0.0,-3.2198,-3.1286,-3.0673,-3.0298,-3.0028,-2.9535,-2.9007,-2.8861,-2.8034,-2.6986,-2.6731,0.0,0.0,0.0,0.0,0.0,0.0,0.0,0.0,0.0,0.0,0.0,0.0,0.0,0.0,0.0,0.0,0.0,0.0,0.0,0.0,-4.699,-4.8516,-5.0245,-5.3218,-5.2727,-5.2551,-5.39,-5.4769,-5.5271,-5.5266,-5.54,-5.5836,-5.6726,-5.6686,-5.6917,-5.7645,-5.7679,-5.7746,-5.7881,-5.7881,-5.7881,-5.7881,-5.7881,-5.7881,-5.7881,0.0,0.0,-5.7881,-5.7746,-5.7357,-5.6799,-5.6664,-5.5835,-5.4583,-5.4583,-5.416,-5.3501,-5.3501,-5.3501,-5.3501,-5.3501,-5.3399,-5.3264,-1.6828,-1.6528,-1.6354,-1.6509,-1.6909,-1.7428,-1.8102,-1.9346,-2.0438,-2.1111,-2.2338,0.0,0.0,0.0,0.0,0.0,0.0,0.0,0.0,0.0,0.0,0.0,0.0,0.0,0.0,0.0,0.0,0.0,0.0,0.0,0.0,0.0,0.0,0.0,0.0,0.0,0.0,0.0,0.0,0.0,0.0,0.0,-3.2931,-3.2243,-3.157,-3.0987,-3.0987,-3.0597,-3.0043,-3.0043,-2.9175,-2.8049,-2.7705,-2.6926,-2.5899,0.0,0.0,0.0,0.0,0.0,0.0,0.0,0.0,0.0,0.0,0.0,0.0,0.0,0.0,-3.98,-4.2405,0.0,-4.6084,-4.9017,-5.0161,-5.1284,-5.3138,-5.3109,-5.3301,-5.4423,-5.4578,-5.4885,-5.5633,-5.5704,-5.6184,-5.7275,-5.734,-5.7509,-5.7865,-5.7881,-5.7881,-5.7881,-5.7881,-5.7881,-5.7881,-5.7881,-5.7881,-5.7881,-5.7881,-5.7881,-5.7881,-5.7881,-5.7695,-5.734,-5.734,-5.6714,-5.5632,-5.4888,-5.416,-5.3501,-5.3501,-5.3501,-5.3501,-5.3501,-5.3501,-5.3501,-1.6873,-1.6624,-1.6546,-1.7085,-1.7591,-1.8072,-1.8627,-1.9735,-2.0539,-2.0673,-2.1635,-2.2358,-2.2493,-2.2628,-2.3002,0.0,0.0,0.0,0.0,0.0,0.0,0.0,0.0,0.0,0.0,0.0,0.0,0.0,0.0,0.0,0.0,0.0,0.0,0.0,0.0,0.0,0.0,0.0,0.0,0.0,0.0,0.0,-3.344,-3.2901,-3.2183,-3.1481,-3.1346,-3.0868,-3.0328,-3.0328,-2.946,-2.8323,-2.7929,-2.7345,-2.6557,-2.5337,-2.5367,0.0,0.0,0.0,0.0,0.0,0.0,0.0,0.0,0.0,-3.7516,-3.9648,-4.1255,-4.3115,-4.5838,-4.7327,-4.8646,-5.0253,-5.1522,-5.235,-5.252,-5.3095,-5.3946,-5.5131,-5.4218,-5.4295,-5.6396,-5.6065,-5.6325,-5.778,-5.7881,-5.7881,-5.7881,-5.7881,-5.7881,-5.7881,-5.7881,-5.7881,-5.7881,-5.7881,-5.7881,-5.7881,-5.7881,-5.7881,-5.7881,-5.7881,-5.7881,-5.7881,-5.7746,-5.7273,-5.6478,-5.5141,-5.416,-5.3501,-5.3501,-5.3501,-5.3501,-5.3501,-5.3501,-5.3501,-1.7133,-1.6938,-1.6683,-1.6758,-1.7791,-1.8612,-1.8687,-1.9331,-2.0019,-2.0613,-2.0823,-2.1156,-2.1739,-2.2343,-2.3176,0.0,0.0,0.0,0.0,0.0,0.0,0.0,0.0,0.0,0.0,0.0,0.0,0.0,0.0,0.0,0.0,0.0,0.0,0.0,0.0,0.0,0.0,0.0,0.0,0.0,0.0,0.0,-3.3484,-3.341,-3.2617,-3.1421,-3.0836,-3.0223,-2.9711,-2.9711,-2.8813,-2.7809,-2.8308,-2.8034,-2.7345,-2.6587,0.0,-2.6587,-2.7121,-2.8788,-3.0992,-3.372,-3.4513,-3.58,0.0,0.0,-4.1999,-4.365,-4.5145,-4.6667,-4.8325,-4.8781,-4.9576,-5.1708,-5.2198,-5.2553,-5.3264,-5.345,-5.3551,-5.3734,-5.3584,-5.411,-5.5687,-5.5735,-5.6325,-5.778,-5.7881,-5.7881,-5.7881,-5.7881,-5.7881,-5.7881,-5.7881,-5.7881,-5.7881,-5.7881,-5.7881,-5.7881,-5.7881,-5.7881,-5.7881,-5.7881,-5.7881,-5.7848,-5.7205,-5.6511,-5.5784,-5.4938,-5.416,-5.3501,-5.3501,-5.3501,-5.3501,-5.3501,-5.3501,-5.3501,-1.7247,-1.7608,-1.7863,-1.7863,-1.8326,-1.8837,-1.9211,-1.9528,-1.9813,-2.0079,-2.0468,-2.0961,-2.162,-2.2607,-2.3295,-2.3475,-2.4792,0.0,0.0,0.0,0.0,0.0,0.0,0.0,0.0,0.0,0.0,0.0,0.0,0.0,0.0,0.0,0.0,0.0,0.0,0.0,0.0,0.0,0.0,0.0,0.0,0.0,-3.341,-3.2647,-3.1764,-3.0896,-3.0612,-2.9864,0.0,0.0,-2.8453,-2.7151,-2.7824,-2.73,-2.6378,-2.6093,-2.6856,0.0,-3.099,-3.2674,-3.4239,0.0,-3.8208,-3.969,-4.1815,-4.298,-4.4073,-4.5551,-4.6701,-4.8037,-4.9932,-5.0287,-5.0896,0.0,-5.301,-5.3129,-5.345,-5.3095,-5.2807,-5.2807,-5.2807,-5.3568,-5.5495,-5.5681,-5.6325,-5.778,-5.7881,-5.7881,-5.7881,-5.7881,-5.7881,-5.7881,-5.7881,-5.7881,-5.7881,-5.7881,-5.7881,-5.7881,-5.7881,-5.7881,-5.7881,-5.7881,-5.7881,-5.7865,-5.756,-5.6782,-5.57,-5.5378,-5.4549,-5.3501,-5.3501,-5.3501,-5.3501,-5.3501,-5.3501,-5.3501,-1.7347,-1.7968,-1.8553,-1.8912,-1.8972,-1.9136,-1.9633,-1.9708,-1.9708,-1.9708,-2.0124,-2.0752,-2.1605,-2.2682,-2.3236,-2.2972,-2.4403,-2.5899,0.0,0.0,0.0,0.0,0.0,0.0,0.0,0.0,0.0,0.0,0.0,0.0,0.0,0.0,0.0,0.0,0.0,0.0,0.0,0.0,0.0,0.0,0.0,0.0,-3.3095,-3.1929,-3.0853,-2.9953,-2.9759,-2.8981,0.0,0.0,-2.7395,-2.6168,-2.6851,-2.6378,-2.5719,-2.6273,-2.7979,-3.0331,-3.3303,0.0,0.0,-3.8727,-4.0897,-4.2599,-4.2871,-4.3944,-4.5246,-4.6532,-4.7394,-4.8497,-5.0541,-5.1065,-5.164,-5.2959,-5.3365,-5.3501,-5.3501,-5.2807,-5.2384,-5.2604,-5.2435,-5.3129,-5.5209,-5.5598,-5.6241,-5.7492,-5.778,-5.7881,-5.7881,-5.7881,-5.7881,-5.7881,-5.7881,-5.7881,-5.7881,-5.7881,-5.7881,-5.7881,-5.7881,-5.7881,-5.7881,-5.7881,-5.7881,-5.7881,-5.7881,-5.7171,-5.6004,-5.5766,-5.4955,-5.3788,-5.3585,-5.3501,-5.3501,-5.3501,-5.3501,-5.3501,-1.7445,-1.7713,-1.8132,-1.9453,-1.9678,-1.9678,-1.9708,-1.9708,-1.9708,-1.9708,-1.9723,-2.0232,-2.156,-2.2313,-2.2957,-2.352,-2.4216,-2.5187,-2.6527,-2.7285,0.0,0.0,0.0,0.0,0.0,0.0,0.0,0.0,0.0,0.0,0.0,0.0,0.0,0.0,0.0,0.0,0.0,0.0,0.0,0.0,0.0,0.0,-3.2437,-3.1765,-3.0315,-2.8562,-2.7929,0.0,0.0,0.0,-2.5247,-2.4784,-2.5442,-2.5621,0.0,-2.7949,-3.0357,0.0,0.0,0.0,-3.8165,-3.9604,-4.1679,-4.3578,-4.4333,-4.5111,-4.5889,-4.6633,-4.7394,-4.8376,-4.9847,-5.0727,-5.1471,-5.2215,-5.2993,-5.3501,-5.3501,-5.2807,-5.2587,-5.3365,-5.2773,-5.2909,0.0,-5.5294,-5.6038,-5.6782,-5.7492,-5.7881,-5.7881,-5.7881,-5.7881,-5.7881,-5.7881,-5.7881,-5.7881,-5.7881,-5.7881,-5.7881,-5.7881,-5.7881,-5.7881,-5.7881,-5.7881,-5.7881,-5.7881,-5.7459,-5.6714,-5.6004,-5.526,-5.4482,-5.3788,-5.3501,-5.3501,-5.3501,-5.3501,-5.3501,-1.7624,-1.8057,-1.8657,-1.9543,-1.9708,-1.9708,-1.9708,-1.9708,-1.9872,-2.0303,-2.1126,0.0,0.0,0.0,0.0,0.0,-2.4201,-2.4978,-2.5884,-2.6986,0.0,0.0,0.0,0.0,0.0,0.0,0.0,0.0,0.0,0.0,0.0,0.0,0.0,0.0,0.0,0.0,0.0,0.0,0.0,0.0,0.0,0.0,-3.3604,-3.1614,-2.9924,-2.8442,0.0,0.0,0.0,0.0,-2.4866,-2.4126,-2.5255,0.0,0.0,-2.8906,-3.1526,-3.3851,-3.6119,0.0,-4.0475,-4.1891,-4.3239,-4.4265,-4.4547,-4.5162,-4.5771,-4.6024,-4.6667,-4.7479,-4.8477,-4.9255,-5.0152,-5.1386,-5.2672,-5.3501,-5.3501,-5.3687,-5.3551,-5.279,-5.2942,0.0,0.0,0.0,0.0,-5.6714,-5.7036,-5.7374,-5.7865,-5.7881,-5.7881,-5.7881,-5.7881,-5.7881,-5.7881,-5.7881,-5.7881,-5.7881,-5.7881,-5.7881,-5.7881,-5.7881,-5.7881,-5.7881,-5.7881,-5.7476,-5.6748,-5.6021,-5.5277,-5.4515,-5.3788,-5.3501,-5.3501,-5.3501,-5.3501,-5.3501,-1.7713,-1.8431,-1.9181,-1.9633,-1.9884,0.0,0.0,0.0,0.0,0.0,0.0,0.0,0.0,0.0,0.0,0.0,0.0,-2.453,-2.5187,0.0,0.0,0.0,0.0,0.0,0.0,0.0,0.0,0.0,0.0,0.0,0.0,0.0,0.0,0.0,0.0,0.0,0.0,0.0,0.0,0.0,0.0,0.0,-3.2542,-3.0567,-2.916,0.0,0.0,0.0,0.0,0.0,0.0,0.0,0.0,0.0,0.0,-3.0105,-3.2758,-3.5448,-3.8112,-4.0056,-4.1619,-4.3019,-4.3985,-4.4615,-4.4615,-4.4987,-4.5382,-4.5652,-4.5872,-4.6312,-4.7327,-4.7902,-4.8781,-5.0524,-5.208,-5.3264,-5.3822,-5.4296,-5.4329,-5.3602,-5.3737,-5.3788,0.0,0.0,0.0,-5.6342,-5.69,-5.7391,-5.7865,-5.7881,-5.7881,-5.7881,-5.7881,-5.7881,-5.7881,-5.7881,-5.7881,-5.7881,-5.7881,-5.7881,-5.7881,-5.7881,-5.7881,-5.7881,-5.7881,-5.7628,-5.712,-5.6122,-5.5429,-5.4888,-5.389,-5.3501,-5.3501,-5.3501,-5.3501,-5.3501,-1.7803,-1.8837,-1.9708,0.0,0.0,0.0,0.0,0.0,0.0,0.0,0.0,0.0,0.0,0.0,0.0,0.0,0.0,0.0,-2.4515,0.0,0.0,0.0,0.0,0.0,-2.7525,-2.8233,0.0,0.0,0.0,0.0,0.0,0.0,0.0,0.0,0.0,0.0,0.0,0.0,0.0,0.0,0.0,0.0,-2.9609,-2.8921,0.0,0.0,0.0,0.0,0.0,0.0,0.0,0.0,0.0,0.0,0.0,-3.1748,-3.4253,-3.7249,-3.8573,-4.0196,-4.1827,-4.3149,-4.406,-4.4666,-4.4666,-4.4615,-4.4722,-4.5449,-4.4993,-4.4919,-4.6295,0.0,-4.7445,-4.9627,-5.1319,-5.2892,-5.438,-5.4685,-5.5006,0.0,0.0,0.0,0.0,0.0,0.0,-5.5784,0.0,-5.7848,-5.7881,-5.7881,-5.7881,-5.7881,-5.7881,-5.7881,-5.7881,-5.7881,-5.7881,-5.7881,-5.7881,-5.7881,-5.7881,-5.7881,-5.7881,-5.7881,-5.7881,-5.7881,-5.778,-5.6325,-5.5681,-5.5564,-5.4093,-5.3501,-5.3501,-5.3501,-5.3501,-5.3501,0.0,0.0,0.0,0.0,0.0,0.0,0.0,0.0,0.0,0.0,0.0,0.0,0.0,0.0,0.0,0.0,0.0,0.0,0.0,0.0,0.0,0.0,0.0,0.0,0.0,-2.7993,0.0,0.0,0.0,0.0,0.0,0.0,0.0,0.0,0.0,0.0,0.0,0.0,0.0,0.0,0.0,0.0,-3.0883,0.0,0.0,0.0,0.0,0.0,0.0,0.0,0.0,0.0,0.0,-3.1734,-3.3968,0.0,0.0,-3.9646,-4.1657,-4.335,-4.4798,-4.5665,-4.566,-4.5415,-4.5415,-4.4536,-4.3775,-4.3933,-4.3403,-4.2997,-4.3369,0.0,0.0,-4.8206,-5.1133,0.0,-5.4465,-5.6004,0.0,-5.5818,0.0,-5.6105,-5.575,-5.6207,0.0,0.0,-5.6867,-5.7306,-5.7865,-5.7881,-5.7881,-5.7881,-5.7881,-5.7881,-5.7881,-5.7881,-5.7881,-5.7881,-5.7881,-5.7881,-5.7881,-5.7881,-5.7881,-5.7881,-5.7881,-5.7881,-5.778,-5.6325,-5.5681,-5.5564,-5.4093,-5.3501,-5.3501,-5.3501,-5.3501,-5.3501,0.0,0.0,0.0,0.0,0.0,0.0,0.0,0.0,0.0,0.0,0.0,0.0,0.0,0.0,0.0,0.0,0.0,0.0,0.0,0.0,0.0,0.0,0.0,0.0,0.0,0.0,0.0,0.0,0.0,0.0,0.0,0.0,0.0,0.0,0.0,0.0,0.0,0.0,0.0,0.0,0.0,0.0,0.0,0.0,0.0,0.0,0.0,0.0,0.0,0.0,0.0,-3.2034,-3.2647,-3.3993,-3.5653,-3.7186,0.0,-4.1349,-4.3317,-4.4979,-4.621,-4.6295,-4.6007,-4.5449,-4.4434,-4.3792,-4.3105,-4.2141,-4.1897,0.0,-4.1373,-4.2912,0.0,0.0,0.0,0.0,-5.4346,-5.6224,-5.7222,0.0,-5.7036,0.0,-5.6714,-5.7036,-5.7273,0.0,-5.7273,-5.7459,-5.7865,-5.7881,-5.7881,-5.7881,-5.7881,-5.7881,-5.7881,-5.7881,-5.7881,-5.7881,-5.7881,-5.7881,-5.7881,-5.7881,-5.7881,-5.7881,0.0,-5.7881,-5.778,-5.6325,-5.5681,-5.5564,-5.4093,-5.3501,-5.3501,-5.3501,-5.3501,-5.3501,0.0,0.0,0.0,0.0,0.0,0.0,0.0,0.0,0.0,-2.1844,-2.1874,0.0,0.0,0.0,0.0,0.0,0.0,0.0,0.0,0.0,0.0,0.0,0.0,0.0,0.0,0.0,0.0,0.0,0.0,0.0,0.0,0.0,0.0,0.0,0.0,0.0,0.0,0.0,0.0,0.0,0.0,0.0,0.0,0.0,0.0,0.0,0.0,0.0,0.0,0.0,-3.3275,-3.338,-3.4607,-3.5896,-3.7191,-3.8704,-4.0609,-4.259,-4.4264,-4.5808,-4.6786,-4.616,-4.5923,-4.528,-4.3081,-4.2878,-4.253,-4.0502,0.0,-4.0595,-4.0062,-4.1179,-4.2929,-4.5314,0.0,-5.1133,-5.416,-5.5869,-5.707,-5.7797,-5.7881,-5.7881,-5.7881,-5.7881,-5.7881,-5.7881,-5.7881,-5.7881,-5.7881,-5.7881,-5.7881,-5.7881,-5.7881,-5.7881,-5.7881,-5.7881,-5.7881,-5.7881,-5.7881,-5.7881,-5.7881,-5.7881,-5.7881,-5.7881,0.0,0.0,-5.778,-5.6325,-5.5681,-5.5564,-5.4093,-5.3501,-5.3501,-5.3501,-5.3501,-5.3501,0.0,0.0,0.0,0.0,0.0,0.0,0.0,0.0,0.0,0.0,-2.2853,-2.2808,0.0,0.0,0.0,0.0,0.0,0.0,0.0,0.0,0.0,0.0,0.0,0.0,0.0,0.0,0.0,0.0,0.0,0.0,0.0,0.0,0.0,0.0,0.0,0.0,0.0,0.0,0.0,0.0,0.0,0.0,0.0,0.0,0.0,0.0,0.0,0.0,0.0,0.0,-3.4412,-3.6701,-3.7464,-3.8257,-3.9219,-4.0919,-4.2141,-4.3412,-4.5748,-4.7051,-4.7699,-4.7534,-4.7056,-4.6177,-4.4581,-4.2828,0.0,0.0,-3.9225,-3.8633,-3.9089,-4.0392,-4.2337,-4.5229,0.0,0.0,0.0,0.0,-5.707,0.0,0.0,0.0,0.0,0.0,0.0,0.0,0.0,-5.7881,-5.7881,-5.7881,-5.7881,-5.7881,-5.7881,-5.7881,-5.7881,-5.7881,-5.7881,-5.7881,-5.7881,-5.7881,-5.7881,-5.7881,-5.7881,-5.7881,-5.7881,0.0,-5.778,-5.6325,-5.5681,-5.5564,-5.4093,-5.3501,-5.3501,-5.3501,-5.3501,-5.3501,0.0,0.0,0.0,0.0,0.0,0.0,0.0,0.0,-2.3161,-2.4477,-2.4388,-2.4193,-2.4126,-2.3819,0.0,0.0,0.0,0.0,0.0,0.0,0.0,0.0,0.0,0.0,0.0,0.0,0.0,0.0,0.0,0.0,0.0,0.0,0.0,0.0,0.0,0.0,0.0,0.0,0.0,0.0,0.0,0.0,0.0,0.0,0.0,0.0,0.0,0.0,0.0,0.0,-3.3499,-3.5729,-3.7749,-3.9179,-4.0343,-4.1609,-4.3138,-4.4702,-4.6354,-4.7614,-4.8291,-4.753,-4.7056,-4.5991,-4.2956,0.0,0.0,0.0,-3.7838,-3.777,-3.7313,0.0,0.0,0.0,0.0,0.0,0.0,0.0,0.0,0.0,0.0,0.0,0.0,0.0,0.0,0.0,0.0,-5.7881,-5.7881,-5.7881,-5.7881,-5.7881,-5.7881,-5.7881,-5.7881,-5.7881,-5.7881,-5.7881,-5.7881,-5.7881,-5.7881,-5.7881,-5.7881,-5.7881,-5.7881,0.0,-5.778,-5.6325,-5.5681,-5.5564,-5.4093,-5.3501,-5.3501,-5.3501,-5.3501,-5.3501,0.0,0.0,0.0,0.0,0.0,0.0,0.0,-2.3236,-2.4253,-2.545,-2.5615,-2.5397,-2.4874,-2.4216,-2.3759,0.0,0.0,0.0,0.0,0.0,0.0,0.0,0.0,0.0,0.0,0.0,0.0,0.0,0.0,0.0,0.0,0.0,0.0,0.0,0.0,0.0,0.0,0.0,0.0,0.0,0.0,0.0,0.0,0.0,0.0,0.0,0.0,0.0,0.0,0.0,-3.1884,-3.338,-3.6387,-3.8686,-4.0473,-4.1501,-4.3554,-4.5682,-4.6544,-4.7885,-4.8646,-4.7158,-4.6786,-4.5652,-4.1331,-4.0646,0.0,0.0,-3.6688,-3.7094,-3.6039,0.0,-4.0037,0.0,0.0,0.0,0.0,0.0,0.0,0.0,0.0,0.0,0.0,0.0,0.0,0.0,0.0,0.0,-5.7881,-5.7881,-5.7881,-5.7881,-5.7881,-5.7881,-5.7881,-5.7881,-5.7881,-5.7881,-5.7881,-5.7881,-5.7881,-5.7881,-5.7881,-5.7881,-5.7881,0.0,0.0,-5.6258,-5.5632,-5.5344,-5.4025,-5.3501,-5.3501,-5.3501,-5.3501,-5.3501,0.0,0.0,0.0,0.0,0.0,0.0,0.0,-2.3334,-2.4769,-2.551,-2.5615,-2.5585,-2.5501,-2.4903,-2.4261,0.0,0.0,0.0,0.0,0.0,0.0,0.0,0.0,0.0,0.0,0.0,0.0,0.0,0.0,0.0,0.0,0.0,0.0,0.0,0.0,0.0,0.0,0.0,0.0,0.0,0.0,0.0,0.0,0.0,0.0,0.0,0.0,0.0,0.0,0.0,0.0,-3.115,-3.3275,-3.6222,-3.9182,-4.0657,0.0,0.0,-4.6544,-4.7885,-4.8646,-4.7158,-4.6786,-4.5788,-4.1965,0.0,0.0,-3.7185,-3.6231,-3.5988,-3.6592,-3.7449,0.0,0.0,0.0,0.0,0.0,0.0,0.0,0.0,0.0,0.0,0.0,0.0,0.0,0.0,0.0,0.0,-5.7881,-5.7881,-5.7881,-5.7881,-5.7881,-5.7881,-5.7881,-5.7881,-5.7881,-5.7881,-5.7881,-5.7881,-5.7881,-5.7881,-5.7881,-5.7881,-5.7881,0.0,0.0,-5.6038,-5.531,-5.4617,-5.3805,-5.3501,-5.3501,-5.3501,-5.3501,-5.3501,0.0,0.0,0.0,0.0,0.0,0.0,-2.2239,-2.3625,-2.4844,-2.5501,-2.5959,-2.6048,-2.5636,-2.5352,-2.4754,0.0,0.0,0.0,0.0,0.0,0.0,0.0,0.0,0.0,0.0,0.0,0.0,0.0,0.0,0.0,0.0,0.0,0.0,0.0,0.0,0.0,0.0,0.0,0.0,0.0,0.0,0.0,0.0,0.0,0.0,0.0,0.0,0.0,0.0,0.0,0.0,0.0,-3.0881,-3.3278,0.0,0.0,-4.2217,-4.452,-4.5786,-4.6887,-4.7428,-4.6397,-4.6143,-4.5162,-4.1381,0.0,-3.9334,-3.6637,-3.5802,-3.5859,-3.666,-3.7398,-3.8734,0.0,-4.2523,-4.4621,-4.8663,0.0,0.0,0.0,0.0,0.0,0.0,0.0,0.0,0.0,0.0,0.0,-5.7881,-5.7881,-5.7881,-5.7881,-5.7881,-5.7881,-5.7881,-5.7881,-5.7881,-5.7881,-5.7881,-5.7881,-5.7881,-5.7881,-5.7881,-5.7881,-5.7881,0.0,0.0,-5.6021,-5.5277,-5.4515,-5.3788,-5.3501,-5.3501,-5.3501,-5.3501,-5.3501,0.0,0.0,0.0,0.0,0.0,-2.1859,-2.2343,-2.3648,-2.4769,-2.5232,-2.5899,-2.6123,-2.5659,-2.5412,-2.4918,-2.3984,0.0,0.0,0.0,0.0,0.0,0.0,0.0,0.0,0.0,0.0,-2.5794,-2.76,0.0,0.0,0.0,0.0,0.0,0.0,0.0,0.0,0.0,0.0,0.0,0.0,0.0,0.0,0.0,0.0,0.0,0.0,0.0,0.0,0.0,0.0,0.0,0.0,0.0,0.0,0.0,0.0,-4.0991,-4.3439,-4.4956,-4.6058,-4.6616,-4.5889,-4.5551,-4.4451,0.0,-3.9918,-3.8971,-3.6174,-3.5785,-3.6129,-3.6711,-3.7567,-3.8819,0.0,-4.1677,-4.3521,-4.709,-4.8409,0.0,0.0,0.0,0.0,0.0,0.0,0.0,0.0,0.0,0.0,0.0,-5.7881,-5.7881,-5.7881,-5.7881,-5.7881,-5.7881,-5.7881,-5.7881,-5.7881,-5.7881,-5.7881,-5.7881,-5.7881,-5.7763,-5.756,0.0,0.0,0.0,-5.5598,-5.4938,-5.4211,-5.3704,-5.3501,-5.3501,-5.3501,-5.3501,-5.3501,0.0,0.0,0.0,0.0,0.0,0.0,0.0,-2.3349,-2.4605,-2.4619,-2.5187,-2.5615,-2.5615,-2.5008,-2.4605,-2.459,0.0,0.0,0.0,0.0,0.0,0.0,0.0,0.0,0.0,0.0,-2.6243,-2.76,-2.8248,-2.8921,0.0,0.0,0.0,0.0,0.0,0.0,0.0,0.0,0.0,0.0,0.0,0.0,0.0,0.0,0.0,0.0,0.0,0.0,0.0,0.0,0.0,0.0,0.0,0.0,0.0,0.0,-3.9544,-4.2729,-4.421,-4.5698,-4.6616,-4.5889,-4.5145,-4.3819,-4.079,-3.9554,-3.8362,-3.6056,-3.6231,-3.6795,-3.6795,-3.8014,-3.9242,-3.9978,-4.1339,-4.3352,-4.638,-4.8071,0.0,0.0,0.0,0.0,0.0,0.0,0.0,0.0,0.0,0.0,0.0,-5.7881,-5.7881,-5.7881,-5.7881,-5.7881,-5.7881,-5.7881,-5.7881,-5.7881,-5.7881,-5.7881,-5.7881,-5.7881,-5.7492,0.0,0.0,0.0,0.0,-5.46,-5.4177,-5.3518,-5.3501,-5.3501,-5.3501,-5.3501,-5.3501,-5.3501,0.0,0.0,0.0,0.0,0.0,0.0,0.0,-2.2966,-2.3924,-2.3924,-2.45,-2.4918,-2.4918,-2.4724,-2.4784,-2.5232,0.0,0.0,0.0,0.0,0.0,0.0,0.0,0.0,0.0,0.0,-2.6707,-2.8978,-2.9187,-2.9594,-3.0208,-2.9774,-2.8861,0.0,0.0,0.0,0.0,0.0,0.0,0.0,0.0,0.0,0.0,0.0,0.0,0.0,0.0,0.0,0.0,0.0,0.0,0.0,0.0,0.0,0.0,-3.2534,-3.619,-3.9658,-4.1134,-4.2236,-4.2811,-4.2066,-4.2083,-4.1627,-3.9157,-3.8802,-3.8497,-3.6772,-3.6626,-3.7117,-3.8132,-3.8684,-3.9732,-4.1972,-4.276,0.0,0.0,0.0,0.0,0.0,0.0,0.0,0.0,0.0,0.0,0.0,0.0,0.0,0.0,-5.7881,-5.7881,-5.7881,-5.7881,-5.7881,-5.7881,-5.7881,-5.7881,-5.7881,-5.7881,-5.7628,-5.7154,-5.7154,0.0,0.0,0.0,0.0,0.0,-5.4583,-5.416,-5.3501,-5.3501,-5.3501,-5.3501,-5.3501,-5.3501,-5.3382,0.0,0.0,0.0,0.0,0.0,0.0,0.0,-2.2428,-2.3251,-2.3251,-2.3819,-2.4321,-2.4575,-2.4605,-2.4874,-2.5555,0.0,0.0,0.0,0.0,0.0,0.0,0.0,0.0,-2.5561,-2.5615,-2.6916,-2.9606,-2.9606,-3.0028,-3.0881,-3.0627,-2.9729,-2.8349,-2.8094,0.0,0.0,0.0,0.0,0.0,0.0,0.0,-3.0133,0.0,0.0,0.0,0.0,0.0,0.0,0.0,0.0,0.0,0.0,0.0,0.0,0.0,-3.3496,-3.6437,0.0,-3.9847,-4.0361,-4.0155,-4.024,-3.9935,-3.8294,-3.8041,-3.7804,-3.6603,-3.6806,-3.7483,-3.8413,-3.9039,-4.0104,-4.2236,-4.2811,0.0,0.0,0.0,0.0,0.0,0.0,0.0,0.0,0.0,0.0,0.0,0.0,0.0,0.0,-5.7881,-5.7881,-5.7881,-5.7881,-5.7881,-5.7881,-5.7881,-5.7881,-5.7881,-5.7611,-5.7239,-5.6799,-5.6511,0.0,0.0,0.0,0.0,0.0,-5.4177,-5.3907,-5.3501,-5.3501,-5.3501,-5.3501,-5.3501,-5.3501,-5.3382,0.0,0.0,0.0,0.0,0.0,0.0,0.0,0.0,-2.2703,-2.2703,-2.3242,-2.3849,-2.4455,-2.453,-2.4814,-2.5555,0.0,0.0,0.0,0.0,0.0,0.0,0.0,0.0,-2.5644,-2.5719,-2.7006,-2.9606,-2.9696,-3.0372,-3.157,-3.0986,-3.0342,-2.9651,-2.9011,-2.8308,0.0,0.0,0.0,0.0,-2.9337,-2.9577,0.0,0.0,0.0,0.0,0.0,0.0,0.0,0.0,0.0,0.0,0.0,0.0,0.0,0.0,0.0,0.0,0.0,-3.8154,-3.8954,-3.9556,-3.9268,-3.865,-3.7922,-3.7246,0.0,-3.5836,-3.6817,-3.7872,-3.8041,-3.9174,-4.0375,-4.1305,0.0,0.0,0.0,0.0,0.0,0.0,0.0,0.0,0.0,0.0,0.0,0.0,0.0,0.0,0.0,-5.7881,-5.7881,-5.7881,-5.7831,-5.7831,-5.7881,-5.7881,-5.7865,-5.7797,-5.712,-5.6748,-5.6613,-5.5936,0.0,0.0,0.0,0.0,0.0,-5.3501,-5.3501,-5.3501,-5.3501,-5.3501,-5.3501,-5.3501,-5.3501,-5.3501,0.0,0.0,0.0,0.0,0.0,0.0,0.0,0.0,0.0,0.0,-2.3242,-2.3655,-2.3819,-2.3849,-2.4313,0.0,0.0,0.0,0.0,0.0,0.0,0.0,0.0,0.0,-2.6333,-2.6881,-2.7944,-2.9606,-3.0582,-3.1466,-3.2258,-3.2632,-3.1898,-3.0283,-3.0118,-2.9131,0.0,0.0,0.0,0.0,-2.9337,-2.9307,0.0,0.0,0.0,0.0,-2.7245,-2.7405,0.0,0.0,0.0,0.0,0.0,0.0,0.0,0.0,-2.9709,-3.0072,-3.2452,0.0,-3.5753,-3.5875,-3.6611,-3.7094,0.0,-3.6485,-3.6745,-3.6575,0.0,-3.7567,-3.9268,-3.9859,-4.0916,0.0,0.0,0.0,0.0,0.0,0.0,0.0,0.0,0.0,0.0,0.0,0.0,0.0,0.0,0.0,0.0,-5.7881,-5.7881,-5.7881,-5.734,-5.7323,-5.7881,-5.7881,-5.7611,-5.7053,-5.6884,-5.6207,-5.5108,-5.4938,0.0,0.0,0.0,0.0,-5.3501,-5.3501,-5.3501,-5.3501,-5.3501,-5.3501,-5.3501,-5.3501,-5.3501,-5.3382,0.0,0.0,0.0,0.0,0.0,0.0,0.0,0.0,0.0,0.0,0.0,0.0,0.0,0.0,0.0,0.0,0.0,0.0,0.0,0.0,0.0,0.0,0.0,-2.5555,-2.6572,-2.727,-2.8393,-2.9998,-3.1002,-3.1989,-3.2961,-3.3021,-3.2138,-3.0462,-2.9564,-2.8603,0.0,0.0,0.0,0.0,-2.8861,0.0,0.0,0.0,0.0,0.0,-2.6617,-2.6811,0.0,-2.8263,-2.8143,-2.7824,0.0,0.0,0.0,0.0,-2.8876,-2.8895,-3.0316,-3.2671,-3.4881,-3.5457,-3.6458,-3.7178,-3.6749,0.0,0.0,0.0,0.0,0.0,0.0,0.0,0.0,0.0,0.0,0.0,0.0,0.0,0.0,0.0,0.0,0.0,0.0,0.0,0.0,0.0,0.0,0.0,0.0,-5.7391,-5.7239,-5.69,-5.6511,-5.6664,-5.7391,-5.7053,-5.6697,-5.6292,-5.5953,-5.5361,-5.4583,-5.4245,-5.3873,0.0,0.0,0.0,-5.3501,-5.3501,-5.3501,-5.3501,-5.3501,-5.3501,-5.3501,-5.3501,-5.3501,-5.3433,0.0,0.0,0.0,0.0,0.0,0.0,0.0,0.0,0.0,0.0,0.0,0.0,0.0,0.0,0.0,0.0,0.0,0.0,0.0,0.0,0.0,0.0,-2.5809,-2.6108,-2.6886,-2.7465,-2.8663,-3.0507,-3.1271,-3.2273,-3.3484,-3.3021,-3.1988,-3.0417,-2.8573,-2.7705,0.0,0.0,0.0,0.0,-2.8323,0.0,0.0,0.0,0.0,0.0,0.0,0.0,0.0,-2.7904,-2.8004,-2.7809,-2.9067,0.0,0.0,0.0,0.0,0.0,-2.9624,-3.2395,-3.5227,-3.6078,-3.7103,-3.7838,-3.7737,0.0,0.0,0.0,0.0,0.0,0.0,0.0,0.0,0.0,0.0,0.0,0.0,0.0,0.0,0.0,0.0,0.0,0.0,0.0,0.0,0.0,0.0,0.0,0.0,-5.6697,-5.6359,-5.5733,-5.5598,-5.5835,-5.6461,-5.597,-5.5649,-5.553,-5.4905,-5.4532,-5.4397,-5.3788,-5.3501,0.0,0.0,0.0,-5.3501,-5.3501,-5.3501,-5.3501,-5.3501,-5.3501,-5.3501,-5.3501,-5.3501,-5.3467,0.0,0.0,0.0,0.0,0.0,0.0,0.0,0.0,0.0,0.0,0.0,0.0,0.0,0.0,0.0,0.0,0.0,0.0,0.0,0.0,0.0,-2.73,-2.6761,-2.7021,-2.8263,-2.8382,-2.9116,-3.0507,-3.1749,-3.2751,-3.3499,-3.3994,-3.2856,-3.0447,-2.9056,-2.8113,-2.7645,-2.8308,0.0,-2.766,0.0,0.0,0.0,0.0,0.0,0.0,0.0,0.0,0.0,-2.6826,-2.7225,-2.7735,-2.8502,0.0,0.0,0.0,0.0,0.0,-3.0569,-3.3509,-3.5594,-3.4325,-3.5878,-3.7576,-3.7017,0.0,0.0,0.0,0.0,0.0,0.0,0.0,0.0,0.0,0.0,0.0,0.0,0.0,0.0,0.0,0.0,0.0,0.0,0.0,0.0,0.0,0.0,0.0,0.0,-5.6224,-5.5835,-5.5681,-5.5091,-5.482,-5.4938,-5.5446,-5.5395,-5.4769,-5.4634,-5.4262,-5.367,-5.3551,-5.3501,0.0,0.0,-5.3501,-5.3501,-5.3501,-5.3501,-5.3501,-5.3501,-5.3501,-5.3501,-5.3501,-5.3501,-5.3382,0.0,0.0,0.0,0.0,0.0,0.0,0.0,0.0,0.0,0.0,0.0,0.0,0.0,0.0,0.0,0.0,0.0,0.0,0.0,0.0,-2.76,-2.76,-2.73,-2.7615,-2.8577,-2.928,-3.0268,-3.1584,-3.2916,-3.3918,-3.4562,-3.3425,-3.1854,-2.9953,-2.8622,-2.8094,-2.8169,-2.8472,-2.8412,-2.8184,0.0,0.0,0.0,0.0,0.0,0.0,0.0,0.0,0.0,0.0,-2.7061,-2.7645,-2.7974,0.0,0.0,0.0,0.0,0.0,-2.9953,-3.2272,-3.425,-3.4641,-3.7494,-3.9967,-3.9199,0.0,0.0,0.0,0.0,0.0,0.0,0.0,0.0,0.0,0.0,0.0,0.0,0.0,0.0,0.0,0.0,0.0,0.0,0.0,0.0,0.0,0.0,0.0,0.0,0.0,-5.4921,-5.4532,-5.4177,-5.4008,-5.4008,-5.4346,-5.4346,-5.4008,-5.4008,-5.3822,-5.3501,-5.3501,-5.3501,-5.3501,0.0,-5.3501,-5.3501,-5.3501,-5.3501,-5.3501,-5.3501,-5.3501,-5.345,-5.301,-5.227,-5.1493,0.0,0.0,0.0,0.0,0.0,0.0,0.0,0.0,0.0,0.0,0.0,0.0,0.0,0.0,0.0,0.0,0.0,0.0,0.0,-2.7091,-2.7435,-2.7585,-2.76,-2.7989,-2.8816,-2.9789,-3.1016,-3.2512,-3.3529,-3.4277,-3.4756,-3.2691,-3.0986,-2.9562,-2.8528,-2.8274,-2.8607,-2.8771,-2.8831,-2.8831,0.0,0.0,0.0,0.0,0.0,0.0,0.0,0.0,0.0,0.0,0.0,0.0,0.0,0.0,0.0,-2.76,-2.76,-2.7929,-2.9412,-3.117,-3.3045,-3.5029,-3.8395,-4.1255,-4.1288,-4.0629,0.0,0.0,0.0,0.0,0.0,0.0,0.0,0.0,0.0,0.0,0.0,0.0,0.0,0.0,0.0,0.0,0.0,0.0,0.0,0.0,0.0,0.0,0.0,0.0,-5.4076,-5.3518,-5.3501,-5.3501,-5.3501,-5.3501,-5.3501,-5.3501,-5.3501,-5.3501,-5.3501,-5.3501,-5.3501,-5.3501,-5.3298,-5.323,-5.3213,-5.3044,-5.2976,-5.2976,-5.2976,-5.2976,-5.2892,-5.2283,-5.1095,-4.9847,0.0,0.0,0.0,0.0,0.0,0.0,0.0,0.0,0.0,0.0,0.0,0.0,0.0,0.0,0.0,0.0,0.0,0.0,0.0,-2.6632,-2.6956,-2.757,-2.76,-2.8214,-2.9517,-2.9636,-3.0597,-3.2512,-3.2617,-3.2677,-3.2691,-3.2512,-3.142,-2.9606,-2.9502,-2.9131,-2.8637,-2.925,-2.9532,-2.9532,-2.9532,0.0,0.0,0.0,0.0,0.0,0.0,0.0,0.0,0.0,0.0,0.0,0.0,0.0,-2.76,-2.76,-2.76,-2.8019,-2.9924,-3.1583,-3.307,-3.4303,-3.6318,0.0,-4.1584,-4.0983,0.0,-4.2469,0.0,0.0,0.0,0.0,0.0,0.0,0.0,0.0,0.0,0.0,0.0,0.0,0.0,0.0,0.0,0.0,0.0,0.0,0.0,0.0,0.0,0.0,0.0,-5.3501,-5.3501,-5.3501,-5.3501,-5.3501,-5.3501,-5.3501,-5.3501,-5.3501,-5.3501,-5.3501,-5.3501,-5.3467,-5.2706,-5.2384,-5.2334,-5.1657,-5.1386,-5.1386,-5.1386,-5.1386,-5.1369,-5.1286,-5.066,-4.9781,0.0,0.0,0.0,0.0,0.0,0.0,0.0,0.0,0.0,0.0,0.0,0.0,0.0,0.0,0.0,0.0,0.0,0.0,0.0,-2.6138,-2.6692,-2.6971,-2.7375,-2.8034,-2.8951,-2.9744,-3.0926,-3.2512,-3.2916,-3.2916,-3.2497,-3.2064,-3.1076,-2.9592,-2.9146,-2.8831,-2.8622,-2.8861,-2.8966,-2.8966,-2.8966,-2.8438,0.0,0.0,0.0,0.0,0.0,0.0,0.0,0.0,-2.6048,-2.6731,0.0,0.0,-2.76,0.0,-2.76,-2.7854,-2.9011,-3.0923,-3.2947,-3.4328,-3.6135,0.0,0.0,-4.1756,-4.3191,-4.4858,-4.5006,0.0,0.0,0.0,0.0,0.0,0.0,0.0,0.0,0.0,0.0,0.0,0.0,0.0,0.0,0.0,0.0,0.0,0.0,0.0,0.0,0.0,0.0,-5.3501,-5.3501,-5.3501,-5.3501,-5.3501,-5.3501,-5.3501,-5.3501,-5.3501,-5.3484,-5.2993,-5.2756,-5.2706,-5.1961,-5.164,-5.1606,-5.1319,-5.1185,-5.1185,-5.1185,-5.093,-5.0524,-5.0524,-4.9623,-4.8512,0.0,0.0,0.0,0.0,0.0,0.0,0.0,0.0,0.0,0.0,0.0,0.0,0.0,0.0,0.0,0.0,0.0,0.0,-2.459,-2.5457,-2.6063,-2.6273,-2.6707,-2.7275,-2.7949,-2.9026,-3.0328,-3.1884,-3.2332,-3.2317,-3.1869,-3.1391,-3.0731,-2.9849,-2.9205,-2.8906,-2.8891,-2.8682,-2.8727,-2.8891,-2.8682,-2.8323,0.0,0.0,0.0,0.0,0.0,0.0,0.0,0.0,-2.5734,0.0,0.0,0.0,0.0,0.0,-2.7899,-2.8334,-2.8786,-3.0672,-3.2811,-3.4083,0.0,0.0,-3.9588,-4.1933,-4.4263,-4.6289,-4.5916,0.0,0.0,0.0,0.0,0.0,0.0,0.0,0.0,0.0,0.0,0.0,0.0,0.0,0.0,0.0,0.0,0.0,0.0,0.0,0.0,0.0,0.0,0.0,-5.3129,-5.301,-5.279,-5.2773,-5.2773,-5.2773,-5.2773,-5.2909,-5.3112,-5.2553,-5.2181,-5.1911,-5.1183,-5.0862,-5.0845,-5.0608,-5.0524,-5.0524,-5.0524,-5.0202,-4.9746,-4.9746,-4.8642,-4.7271,0.0,0.0,0.0,0.0,0.0,0.0,0.0,0.0,0.0,0.0,0.0,0.0,0.0,0.0,0.0,0.0,0.0,0.0,-2.4545,-2.4605,-2.4903,-2.557,-2.5615,-2.5929,-2.6572,-2.727,-2.8558,-3.0492,-3.0492,-3.0492,-3.0492,-3.0507,-3.0492,-3.0462,-2.9849,-2.9592,-2.9547,-2.8861,-2.8966,-2.9532,-2.8861,-2.8592,-2.8442,0.0,0.0,0.0,0.0,0.0,0.0,0.0,-2.5038,0.0,0.0,0.0,0.0,0.0,-2.8558,-2.9606,-2.9592,-3.1016,-3.2677,0.0,0.0,0.0,-4.0158,-4.1395,-4.2921,-4.645,0.0,-4.2704,-4.3547,0.0,0.0,0.0,0.0,0.0,0.0,0.0,0.0,0.0,0.0,0.0,0.0,0.0,0.0,0.0,0.0,0.0,0.0,0.0,0.0,0.0,-5.2283,-5.1944,-5.1217,-5.1185,-5.1185,-5.1185,-5.1185,-5.1589,-5.2283,-5.2283,-5.1894,-5.1134,-5.0405,-5.0084,-5.0016,-4.9306,-4.9001,-4.9001,-4.9001,-4.9001,-4.9001,-4.9001,-4.7836,-4.6349,0.0,0.0,0.0,0.0,0.0,0.0,0.0,0.0,0.0,0.0,0.0,0.0,0.0,0.0,0.0,0.0,0.0,0.0,-2.3872,-2.4335,-2.4694,-2.4889,-2.5809,-2.6393,-2.6587,-2.727,-2.8349,-2.9864,-2.9864,-2.9864,-2.9864,-3.0298,-3.0028,-2.9175,-2.9487,-2.9082,-2.8184,-2.7989,-2.8019,-2.8184,-2.7989,-2.7899,-2.7809,0.0,0.0,0.0,0.0,0.0,0.0,0.0,0.0,0.0,0.0,0.0,0.0,-2.7735,-2.8558,-2.9517,-2.9011,-3.0672,0.0,0.0,0.0,0.0,0.0,-4.2447,0.0,0.0,0.0,-4.5285,-4.4295,0.0,0.0,0.0,0.0,0.0,0.0,0.0,0.0,0.0,0.0,0.0,0.0,0.0,0.0,0.0,0.0,0.0,0.0,0.0,0.0,0.0,-5.1539,-5.1437,-5.1185,-5.1185,-5.1185,-5.1185,-5.1185,-5.1319,-5.1522,-5.0997,-5.0625,-5.0388,-4.9644,-4.9323,-4.9306,-4.9086,-4.9001,-4.9001,-4.9001,-4.9001,-4.9001,-4.9001,-4.8225,-4.7239,0.0,0.0,0.0,0.0,0.0,0.0,0.0,0.0,0.0,0.0,-2.3595,-2.3595,0.0,0.0,0.0,0.0,0.0,0.0,0.0,-2.3984,-2.4321,-2.459,-2.5367,-2.6048,-2.6572,-2.7001,-2.7735,-2.8813,-2.8813,-2.8948,-2.9232,-2.9849,-2.9864,-2.9355,-2.9547,-2.9007,-2.7974,-2.7435,-2.721,-2.721,-2.721,-2.736,-2.7555,0.0,0.0,0.0,0.0,0.0,0.0,0.0,0.0,0.0,0.0,0.0,0.0,-2.8049,-2.9116,-3.0432,-3.0836,0.0,0.0,0.0,0.0,0.0,0.0,0.0,0.0,0.0,0.0,0.0,0.0,0.0,0.0,0.0,0.0,0.0,0.0,0.0,0.0,0.0,0.0,0.0,0.0,0.0,0.0,0.0,0.0,0.0,0.0,0.0,0.0,0.0,-5.076,-5.0625,-5.0338,-5.0338,-5.0338,-5.0338,-5.0338,-5.0338,-5.0338,-5.0168,-4.9932,-4.9644,-4.9187,-4.9001,-4.9001,-4.9001,-4.9001,-4.9001,-4.9001,-4.875,-4.8433,-4.8433,-4.7589,-4.6486,0.0,0.0,-2.2957,-2.349,0.0,0.0,0.0,0.0,0.0,-2.3595,-2.3595,-2.3595,0.0,0.0,0.0,-2.3595,0.0,0.0,0.0,-2.3595,-2.3909,-2.4575,-2.4724,-2.5367,-2.6647,-2.6701,-2.7001,-2.76,-2.76,-2.7914,-2.8517,-2.9217,-2.9759,-3.0208,-2.9666,-2.9041,-2.8323,-2.7051,-2.6497,-2.6497,-2.6497,-2.6881,-2.742,-2.742,0.0,0.0,0.0,0.0,0.0,0.0,0.0,0.0,0.0,0.0,-2.772,-2.8323,-2.9894,-3.1809,0.0,0.0,0.0,0.0,0.0,0.0,0.0,0.0,0.0,0.0,0.0,0.0,0.0,0.0,0.0,0.0,0.0,0.0,0.0,0.0,0.0,0.0,0.0,0.0,0.0,0.0,0.0,0.0,0.0,0.0,0.0,0.0,0.0,-5.0016,-4.9999,-4.9678,-4.9018,-4.9001,-4.9001,0.0,-4.9001,-4.9001,-4.9018,-4.9678,-4.9627,-4.9001,-4.9001,-4.9001,-4.9001,-4.9001,-4.9001,-4.9001,-4.9001,-4.8433,-4.7589,-4.7589,-4.64,-4.4812,0.0,0.0,-2.3445,-2.358,0.0,0.0,0.0,0.0,-2.3595,-2.3595,-2.3595,-2.3595,-2.3595,-2.3595,0.0,-2.3595,-2.3595,0.0,0.0,-2.3595,-2.3909,-2.4575,-2.5615,-2.6542,-2.736,-2.739,-2.745,-2.76,-2.76,-2.7675,-2.7839,-2.8487,-2.8592,-2.8229,-2.8094,-2.766,-2.6976,-2.6153,-2.5824,-2.5824,-2.5824,-2.5899,-2.6033,-2.6033,-2.5615,0.0,0.0,0.0,0.0,0.0,0.0,0.0,-2.6258,-2.6956,-2.763,-2.7779,-2.919,-3.0926,0.0,-3.3514,0.0,0.0,0.0,0.0,0.0,0.0,0.0,0.0,0.0,0.0,0.0,0.0,0.0,0.0,0.0,0.0,0.0,0.0,0.0,0.0,0.0,0.0,0.0,0.0,0.0,0.0,0.0,0.0,0.0,0.0,0.0,-4.9238,-4.9238,-4.9171,-4.9001,-4.9001,-4.9001,0.0,-4.9001,-4.9001,-4.9018,-4.9171,-4.9154,-4.9001,-4.9001,-4.9001,-4.9001,-4.9001,-4.9001,-4.9001,-4.9001,-4.8433,-4.7589,-4.7589,-4.64,-4.4812,0.0,0.0,0.0,0.0,0.0,0.0,0.0,0.0,-2.3947,-2.364,-2.3595,-2.3595,-2.3595,-2.3595,0.0,0.0,-2.3595,-2.3595,0.0,0.0,-2.4044,-2.5038,-2.6063,-2.6752,-2.7121,-2.7121,-2.7121,-2.7121,-2.6806,-2.6986,-2.7615,-2.8618,-2.8876,-2.8543,-2.8229,-2.772,-2.7001,-2.5689,-2.5113,-2.5113,-2.5113,-2.5307,-2.5615,-2.5615,-2.5367,-2.5113,-2.5457,0.0,0.0,0.0,0.0,0.0,0.0,0.0,-2.7255,-2.7899,-2.9011,-3.0477,0.0,0.0,0.0,0.0,0.0,0.0,0.0,0.0,0.0,0.0,0.0,0.0,0.0,0.0,0.0,0.0,0.0,0.0,0.0,0.0,0.0,0.0,0.0,0.0,0.0,0.0,0.0,0.0,0.0,0.0,0.0,-4.9001,-4.9001,-4.9001,-4.9001,-4.9001,-4.9001,-4.9001,-4.9001,-4.9001,-4.9001,-4.9001,-4.9001,-4.9001,-4.9001,-4.9001,-4.9001,-4.9001,-4.9001,-4.9001,-4.9001,-4.9001,-4.9001,-4.8433,-4.7589,-4.7589,-4.64,-4.4812,0.0,0.0,0.0,0.0,0.0,0.0,0.0,0.0,0.0,-2.367,-2.3595,-2.3595,-2.3595,-2.3595,-2.3595,0.0,0.0,0.0,-2.3595,0.0,0.0,-2.5367,-2.6078,-2.6422,-2.6422,-2.6422,-2.6422,-2.6422,-2.5869,-2.6393,-2.7959,-2.8843,-2.9382,-2.9577,-2.8771,-2.8053,-2.73,-2.5397,-2.453,-2.4425,-2.4425,-2.4754,-2.5255,-2.5255,-2.5255,-2.527,-2.539,-2.5794,-2.6288,-2.6512,0.0,0.0,0.0,0.0,-2.6497,-2.7724,-2.8622,-2.9876,0.0,0.0,0.0,0.0,0.0,0.0,0.0,0.0,0.0,0.0,0.0,0.0,0.0,0.0,0.0,0.0,0.0,0.0,0.0,0.0,0.0,0.0,0.0,0.0,0.0,0.0,0.0,0.0,0.0,0.0,-4.9001,-4.9001,-4.9001,-4.9001,-4.9001,-4.9001,-4.9001,-4.9001,-4.9001,-4.9001,-4.8883,-4.8883,-4.9001,-4.8883,-4.8883,-4.9001,-4.9001,-4.9001,-4.9001,-4.9001,-4.9001,-4.9001,-4.9001,-4.8338,-4.734,-4.734,-4.6154,-4.4548,0.0,0.0,0.0,0.0,0.0,0.0,0.0,0.0,0.0,0.0,-2.3595,-2.3595,-2.3595,-2.3595,-2.3595,-2.3595,-2.3595,-2.3595,0.0,0.0,0.0,-2.4724,-2.5367,-2.5734,-2.5734,-2.5734,-2.5734,-2.5734,-2.5636,-2.6871,-2.9322,-2.8334,-2.8483,-2.9562,-2.8289,-2.736,-2.6632,-2.5202,-2.4261,-2.3729,-2.3729,-2.3789,-2.3864,-2.3864,-2.3864,-2.3939,-2.453,-2.4784,-2.5038,-2.6213,-2.6273,0.0,0.0,0.0,0.0,-2.5794,-2.6871,-2.8094,0.0,0.0,0.0,0.0,0.0,0.0,0.0,0.0,0.0,0.0,0.0,0.0,0.0,0.0,0.0,0.0,0.0,0.0,0.0,0.0,0.0,0.0,0.0,0.0,0.0,0.0,0.0,0.0,0.0,0.0,-4.9001,-4.9001,-4.9001,-4.9001,-4.9001,-4.9001,-4.9001,-4.9001,-4.9001,-4.9001,-4.8359,-4.8392,-4.8984,-4.8359,-4.8409,-4.9001,-4.9001,-4.9001,-4.9001,-4.9001,-4.9001,-4.9001,-4.9001,-4.7933,-4.6384,-4.6384,-4.5143,-4.3512,0.0,0.0,0.0,0.0,0.0,0.0,0.0,0.0,0.0,0.0,0.0,-2.3595,-2.3595,-2.3595,-2.3595,-2.3595,-2.3595,0.0,0.0,0.0,0.0,-2.459,-2.4889,-2.5038,-2.5038,-2.5038,-2.5038,-2.5038,-2.4672,-2.6243,-2.9592,-2.9007,-3.0026,-3.2257,-3.0148,-2.9056,-2.8607,-2.5785,-2.4425,-2.4126,-2.3759,-2.4268,-2.5151,-2.4029,-2.4298,-2.5166,-2.4343,-2.4276,-2.4694,-2.5277,-2.5516,-2.5659,-2.5959,0.0,0.0,0.0,0.0,0.0,0.0,0.0,0.0,0.0,0.0,0.0,0.0,0.0,0.0,0.0,0.0,0.0,0.0,0.0,0.0,0.0,0.0,0.0,0.0,0.0,0.0,0.0,0.0,0.0,0.0,0.0,0.0,0.0,0.0,-4.9001,-4.9001,-4.9001,-4.9001,-4.9001,-4.9001,-4.8798,-4.8409,-4.8392,-4.8189,-4.775,-4.7445,-4.7445,-4.775,-4.7428,-4.7699,-4.8392,-4.8392,-4.8156,-4.7767,-4.7767,-4.7767,-4.7736,-4.7242,-4.6763,-4.6299,-4.584,-4.5013,-4.4143,0.0,0.0,0.0,0.0,0.0,0.0,0.0,0.0,0.0,0.0,0.0,-2.3595,-2.3595,0.0,0.0,0.0,-2.3595,0.0,0.0,0.0,0.0,0.0,-2.435,-2.435,-2.435,-2.435,-2.435,-2.435,-2.4029,-2.5899,-2.9819,-2.9998,-3.2003,-3.5387,-3.2527,-3.0896,-3.0058,-2.6767,-2.5247,-2.5053,-2.4567,-2.536,-2.6746,-2.5734,-2.6393,-2.756,-2.539,-2.4941,-2.5277,-2.4769,-2.4814,-2.5121,-2.5277,-2.4889,0.0,0.0,0.0,0.0,0.0,0.0,0.0,0.0,0.0,0.0,0.0,0.0,0.0,0.0,0.0,0.0,0.0,0.0,0.0,0.0,0.0,0.0,0.0,0.0,0.0,0.0,0.0,0.0,0.0,0.0,0.0,0.0,0.0,-4.875,-4.9001,-4.8832,-4.8731,-4.8731,-4.8545,-4.8189,-4.7648,-4.7631,-4.7344,-4.6786,-4.6599,-4.6616,-4.6786,-4.6599,-4.6819,-4.7331,-4.7547,-4.731,-4.6786,-4.6544,-4.6484,-4.6378,-4.5509,-4.5424,-4.5728,-4.5064,-4.4637,-4.4412,0.0,0.0,0.0,0.0,0.0,0.0,0.0,0.0,0.0,0.0,0.0,-2.3595,-2.3595,-2.3595,-2.3595,-2.3595,-2.3595,0.0,0.0,0.0,0.0,0.0,0.0,0.0,-2.3655,-2.3655,-2.3655,-2.3655,-2.4246,-2.6563,-3.0477,-3.1092,-3.3813,-3.8048,-3.4786,-3.1958,-2.9562,-2.8079,-2.7091,-2.6482,-2.6452,-2.6896,-2.7735,-2.9475,-3.0584,-3.0913,-2.8308,-2.7405,-2.7151,-2.5232,-2.4201,-2.3819,-2.4455,-2.4186,-2.3655,0.0,0.0,0.0,0.0,0.0,0.0,0.0,0.0,0.0,0.0,0.0,0.0,0.0,0.0,0.0,0.0,0.0,0.0,0.0,0.0,0.0,0.0,0.0,0.0,0.0,0.0,0.0,0.0,0.0,0.0,0.0,0.0,-4.8047,-4.894,-4.8359,-4.7939,-4.7939,-4.7276,-4.6887,-4.6853,-4.6853,-4.6836,-4.6786,-4.6092,-4.6126,-4.6769,-4.6075,-4.5788,-4.5855,-4.6549,-4.6836,-4.6727,-4.5915,-4.5588,-4.5478,-4.4625,-4.4132,-4.3925,-4.3889,-4.3647,-4.3369,0.0,0.0,0.0,0.0,0.0,0.0,0.0,0.0,0.0,0.0,0.0,0.0,0.0,-2.3595,-2.3595,-2.3595,-2.3595,0.0,0.0,0.0,0.0,0.0,0.0,0.0,-2.3595,-2.3595,-2.3595,-2.3595,-2.3849,-2.5345,-2.8008,-2.9131,-3.0746,-3.2766,-3.2826,-3.2811,-3.2497,-2.8618,-2.7305,-2.7874,-2.7874,-2.9026,-3.0731,-3.0567,-3.1719,-3.308,-3.0417,-2.9217,-2.8723,-2.756,-2.6153,-2.4866,-2.4664,-2.4141,-2.3595,-2.3595,-2.4208,0.0,0.0,0.0,0.0,0.0,0.0,0.0,0.0,0.0,0.0,0.0,0.0,0.0,0.0,0.0,0.0,0.0,0.0,0.0,0.0,0.0,0.0,0.0,0.0,0.0,0.0,0.0,0.0,0.0,0.0,0.0,-4.8247,-4.7597,-4.7192,-4.7192,-4.6938,-4.6566,-4.6109,-4.5618,-4.541,-4.5393,-4.5111,-4.5111,-4.5393,-4.5094,-4.4976,-4.4993,-4.5275,-4.541,-4.5365,-4.5055,-4.461,-4.3986,-4.3138,-4.2647,-4.2447,-4.2306,-4.2462,-4.2776,0.0,0.0,0.0,-2.4126,0.0,-2.3595,-2.3595,-2.3595,-2.3595,-2.3595,0.0,0.0,0.0,0.0,-2.3595,-2.3595,-2.3595,-2.3595,-2.3595,-2.3595,0.0,0.0,0.0,0.0,-2.3595,-2.3595,-2.3595,-2.3595,-2.3834,-2.4852,-2.6617,-2.7739,-2.8846,-2.9924,-3.0567,-3.1839,-3.3245,-2.949,-2.8412,-2.928,-2.9729,-3.0956,-3.2557,-3.2991,-3.4247,-3.5507,-3.3051,-3.1913,-3.133,-2.9774,-2.8218,-2.6752,-2.5606,-2.4507,-2.3595,-2.3595,-2.4403,-2.5457,-2.6348,0.0,0.0,0.0,0.0,0.0,0.0,0.0,0.0,0.0,0.0,0.0,0.0,0.0,0.0,0.0,0.0,0.0,0.0,0.0,0.0,0.0,0.0,0.0,0.0,0.0,0.0,0.0,0.0,0.0,-4.747,-4.6836,-4.6312,-4.6058,-4.6041,-4.5821,-4.5331,-4.4823,-4.4615,-4.4615,-4.4615,-4.4615,-4.4615,-4.4615,-4.4615,-4.4615,-4.4615,-4.4615,-4.457,-4.4281,-4.3814,-4.3169,-4.2029,-4.1619,-4.1661,-4.1489,-4.1826,-4.25,-2.6557,-2.6063,-2.5435,-2.4754,-2.4081,-2.3655,-2.3625,-2.3625,-2.3625,-2.3625,0.0,0.0,0.0,0.0,0.0,-2.3595,-2.3595,-2.3595,-2.3595,-2.3595,-2.3595,0.0,0.0,0.0,-2.3595,-2.3595,-2.3595,-2.3595,-2.4246,-2.5232,-2.6512,-2.721,-2.8543,-3.0268,-2.8408,-2.8981,-3.1346,-3.0657,-3.0432,-3.0672,-3.1943,-3.2512,-3.308,-3.6881,-3.8362,-3.8167,-3.6267,-3.5579,-3.507,-3.1779,-3.0223,-2.9307,-2.7255,-2.5241,-2.3655,-2.364,-2.4133,-2.4649,0.0,0.0,0.0,0.0,0.0,0.0,0.0,0.0,0.0,0.0,0.0,0.0,0.0,0.0,0.0,0.0,0.0,0.0,0.0,0.0,0.0,0.0,0.0,0.0,0.0,0.0,0.0,0.0,0.0,-4.5744,-4.6722,-4.6075,-4.5331,-4.4632,-4.4615,-4.4615,-4.4615,-4.4615,-4.4615,-4.4615,-4.4615,-4.4615,-4.4615,-4.4615,-4.4615,-4.4615,-4.4615,-4.4615,-4.4542,-4.368,-4.3306,-4.3139,-4.1445,-4.1177,-4.1701,-4.1518,-4.182,-4.2479,-2.5884,-2.6123,-2.6108,-2.545,-2.5181,-2.4874,-2.4395,-2.4321,-2.4321,0.0,0.0,0.0,-2.4321,-2.3894,-2.3595,-2.3595,-2.3595,-2.3595,-2.3595,-2.3595,-2.3595,-2.3595,-2.3595,-2.3595,-2.3595,-2.3595,-2.3595,-2.3595,-2.3789,-2.4073,-2.4433,-2.5121,-2.5989,-2.6961,-2.6901,-2.7555,-2.8592,-2.7455,-2.8906,-3.1869,-3.13,-3.3066,-3.6133,-3.6776,-3.7898,-3.9005,-3.7958,-3.7285,-3.6671,-3.5295,-3.3125,-3.0449,-2.7515,-2.5884,-2.4956,-2.4455,-2.5128,-2.5839,-2.4859,0.0,0.0,0.0,0.0,0.0,0.0,0.0,0.0,0.0,0.0,0.0,0.0,0.0,0.0,0.0,0.0,0.0,0.0,0.0,0.0,0.0,0.0,0.0,0.0,0.0,0.0,0.0,-4.3828,-4.4359,-4.5903,-4.5297,-4.4818,-4.4615,-4.4615,-4.4615,-4.4615,-4.4615,-4.4615,-4.4615,-4.4615,-4.4615,-4.4615,-4.4615,-4.4615,-4.4615,-4.4615,-4.4615,-4.457,-4.4355,-4.3873,-4.3246,-4.2785,-4.2318,-4.1956,-4.2417,-4.2272,-4.1996,-2.6318,-2.6512,-2.6467,-2.6093,-2.6019,-2.5899,-2.5486,-2.5427,-2.5427,0.0,0.0,0.0,-2.5008,-2.4926,-2.4627,-2.4073,-2.3759,-2.3595,-2.3595,-2.3595,-2.3595,-2.3595,-2.3595,-2.3595,-2.3595,-2.3595,-2.3595,-2.3595,-2.3595,-2.3595,-2.361,-2.4014,-2.438,-2.4777,-2.5166,-2.5719,-2.6273,-2.5226,-2.729,-3.1375,-3.2243,-3.4038,-3.6297,-3.7315,-3.8242,0.0,0.0,-3.8571,-3.8153,-3.7509,-3.4906,-3.1481,-2.9011,-2.759,-2.6617,-2.5367,-2.6168,-2.7141,-2.5809,-2.6482,-2.7794,-2.8618,0.0,0.0,0.0,-3.2796,0.0,0.0,0.0,0.0,0.0,0.0,0.0,0.0,0.0,0.0,0.0,0.0,0.0,0.0,0.0,0.0,0.0,0.0,0.0,-4.2593,-4.2943,-4.3732,-4.5172,-4.4852,-4.4615,-4.4615,-4.4615,-4.4615,-4.4615,-4.4615,-4.4615,-4.4615,-4.4615,-4.4615,-4.4615,-4.4615,-4.4615,-4.4615,-4.4615,-4.4615,-4.4615,-4.4615,-4.4298,-4.3814,-4.3426,-4.2785,-4.2045,-4.2335,-4.1902,-4.1229,0.0,-2.7076,-2.6722,-2.6797,-2.6811,-2.6811,-2.6811,-2.6811,-2.6811,0.0,-2.6378,-2.6048,-2.6048,-2.6437,-2.6228,-2.5038,-2.4193,-2.3744,-2.3819,-2.3684,-2.3595,-2.3595,-2.3595,-2.3595,-2.3595,-2.3595,-2.3595,-2.3595,-2.3595,-2.3595,-2.3595,-2.3595,-2.3595,-2.3595,-2.3595,-2.3939,-2.447,-2.4178,-2.6183,-2.9921,-3.3425,-3.4831,0.0,0.0,-3.8916,-3.8586,-3.92,-3.9388,-3.9305,-3.8542,-3.5908,-3.2706,-3.1285,-3.0058,-2.8757,-2.6737,-2.753,-2.8742,-2.7395,-2.7525,-2.8438,-3.0088,-2.9295,0.0,-3.2302,-3.2213,0.0,0.0,0.0,0.0,0.0,0.0,0.0,0.0,0.0,0.0,0.0,0.0,0.0,0.0,0.0,0.0,0.0,-4.008,-4.0622,-4.0811,-4.2458,-4.3785,-4.4542,-4.4615,-4.4615,-4.4615,-4.4615,-4.4615,-4.4615,-4.4615,-4.4615,-4.4615,-4.4615,-4.4615,-4.4615,-4.4615,-4.4615,-4.4615,-4.4615,-4.4615,-4.4615,-4.4615,-4.4615,-4.4514,-4.3651,-4.2816,-4.211,-4.1834,-4.1194,-4.0499,-2.6746,-2.7121,-2.7585,-2.8113,-2.8203,-2.8203,-2.8203,-2.8203,-2.8203,-2.8203,-2.8562,-2.8801,-2.8801,-2.7974,-2.73,-2.7046,-2.542,-2.4634,-2.5181,-2.4208,-2.3595,-2.3595,-2.3595,-2.3595,-2.3595,-2.3595,-2.3595,-2.3595,-2.3595,-2.3595,-2.3595,-2.3595,-2.3595,-2.3595,-2.3595,-2.367,-2.3924,-2.5967,-2.7899,-2.9681,-3.0445,-3.3185,-3.6911,-3.7554,-3.8392,-3.923,-3.9328,-3.9388,-3.923,-3.8018,-3.6761,-3.5385,-3.3499,-3.2736,-3.2153,-3.0133,-3.0597,-3.1465,-3.0103,-3.0238,-3.0688,-3.0552,-3.1031,0.0,-3.0522,-3.0537,0.0,0.0,0.0,0.0,0.0,0.0,0.0,0.0,0.0,0.0,0.0,0.0,0.0,0.0,0.0,0.0,0.0,-3.9538,-4.0255,-4.1642,-4.335,-4.4412,-4.4598,-4.4615,-4.4615,-4.4615,-4.4615,-4.4615,-4.4615,-4.4615,-4.4615,-4.4615,-4.4615,-4.4615,-4.4615,-4.4615,-4.4615,-4.4615,-4.4615,-4.4615,-4.4615,-4.4615,-4.4615,-4.4514,-4.3651,-4.3216,-4.2972,-4.2222,-4.1384,-4.0647,-2.7046,-2.7375,-2.7809,-2.8472,-2.8876,-2.919,-2.9505,-2.9549,-2.9684,-2.9986,-3.0926,-3.1031,-2.9756,-2.9564,-2.9011,-2.7705,-2.6363,-2.5457,-2.5113,-2.447,-2.3954,-2.361,-2.3595,-2.3595,-2.3595,-2.3595,-2.3595,-2.3595,-2.3595,-2.3595,-2.3595,-2.3595,-2.3954,-2.4567,-2.3894,-2.4148,-2.5136,-2.5824,-2.726,-2.9295,-3.1599,0.0,-3.7479,-3.8153,-3.8826,-3.9388,-3.9388,-3.9388,-3.9179,-3.7853,-3.7,0.0,-3.4548,-3.4218,-3.4098,0.0,-3.2452,-3.32,-3.1869,-3.1735,-3.1989,-3.2003,0.0,0.0,0.0,-3.0761,-3.0881,0.0,0.0,0.0,0.0,0.0,0.0,0.0,0.0,0.0,0.0,0.0,0.0,0.0,0.0,0.0,0.0,-3.9388,-4.013,-4.1869,-4.28,-4.3663,-4.4542,-4.4615,-4.4615,-4.4615,-4.4615,-4.4615,-4.4615,-4.4615,-4.4615,-4.4615,-4.4615,-4.4615,-4.4615,-4.4615,-4.4615,-4.4615,-4.4615,-4.4615,-4.4615,-4.4615,-4.4615,-4.4514,-4.3651,-4.3047,-4.2552,-4.1658,-4.0792,-4.006,-2.73,-2.751,-2.7809,-2.8472,-2.9146,-2.9789,-3.0417,-3.0612,-3.0986,-3.178,-3.2946,-3.2931,-3.0941,-3.1659,-3.1435,-2.9322,-2.8143,-2.7036,-2.5815,-2.5382,-2.4874,-2.4208,-2.3924,-2.3849,-2.3984,-2.3729,-2.3595,-2.3595,-2.3595,-2.3595,-2.3595,-2.3595,-2.4253,-2.5375,-2.4418,-2.5031,-2.6746,0.0,0.0,-3.0058,0.0,-3.5848,-3.6821,-3.8422,-3.9,-3.9065,-3.9334,-3.9388,-3.9194,-3.8003,-3.727,-3.6611,-3.5312,-3.5415,0.0,0.0,-3.4203,-3.4998,-3.3784,-3.3455,-3.3499,-3.3649,0.0,-3.2392,0.0,0.0,0.0,-3.2482,0.0,0.0,0.0,0.0,0.0,0.0,0.0,0.0,0.0,0.0,0.0,0.0,0.0,0.0,0.0,-3.9118,-3.9807,-4.161,-4.1709,-4.2468,-4.4265,-4.4514,-4.4615,-4.4615,-4.4615,-4.4615,-4.4615,-4.4615,-4.4615,-4.4615,-4.4615,-4.4615,-4.4615,-4.4615,-4.4615,-4.4615,-4.4615,-4.4615,-4.4615,-4.4615,-4.4615,-4.4514,-4.3651,-4.2785,-4.1901,-4.1013,-4.015,-3.9388,-2.6692,-2.7195,-2.7809,-2.8472,-2.9146,-2.9789,-3.0417,-3.0987,-3.1839,-3.311,-3.3903,-3.4487,-3.4801,-3.4966,-3.4936,-3.4637,-3.2348,-3.0614,-2.9894,-2.8229,-2.6971,-2.6273,-2.5113,-2.4754,-2.5375,-2.4208,-2.3595,-2.3595,-2.3595,-2.3595,-2.3595,-2.3595,-2.3999,-2.4739,-2.5196,0.0,0.0,0.0,-3.0342,0.0,-3.4414,-3.4322,0.0,-3.6701,-3.7644,-3.7793,-3.8955,-3.9388,-3.9305,0.0,-3.8227,-3.7943,0.0,-3.709,-3.7793,-3.6432,0.0,0.0,0.0,0.0,0.0,0.0,-3.516,0.0,0.0,0.0,-3.1854,-3.0342,0.0,0.0,0.0,0.0,0.0,0.0,0.0,0.0,0.0,0.0,0.0,0.0,0.0,0.0,0.0,0.0,-3.8705,-4.072,-4.0619,-4.1361,-4.3327,-4.4196,-4.4615,-4.4615,-4.4615,-4.4615,-4.4615,-4.4615,-4.4615,-4.4615,-4.4615,-4.4615,-4.4615,-4.4615,-4.4615,-4.4615,-4.4615,-4.4615,-4.4615,-4.4615,-4.4615,-4.4514,-4.3651,-4.2785,-4.1901,-4.1013,-4.015,-3.9388,-2.6512,-2.7151,-2.7809,-2.8472,-2.8831,-2.934,-3.0357,-3.2063,-3.3305,-3.3469,-3.4741,-3.5609,-3.5519,-3.5504,-3.534,-3.4936,-3.3888,-3.2467,0.0,-2.9729,-2.8637,-2.724,-2.6258,-2.5719,-2.5615,-2.4664,-2.3999,-2.3595,-2.3595,-2.3595,-2.3595,-2.3595,-2.4582,-2.6333,-2.6228,0.0,-3.0387,0.0,-3.0567,0.0,0.0,0.0,0.0,-3.7135,-3.8571,-3.8646,-3.9179,-3.9388,-3.926,0.0,-3.7823,0.0,0.0,0.0,0.0,-3.7644,0.0,0.0,0.0,0.0,0.0,0.0,0.0,0.0,-3.2706,0.0,-3.1795,0.0,0.0,0.0,0.0,0.0,0.0,0.0,0.0,0.0,0.0,0.0,0.0,0.0,0.0,0.0,0.0,0.0,0.0,0.0,0.0,-4.0484,-4.2624,-4.3915,-4.4615,-4.4615,-4.4615,-4.4615,-4.4615,-4.4615,-4.4615,-4.4615,-4.4615,-4.4615,-4.4615,-4.4615,-4.4615,-4.4615,-4.4615,-4.4615,-4.4615,-4.4615,-4.4298,-4.3814,-4.3426,-4.2785,-4.1901,-4.1013,-4.015,-3.9388,-2.6497,-2.7151,-2.775,-2.8233,-2.8472,-2.916,-3.0806,-3.2856,-3.4233,-3.4307,-3.5729,-3.6701,-3.6582,-3.6746,-3.6641,-3.6148,-3.5938,-3.4786,0.0,-3.1629,-3.0687,-2.9277,-2.7874,-2.7006,-2.6707,-2.5689,-2.4814,-2.4148,-2.4148,-2.4148,-2.4148,-2.3969,-2.5001,-2.7061,-2.7136,-2.9041,-3.2153,0.0,-3.1719,-3.3394,-3.3559,-3.3933,-3.4726,-3.7699,-3.9059,-3.9388,-3.9388,-3.9388,-3.9209,-3.8063,-3.7674,0.0,-3.7464,0.0,-3.7778,0.0,0.0,0.0,-3.8093,0.0,0.0,0.0,0.0,0.0,0.0,0.0,0.0,0.0,0.0,0.0,0.0,0.0,-3.0268,-2.9894,0.0,0.0,0.0,0.0,0.0,0.0,0.0,0.0,0.0,0.0,0.0,0.0,0.0,0.0,-4.1789,-4.3227,-4.4164,-4.4598,-4.4615,-4.4615,-4.4615,-4.4615,-4.4615,-4.4615,-4.4615,-4.4615,-4.4615,-4.4615,-4.4615,-4.4615,-4.4615,-4.4615,-4.457,-4.4355,-4.3873,-4.3276,-4.3047,-4.2426,-4.1576,-4.0912,-4.015,-3.9388,-2.6587,-2.7151,-2.76,-2.763,-2.8184,-2.9475,-3.2048,-3.3066,-3.4218,-3.6133,-3.6971,-3.7868,-3.9119,0.0,0.0,-4.0217,0.0,-3.8422,-3.6432,0.0,-3.338,-3.3305,-3.0238,-2.8831,-2.9472,-2.753,-2.6198,-2.5555,-2.5555,-2.5555,0.0,0.0,-2.4963,-2.5749,-2.7679,-2.9642,-3.1615,-3.2856,-3.522,-3.8063,-3.6851,-3.7509,-3.9029,0.0,-3.8287,-3.9388,-3.9388,0.0,0.0,-3.8601,-3.8362,0.0,0.0,0.0,0.0,0.0,0.0,0.0,0.0,0.0,0.0,-3.6178,0.0,0.0,0.0,0.0,-3.326,0.0,0.0,0.0,0.0,-3.2871,-3.1988,-3.0687,-3.0492,0.0,0.0,0.0,0.0,0.0,0.0,0.0,0.0,0.0,0.0,0.0,0.0,0.0,-4.0796,-4.189,-4.3048,-4.4553,-4.4615,-4.4615,-4.4615,-4.4615,-4.4615,-4.4615,-4.4615,-4.4615,-4.4615,-4.4615,-4.4615,-4.4615,-4.4615,-4.4615,-4.4542,-4.368,-4.3336,-4.3216,-4.2363,-4.1511,-4.0758,-4.0724,-4.015,-3.9388,-2.7829,-2.8098,-2.8113,-2.7675,0.0,-2.949,-3.2108,-3.4203,-3.6013,0.0,-3.8317,0.0,0.0,-4.0531,-4.0576,0.0,0.0,-3.9873,-3.7883,-3.7105,0.0,-3.4876,-3.332,-3.2198,0.0,-2.9983,-2.8427,-2.6926,-2.6467,0.0,0.0,0.0,0.0,0.0,0.0,-3.0417,0.0,0.0,0.0,0.0,0.0,-3.7659,-3.9328,0.0,0.0,-3.9388,-3.9388,-3.9388,0.0,-3.9155,-3.8766,-3.8437,-3.8676,-3.8571,-3.8482,-3.8931,-3.923,0.0,0.0,0.0,-3.8955,-3.721,0.0,0.0,0.0,0.0,0.0,0.0,0.0,0.0,0.0,-3.2961,-3.2198,-3.1301,-3.0806,-3.0133,0.0,0.0,0.0,0.0,0.0,0.0,0.0,0.0,0.0,0.0,0.0,0.0,0.0,-4.1774,-4.3272,-4.3809,-4.4316,-4.4615,-4.4615,-4.4615,-4.4615,-4.4615,-4.4615,-4.4615,-4.4615,-4.4615,-4.4615,-4.4615,-4.4615,-4.4615,-4.457,-4.4281,-4.3814,-4.3276,-4.2986,-4.1965,-4.069,-4.069,-4.015,-3.9481,-2.8906,-2.8951,-2.8727,0.0,0.0,-3.0447,-3.2841,-3.5459,0.0,0.0,-3.9694,0.0,-4.1647,0.0,-4.1265,0.0,-4.1767,-4.1018,-3.9215,-3.8661,0.0,-3.6582,-3.5444,-3.4442,0.0,0.0,-3.0597,0.0,0.0,-2.7186,0.0,0.0,0.0,0.0,0.0,-3.0746,-3.3844,0.0,-3.6088,0.0,0.0,-3.8287,0.0,0.0,-3.9388,-3.9388,0.0,-3.9388,-3.9388,-3.9388,-3.9125,-3.8841,-3.9239,-3.911,-3.8841,-3.9254,-3.9388,-3.9388,-3.9388,-3.9388,0.0,-3.7734,-3.6791,0.0,-3.4203,0.0,0.0,0.0,0.0,0.0,0.0,-3.3963,-3.2991,-3.2303,-3.1255,-2.9968,0.0,-2.8442,0.0,0.0,0.0,0.0,0.0,0.0,-3.1197,-3.3006,0.0,0.0,0.0,0.0,-4.2557,-4.3375,-4.4181,-4.4615,-4.4615,-4.4615,-4.4615,-4.4615,-4.4615,-4.4615,-4.4615,-4.4615,-4.4615,-4.4615,-4.4615,-4.4615,-4.4587,-4.427,-4.3814,-4.3276,-4.2939,-4.2157,-4.1113,-4.0811,-4.0328,-3.999,-2.9816,-2.9756,0.0,0.0,-3.033,0.0,0.0,0.0,-3.8856,0.0,-4.1025,-4.1722,-4.2381,-4.244,-4.244,-4.244,-4.244,-4.1901,-4.0576,-3.9305,0.0,0.0,-3.6731,-3.5714,-3.5654,0.0,0.0,0.0,0.0,0.0,0.0,0.0,0.0,0.0,-2.8667,0.0,-3.2736,-3.534,-3.7584,-3.9388,-3.9388,-3.9388,-3.9388,-3.9388,-3.9388,-3.9388,-3.9388,-3.9388,-3.9388,-3.9388,-3.9388,-3.9388,-3.9388,-3.9388,-3.9388,-3.9388,-3.9388,-3.9388,-3.9388,-3.9388,-3.9074,-3.7823,0.0,0.0,0.0,0.0,-3.6357,0.0,0.0,0.0,0.0,0.0,-3.4324,-3.3559,-3.1794,-2.9849,-2.8004,0.0,0.0,0.0,0.0,0.0,0.0,-2.9355,-2.9729,-3.2198,-3.1898,0.0,0.0,0.0,-4.0945,-4.3225,-4.4113,-4.4564,-4.4615,-4.4615,-4.4615,-4.4615,-4.4615,-4.4615,-4.4615,-4.4615,-4.4615,-4.4615,-4.4615,-4.4615,-4.4542,-4.3726,-4.3366,-4.3276,-4.2458,-4.2093,-4.1965,-4.108,-4.0743,-4.0878,-3.1032,-3.1824,-3.2437,0.0,-3.2243,-3.326,0.0,0.0,0.0,0.0,-4.1737,-4.2396,-4.3015,-4.309,-4.309,-4.309,-4.309,0.0,0.0,0.0,0.0,-3.9933,-3.9409,-3.8676,-3.7674,-3.5908,-3.4247,-3.2721,0.0,0.0,-2.8308,0.0,0.0,0.0,0.0,0.0,-3.335,-3.504,-3.718,-3.9388,-3.9388,-3.9388,0.0,0.0,-3.9388,-3.9388,-3.9388,-3.9388,-3.9388,-3.9388,-3.9388,-3.9388,-3.9388,-3.9388,-3.9388,-3.9388,-3.9388,-3.9388,-3.9388,-3.9388,-3.9298,-3.8955,-3.8153,-3.7285,0.0,0.0,0.0,0.0,0.0,0.0,0.0,0.0,0.0,-3.3036,-3.1495,-3.0328,-2.9819,0.0,0.0,0.0,0.0,0.0,-2.8438,-2.9355,-3.0298,-3.0971,-3.1878,0.0,0.0,0.0,0.0,-4.1704,-4.3026,-4.3995,-4.4598,-4.4615,-4.4615,-4.4615,-4.4615,-4.4615,-4.4615,-4.4615,-4.4615,-4.4615,-4.4615,-4.4615,-4.457,-4.4355,-4.427,-4.4253,-4.4035,-4.3545,-4.2847,-4.1997,-4.1674,-4.1804,-3.2826,0.0,0.0,-3.516,0.0,0.0,-3.7509,0.0,0.0,-4.1145,-4.1991,0.0,-4.2865,-4.3125,-4.329,-4.329,-4.329,0.0,-4.244,0.0,0.0,-4.0876,-4.0561,-4.0053,-3.929,-3.7629,0.0,-3.3918,0.0,0.0,-2.8577,0.0,0.0,0.0,0.0,-3.0537,0.0,-3.5714,-3.7629,-3.899,-3.929,0.0,0.0,-3.9388,-3.9388,-3.9388,-3.9388,-3.9388,-3.9388,-3.9388,-3.9388,-3.9388,-3.9388,-3.9388,-3.9388,-3.9388,-3.9388,-3.9388,-3.9388,-3.9388,-3.9388,-3.9388,-3.882,-3.8212,-3.7898,-3.7838,-3.7734,0.0,0.0,0.0,0.0,0.0,0.0,-3.2003,-3.1001,-3.0417,-3.0133,0.0,0.0,0.0,-2.94,0.0,-2.772,-2.8846,-2.9789,-3.0073,-3.1116,0.0,0.0,0.0,0.0,-4.0654,-4.2122,-4.3256,-4.4062,-4.4056,-4.4224,-4.4615,-4.4615,-4.4615,-4.4615,-4.4615,-4.4615,-4.4615,-4.4615,-4.4615,-4.4615,-4.4615,-4.4615,-4.4615,-4.4615,-4.4064,-4.3246,-4.2754,-4.2332,-4.2189,-3.4773,0.0,0.0,0.0,0.0,0.0,0.0,-3.9709,0.0,-4.1414,0.0,-4.253,-4.253,-4.3,-4.329,-4.329,0.0,-4.309,-4.256,-4.253,-4.2231,-4.1572,-4.0965,-4.0576,-4.0397,-3.908,-3.715,0.0,-3.311,-3.1135,-2.8712,0.0,0.0,0.0,0.0,0.0,0.0,-3.6731,-3.8362,-3.8571,-3.9185,-3.9388,-3.9388,-3.9388,-3.9388,-3.9388,-3.9388,-3.9388,-3.9388,-3.9388,-3.9388,-3.9388,-3.9388,-3.9388,-3.9388,-3.9388,-3.9388,-3.9388,-3.9388,-3.9388,-3.9388,-3.9388,-3.9388,-3.926,-3.8661,-3.8527,-3.8527,-3.8527,-3.8078,-3.7973,0.0,0.0,0.0,-3.13,0.0,0.0,0.0,0.0,0.0,0.0,0.0,0.0,0.0,-2.8323,-2.8936,-2.9415,-2.9953,0.0,0.0,0.0,0.0,-3.9885,-4.1239,0.0,-4.3238,0.0,-4.3685,-4.4412,-4.4542,-4.4615,-4.4615,-4.4615,-4.4615,-4.4615,-4.4615,-4.4615,-4.4615,-4.4615,-4.4615,-4.4615,-4.4615,-4.4138,-4.3472,-4.3472,-4.2909,-4.2395,-3.6133,0.0,0.0,0.0,0.0,-4.0098,-4.0756,-4.0591,-4.0831,-4.2066,-4.2761,-4.3125,-4.3125,-4.323,-4.329,-4.329,-4.329,0.0,0.0,0.0,0.0,-4.2261,-4.2111,-4.1504,-4.0427,-3.908,-3.7389,-3.5325,-3.2871,-3.0883,-2.9412,0.0,0.0,0.0,0.0,0.0,-3.51,-3.6851,0.0,-3.9245,-3.9328,-3.9388,-3.9388,-3.9388,-3.9388,-3.9388,-3.9388,-3.9388,-3.9388,-3.9388,-3.9388,-3.9388,-3.9388,-3.9388,-3.9388,-3.9388,-3.9388,-3.9388,-3.9388,-3.9388,-3.9388,-3.9388,-3.9388,-3.9394,-3.9275,-3.923,-3.923,-3.923,-3.9155,-3.876,-3.7913,0.0,0.0,0.0,0.0,0.0,0.0,0.0,0.0,0.0,0.0,0.0,0.0,0.0,-2.9235,-2.8801,0.0,0.0,0.0,0.0,0.0,0.0,-3.9979,0.0,0.0,0.0,-4.3444,-4.3532,-4.4253,-4.4615,-4.4615,-4.4615,-4.4615,-4.4615,-4.4615,-4.4615,-4.4615,-4.4615,-4.4615,-4.4615,-4.4615,-4.4514,-4.4384,-4.4384,-4.3814,-4.3108,0.0,0.0,0.0,0.0,0.0,0.0,0.0,-4.1908,0.0,-4.2366,-4.2626,-4.2821,-4.2821,-4.3135,-4.329,-4.329,-4.329,-4.329,-4.329,-4.329,-4.3155,-4.288,-4.259,-4.1946,-4.0935,-3.9933,-3.8302,-3.6013,-3.4038,-3.2033,-3.0028,-2.8738,0.0,0.0,0.0,-3.2856,0.0,0.0,0.0,-3.8916,-3.9275,-3.9388,-3.9388,-3.9388,-3.9388,-3.9388,-3.9388,-3.9388,-3.9388,-3.9388,-3.9388,-3.9388,-3.9388,-3.9388,-3.9388,-3.9388,-3.9388,-3.9388,-3.9388,-3.9388,-3.9388,-3.9388,-3.9388,-3.9388,-3.9388,-3.9388,-3.9388,-3.9388,-3.9388,-3.9005,-3.7659,-3.6372,0.0,0.0,0.0,0.0,0.0,0.0,-3.2138,0.0,0.0,0.0,0.0,0.0,0.0,0.0,0.0,0.0,0.0,0.0,0.0,0.0,0.0,0.0,0.0,0.0,0.0,-4.3977,-4.4412,-4.4615,-4.4615,-4.4615,-4.4615,-4.4615,-4.4615,-4.4615,-4.4615,-4.4615,-4.4615,-4.4615,-4.4615,-4.431,-4.3948,-4.3948,-4.335,-4.2676,0.0,-4.0816,0.0,0.0,-4.1632,0.0,-4.2321,-4.291,-4.315,-4.2626,-4.2605,-4.2605,-4.2605,-4.303,-4.329,-4.329,-4.329,-4.329,-4.329,-4.329,-4.329,-4.329,-4.2836,-4.2291,-4.1647,-4.095,-3.9379,0.0,-3.5415,-3.341,-3.0911,-2.9759,-2.937,-2.9759,0.0,0.0,0.0,0.0,-3.8347,-3.8661,-3.92,-3.9388,-3.9388,-3.9388,-3.9388,-3.9388,-3.9388,-3.9388,-3.9388,-3.9388,-3.9388,-3.9388,-3.9388,-3.9388,-3.9388,-3.9388,-3.9388,-3.9388,-3.9388,-3.9388,-3.9388,-3.9388,-3.9388,-3.9388,-3.9388,-3.9388,-3.9388,-3.9388,-3.9388,-3.9005,-3.7659,-3.6821,0.0,0.0,0.0,0.0,0.0,0.0,0.0,0.0,0.0,0.0,0.0,0.0,0.0,0.0,0.0,0.0,0.0,0.0,0.0,0.0,0.0,-3.8427,-4.0697,0.0,-4.2771,0.0,-4.4514,-4.4615,-4.4615,-4.4615,-4.4615,-4.4615,-4.4615,-4.4615,-4.4615,-4.4615,-4.4615,-4.4615,-4.4615,-4.4064,-4.3306,-4.3306,-4.2754,-4.2093,0.0,0.0,0.0,0.0,0.0,0.0,-4.2396,-4.291,-4.3275,-4.32,-4.32,-4.32,-4.32,-4.326,-4.329,-4.329,-4.329,-4.329,-4.329,-4.329,-4.329,-4.329,-4.3245,-4.294,-4.2321,-4.1662,-4.0277,0.0,0.0,-3.4352,-3.2317,-3.157,-3.1898,-3.3051,0.0,0.0,0.0,-3.7404,-3.8212,-3.9334,-3.9358,-3.9388,-3.9388,-3.9388,-3.9388,-3.9388,-3.9388,-3.9388,-3.9388,-3.9388,-3.9388,-3.9388,-3.9388,-3.9388,-3.9388,-3.9388,-3.9388,-3.9388,-3.9388,-3.9388,-3.9388,-3.9388,-3.9388,-3.9388,-3.9388,-3.9388,-3.9388,-3.9388,-3.9388,-3.9005,-3.7659,-3.8317,-3.8272,0.0,0.0,0.0,0.0,0.0,-3.314,-3.2407,0.0,0.0,0.0,0.0,0.0,0.0,0.0,0.0,0.0,0.0,0.0,-3.4712,0.0,-3.6934,-3.9087,-4.0549,0.0,-4.3426,-4.4224,-4.4615,-4.4615,-4.4615,-4.4615,-4.4615,-4.4615,-4.4615,-4.4615,-4.4615,-4.4615,-4.4615,-4.4615,-4.4064,-4.3306,-4.3306,-4.2754,-4.2029,0.0,0.0,0.0,0.0,0.0,0.0,0.0,-4.3419,-4.329,-4.329,-4.329,-4.329,-4.329,-4.329,-4.329,-4.329,-4.329,-4.329,-4.329,-4.329,-4.329,-4.329,-4.329,-4.303,-4.241,-4.2141,-4.0995,0.0,0.0,0.0,0.0,-3.3619,-3.3589,0.0,0.0,-3.6432,-3.7464,-3.8272,-3.8931,-3.9388,-3.9388,-3.9388,-3.9388,-3.9388,-3.9388,-3.9388,-3.9388,-3.9388,-3.9388,-3.9388,-3.9388,-3.9388,-3.9388,-3.9388,-3.9388,-3.9388,-3.9388,-3.9388,-3.9388,-3.9388,-3.9388,-3.9388,-3.9388,-3.9388,-3.9388,-3.9388,-3.9388,-3.9388,-3.9388,-3.926,-3.8706,-3.8093,-3.7569,0.0,0.0,0.0,0.0,0.0,0.0,-3.2587,0.0,-2.9352,0.0,0.0,0.0,0.0,0.0,-2.8132,-2.9336,0.0,0.0,-3.2733,0.0,-3.6988,-3.8277,-4.0662,-4.2367,-4.3366,-4.4193,-4.4615,-4.4615,-4.4615,-4.4615,-4.4615,-4.4615,-4.4615,-4.4615,-4.4615,-4.4615,-4.4542,-4.4035,-4.3621,-4.3306,-4.3306,-4.2754,-4.2062,-4.5559,0.0,-4.4811,0.0,-4.4661,-4.4003,-4.4272,-4.3888,-4.3514,-4.3319,-4.329,-4.329,-4.329,-4.329,-4.329,-4.329,-4.329,-4.329,-4.329,-4.329,-4.329,-4.329,-4.329,0.0,-4.2656,-4.25,-4.1707,-4.0292,-3.9215,0.0,0.0,-3.5474,0.0,0.0,-3.7075,-3.7808,-3.8063,-3.902,-3.9388,-3.9388,-3.9388,-3.9388,-3.9388,-3.9388,-3.9388,-3.9388,-3.9388,-3.9388,-3.9388,-3.9388,-3.9388,-3.9388,-3.9388,-3.9388,-3.9388,-3.9388,-3.9388,-3.9388,-3.9388,-3.9388,-3.9388,-3.9388,-3.9388,-3.9388,-3.9388,-3.9388,-3.9388,-3.9388,-3.9388,-3.9388,-3.9388,-3.8123,-3.7225,-3.7749,0.0,0.0,0.0,0.0,0.0,0.0,-3.0612,-2.9282,-2.9191,0.0,0.0,0.0,0.0,-2.9225,-2.9474,0.0,0.0,0.0,0.0,0.0,0.0,-4.0724,-4.2469,-4.3392,-4.4215,-4.4615,-4.4615,-4.4615,-4.4615,-4.4615,-4.4615,-4.4615,-4.4615,-4.4615,-4.4457,-4.4196,-4.3814,-4.3366,-4.2956,-4.3216,-4.2754,-4.2125,-4.6172,-4.5753,-4.5499,-4.6187,-4.5738,-4.505,-4.4407,-4.4302,-4.4062,-4.3379,-4.329,-4.329,-4.329,-4.329,-4.329,-4.329,-4.329,-4.329,-4.329,-4.329,-4.329,0.0,0.0,-4.329,-4.329,-4.2701,-4.2396,-4.2366,0.0,0.0,-3.8332,-3.706,-3.7135,-3.8347,-3.8362,-3.8751,-3.9394,-3.9373,-3.9388,-3.9388,-3.9388,-3.9388,-3.9388,-3.9388,-3.9388,-3.9388,-3.9388,-3.9388,-3.9388,-3.9388,-3.9388,-3.9388,-3.9388,-3.9388,-3.9388,-3.9388,-3.9388,-3.9388,-3.9388,-3.9388,-3.9388,-3.9388,-3.9388,-3.9388,-3.9388,-3.9388,-3.9388,-3.9388,-3.9388,-3.9388,-3.9388,-3.8841,-3.7958,-3.6716,0.0,0.0,0.0,0.0,0.0,-3.2587,-3.0208,-2.9146,-3.0448,0.0,0.0,0.0,0.0,0.0,-3.1601,0.0,0.0,-3.459,-3.6037,0.0,-3.9065,-4.0491,-4.1938,-4.3392,-4.4215,-4.4615,-4.4615,-4.4615,-4.4615,-4.4615,-4.4615,-4.4615,-4.4615,-4.4615,-4.4093,-4.3396,-4.4253,-4.3545,-4.2125,-4.297,-4.2754,-4.2125,-4.695,-4.6815,-4.6741,-4.695,-4.6441,-4.5933,-4.5681,-4.5289,-4.4915,-4.4691,-4.4661,-4.4661,-4.4661,-4.3828,-4.329,0.0,-4.329,-4.329,0.0,-4.329,-4.329,-4.329,-4.329,-4.329,-4.329,-4.3135,-4.2806,-4.2396,0.0,0.0,0.0,-3.9349,-3.914,-3.9095,-3.9095,-3.9215,-3.9388,-3.9388,-3.9388,-3.9388,-3.9388,-3.9388,-3.9388,-3.9388,-3.9388,-3.9388,-3.9388,-3.9388,-3.9388,-3.9388,-3.9388,-3.9388,-3.9388,-3.9388,-3.9388,-3.9388,-3.9388,-3.9388,-3.9388,-3.9388,-3.9388,-3.9388,-3.9388,-3.9388,-3.9388,-3.9388,-3.9388,-3.9388,-3.9388,-3.9388,-3.9388,-3.8497,-3.7584,-3.718,-3.6387,0.0,0.0,0.0,0.0,-3.3257,-3.2547,-3.2067,0.0,-3.2058,0.0,0.0,0.0,0.0,0.0,0.0,0.0,0.0,-3.6807,0.0,-3.8355,-4.0752,-4.2173,-4.2675,-4.3988,-4.4615,-4.4615,-4.4615,-4.4615,-4.4615,-4.4615,-4.4615,-4.4615,-4.4615,-4.4457,-4.415,-4.3844,-4.3366,-4.2909,-4.3216,-4.3108,-4.3,-4.7309,-4.7309,-4.7309,-4.7309,-4.6965,-4.6606,-4.6324,-4.5963,-4.5589,-4.5334,-4.5289,-4.5289,-4.5289,-4.4556,0.0,-4.3678,-4.3663,-4.3559,-4.3305,-4.329,-4.329,-4.329,-4.329,-4.329,-4.329,0.0,0.0,-4.2731,-4.2515,-4.1856,-4.0771,-4.0771,-4.0546,-4.0157,-4.0157,-4.0023,-3.9783,-3.9783,-3.9649,-3.9388,-3.9388,-3.9388,-3.9388,-3.9388,-3.9388,-3.9388,-3.9388,-3.9388,-3.9388,-3.9388,-3.9388,-3.9388,-3.9388,-3.9388,-3.9388,-3.9388,-3.9388,-3.9388,-3.9388,-3.9388,-3.9388,-3.9388,-3.9388,-3.9388,-3.9388,-3.9388,-3.9388,-3.9388,-3.9388,-3.9388,-3.9388,-3.8317,-3.7507,-3.7782,-3.6743,-3.5778,-3.537,0.0,0.0,0.0,0.0,0.0,0.0,-3.4283,0.0,0.0,0.0,0.0,0.0,0.0,0.0,-3.5686,-3.8095,0.0,-3.9204,-4.1257,-4.2439,-4.2726,-4.4005,-4.4615,-4.4615,-4.4615,-4.4615,-4.4615,-4.4615,-4.4615,-4.4615,-4.4615,-4.4412,-4.4093,-4.3873,-4.3591,-4.3336,-4.3651,-4.3785,-4.3873,-4.7309,-4.7309,0.0,0.0,-4.7309,0.0,-4.6444,-4.6354,-4.6157,-4.5514,-4.5439,-4.5439,-4.5439,-4.5439,-4.517,-4.4511,0.0,0.0,0.0,-4.3364,-4.3349,-4.329,-4.329,-4.329,-4.329,-4.329,-4.329,-4.329,-4.2731,-4.2126,-4.1444,-4.1444,-4.1429,-4.1422,-4.1422,-4.104,-4.0472,-4.0472,-4.0113,-3.9559,-3.9559,-3.9559,-3.9559,-3.9559,-3.9559,-3.9559,-3.9559,-3.9559,-3.9559,-3.9559,-3.9559,-3.9559,-3.9559,-3.9493,-3.9448,-3.9388,-3.9388,-3.9388,-3.9388,-3.9388,-3.9388,-3.9388,-3.9388,-3.9388,-3.9388,-3.9388,-3.9388,-3.9388,-3.9445,-3.9481,-3.9481,-3.8442,-3.7815,-3.8579,-3.7576,-3.6684,-3.6641,0.0,0.0,0.0,0.0,0.0,0.0,-3.6133,-3.6919,0.0,0.0,0.0,0.0,0.0,-3.6249,-3.893,-3.9723,-4.0443,-4.1204,-4.1931,-4.2692,-4.3477,-4.4231,-4.4615,-4.4615,-4.4615,-4.4615,-4.4615,-4.4615,-4.4615,-4.4615,-4.4615,-4.4121,-4.3472,-4.4281,-4.4093,-4.3502,-4.4298,-4.4615,-4.4615,0.0,0.0,-4.7309,-4.7309,-4.7309,-4.7249,-4.71,-4.707,-4.701,-4.686,-4.683,-4.683,-4.683,-4.683,-4.6561,-4.5903,-4.5364,-4.4781,-4.4122,-4.4077,-4.3813,-4.3319,-4.329,-4.329,-4.329,-4.329,-4.329,-4.329,-4.314,-4.2776,-4.2171,-4.2171,-4.1901,-4.1422,-4.1422,-4.1294,-4.1145,-4.1145,-4.1055,-4.092,-4.092,-4.092,-4.092,-4.092,-4.092,-4.092,-4.092,-4.092,-4.092,-4.092,-4.092,-4.092,-4.092,-4.0576,-4.0068,-3.9574,-3.9388,-3.9388,-3.9388,-3.9388,-3.9388,-3.9388,-3.9388,-3.9388,-3.9388,-3.9388,-3.9388,-3.9388,-3.9935,-4.0397,-4.0397,-3.979,-3.9361,-3.9548,-3.842,-3.7144,-3.6098,-3.6734,0.0,0.0,-3.6813,-3.7667,-3.7461,-3.8444,-3.8405,0.0,0.0,0.0,0.0,-3.7338,-3.7774,-3.8946,-3.9723,-4.0443,-4.1204,-4.1931,-4.2963,-4.4316,-4.4513,-4.4615,-4.4615,-4.4615,-4.4615,-4.4615,-4.4615,-4.4615,-4.4615,-4.4615,-4.4485,-4.4327,-4.4514,-4.4468,-4.4327,-4.4514,-4.4615,-4.4615,-4.7309,-4.7309,-4.7309,-4.7309,-4.7309,-4.7309,-4.7309,-4.7309,-4.7309,-4.7309,-4.7309,-4.7309,-4.7309,-4.7309,-4.716,-4.68,-4.6157,-4.5484,-4.4811,-4.4766,-4.4601,-4.4242,-4.4227,-4.4092,-4.3738,-4.3738,-4.3604,-4.329,-4.329,-4.315,-4.2806,-4.2806,-4.2626,-4.2282,-4.2282,-4.2102,-4.1871,-4.1871,-4.1692,-4.1422,-4.1422,-4.1422,-4.1422,-4.1422,-4.1422,-4.1422,-4.1422,-4.1422,-4.1422,-4.1422,-4.1422,-4.1422,-4.1422,-4.113,-4.0726,-4.0053,-3.9649,-3.9388,-3.9388,-3.9388,-3.9388,-3.9388,-3.9388,-3.9388,-3.9388,-3.9702,-3.999,-3.999,-4.0706,-4.128,-4.128,-4.0515,-4.0007,-4.0337,-3.9226,-3.804,-3.7295,-3.7873,0.0,-3.7294,-3.8268,-3.8971,-3.8903,-3.9639,-3.9463,-3.7936,0.0,0.0,-3.8455,-3.8756,-3.9135,-3.9478,-4.0231,-4.095,-4.1694,-4.2794,-4.3785,-4.4615,-4.4615,-4.4615,-4.4615,-4.4615,-4.4615,-4.4615,-4.4615,-4.4615,-4.4615,-4.4615,-4.4615,-4.4615,-4.4615,-4.4615,-4.4615,-4.4615,-4.4615,-4.4615,-4.7309,-4.7309,-4.7309,-4.7309,-4.7309,-4.7309,-4.7309,-4.7309,-4.7309,-4.7309,-4.7309,-4.7309,-4.7309,-4.7309,-4.7309,-4.7309,-4.68,-4.6187,-4.5484,-4.5454,-4.5409,-4.5289,-4.5289,-4.5035,-4.4466,-4.4362,-4.4007,-4.3439,-4.3349,-4.329,-4.329,-4.329,-4.329,-4.329,-4.329,-4.303,-4.2545,-4.2545,-4.2231,-4.1683,-4.1683,-4.1683,-4.1683,-4.1683,-4.1683,-4.1683,-4.1683,-4.1683,-4.1683,-4.1683,-4.1683,-4.1683,-4.1683,-4.1609,-4.1452,-4.0861,-4.0157,-3.9544,-3.9454,-3.9388,-3.9409,-3.9574,-3.961,-3.9646,-3.9773,-4.0378,-4.0878,-4.0878,-4.1609,-4.2189,-4.2189,-4.1155,-4.0485,-4.1082,-4.0018,-3.9066,-3.9015,0.0,-3.9157,-3.9157,-3.9259,-3.9614,-4.0367,-4.0434,-4.04,-4.0282,-4.0282,-4.0231,0.0,-4.0214,-4.0282,-4.0282,-4.0865,-4.161,-4.2455,-4.3904,-4.4615,-4.4615,-4.4615,-4.4615,-4.4615,-4.4615,-4.4615,-4.4615,-4.4615,-4.4615,-4.4615,-4.4615,-4.4615,-4.4615,-4.4615,-4.4615,-4.4615,-4.4615,-4.4615,-4.4615,-4.7309,-4.7309,-4.7309,-4.7309,-4.7309,-4.7309,-4.7309,-4.7309,-4.7309,-4.7309,-4.7309,-4.7309,-4.7309,-4.7309,-4.7309,-4.7309,-4.7204,-4.6875,-4.6217,-4.6115,-4.5903,-4.5319,-4.5289,-4.5244,-4.5155,-4.4601,-4.4272,-4.4127,-4.3559,-4.329,-4.329,-4.329,-4.329,-4.329,-4.329,-4.3245,-4.314,-4.314,-4.308,-4.2991,-4.2991,-4.2991,-4.2991,-4.2991,-4.2991,-4.2991,-4.2991,-4.2991,-4.2991,-4.2991,-4.2991,-4.2991,-4.2991,-4.2656,-4.2231,-4.2126,-4.119,-4.0127,-3.9574,-3.9388,-3.9574,-4.0309,-4.05,-4.069,-4.1412,-4.1707,-4.1804,-4.1804,-4.2489,-4.3108,-4.3108,-4.2451,-4.1957,-4.2082,-4.0862,-3.9699,-3.9089,0.0,-3.9918,-3.9935,-4.0493,-4.1153,-4.188,-4.1948,-4.1694,-4.1085,-4.1035,-4.0747,-4.013,-4.0679,-4.1035,-4.1035,-4.1136,-4.1863,-4.3234,-4.413,-4.4615,-4.4615,-4.4615,-4.4615,-4.4615,-4.4615,-4.4615,-4.4615,-4.4615,-4.4615,-4.4615,-4.4615,-4.4615,-4.4615,-4.4615,-4.4615,-4.4615,-4.4615,-4.4615,-4.4615,-4.7309,-4.7309,-4.7309,-4.7309,-4.7309,-4.7309,-4.7309,-4.7309,-4.7309,-4.7309,-4.7309,-4.7309,-4.7309,-4.7309,-4.7309,-4.7309,-4.7309,-4.7174,-4.6875,-4.686,-4.6711,-4.6396,-4.6381,-4.6217,-4.5858,-4.5185,-4.4661,-4.4317,-4.4003,-4.3633,-4.329,-4.329,-4.329,-4.329,-4.329,-4.329,-4.329,-4.329,-4.329,-4.329,-4.329,-4.329,-4.329,-4.329,-4.329,-4.329,-4.329,-4.329,-4.329,-4.329,-4.329,-4.329,-4.329,-4.3497,-4.3609,-4.3281,-4.219,-4.0857,-3.9697,-4.0095,-4.0758,-4.0724,-4.1046,-4.1511,-4.1901,-4.2363,-4.2707,-4.2707,-4.3396,-4.4006,-4.4006,-4.3401,-4.2895,-4.2895,-4.1644,0.0,0.0,-4.0476,-4.0696,-4.0696,-4.1339,-4.1931,-4.2252,-4.2286,-4.1982,-4.1271,-4.1204,-4.1052,-4.0696,-4.1018,-4.1576,-4.2344,-4.2361,-4.2929,-4.4045,-4.4401,-4.4615,-4.4615,-4.4615,-4.4615,-4.4615,-4.4615,-4.4615,-4.4615,-4.4615,-4.4615,-4.4615,-4.4615,-4.4615,-4.4615,-4.4615,-4.4615,-4.4615,-4.4615,-4.4615,-4.4615,-4.7309,-4.7309,-4.7309,-4.7309,-4.7309,-4.7309,-4.7309,-4.7309,-4.7309,-4.7309,-4.7309,-4.7309,-4.7309,-4.7309,-4.7309,-4.7309,-4.7309,-4.7309,-4.7309,-4.7309,-4.7309,-4.7309,-4.7309,-4.707,-4.6561,-4.5888,-4.52,-4.4541,-4.4392,-4.3947,-4.329,-4.329,-4.329,-4.329,-4.3551,-4.3669,-4.3654,-4.3873,-4.3974,-4.3974,-4.3974,-4.3974,-4.3974,-4.3974,-4.3974,-4.3974,-4.3974,-4.3974,-4.3974,-4.3974,-4.3974,-4.3935,-4.3732,-4.4182,-4.4666,-4.3901,-4.2994,-4.1961,-4.0598,-4.112,-4.1901,-4.1412,-4.1804,-4.2363,-4.2552,-4.3122,-4.3591,-4.3591,-4.4121,-4.4615,-4.4615,-4.3944,-4.3392,-4.3392,0.0,0.0,0.0,-4.1457,-4.1525,-4.1694,-4.2202,-4.2625,-4.2838,-4.2811,-4.2523,-4.1779,-4.1711,-4.1644,-4.1457,-4.1627,-4.232,-4.3656,-4.369,-4.3978,-4.4598,-4.4615,-4.4615,-4.4615,-4.4615,-4.4615,-4.4615,-4.4615,-4.4615,-4.4615,-4.4615,-4.4615,-4.4615,-4.4615,-4.4615,-4.4615,-4.4615,-4.4615,-4.4615,-4.4615,-4.4615,-4.4615,-4.7309,-4.7309,-4.7309,-4.7309,-4.7309,-4.7309,-4.7309,-4.7309,-4.7309,-4.7309,-4.7309,-4.7309,-4.7309,-4.7309,-4.7309,-4.7309,-4.7309,-4.7309,-4.7309,-4.7309,-4.7309,-4.7309,-4.7309,-4.7279,-4.7234,-4.6591,-4.5918,-4.5229,-4.4601,-4.3947,-4.329,-4.329,-4.329,-4.3329,-4.4259,-4.4699,-4.4737,-4.5634,-4.5996,-4.5996,-4.5996,-4.5996,-4.5996,-4.5996,-4.5996,-4.5996,-4.5996,-4.5996,-4.5996,-4.5996,-4.5996,-4.5818,-4.4968,-4.4737,-4.4624,-4.3633,-4.358,-4.3685,-4.3001,-4.2412,-4.2189,-4.2909,-4.3155,-4.3426,-4.4224,-4.444,-4.4514,-4.4514,-4.4559,-4.4615,-4.4615,-4.3944,-4.3392,-4.3392,0.0,0.0,-4.2219,-4.2219,-4.2472,-4.3139,-4.3274,-4.3623,-4.4378,-4.4429,-4.4096,-4.3318,-4.3223,-4.2946,-4.2252,-4.2878,-4.3639,-4.4496,-4.4513,-4.4547,-4.4615,-4.4615,-4.4615,-4.4615,-4.4615,-4.4615,-4.4615,-4.4615,-4.4615,-4.4615,-4.4615,-4.4615,-4.4615,-4.4615,-4.4615,-4.4615,-4.4615,-4.4615,-4.4615,-4.4615,-4.4615,-4.4615,-4.7309,-4.7309,-4.7309,-4.7309,-4.7309,-4.7309,-4.7309,-4.7309,-4.7309,-4.7309,-4.7309,-4.7309,-4.7309,-4.7309,-4.7309,-4.7309,-4.7309,-4.7309,-4.7309,-4.7309,-4.7309,-4.7309,-4.7309,-4.7309,-4.7309,-4.7055,-4.6396,-4.5289,-4.505,-4.4377,-4.329,-4.329,-4.329,-4.3329,-4.3708,-4.422,-4.4774,-4.4517,-4.5106,-4.6138,-4.5561,-4.567,-4.6208,-4.6208,-4.6208,-4.6103,-4.5525,-4.5706,-4.6103,-4.5525,-4.5322,-4.5264,-4.4909,-4.4812,-4.4946,-4.5726,-4.5778,-4.5522,-4.5421,-4.453,-4.3439,-4.2676,-4.329,-4.4196,-4.4514,-4.4615,-4.4615,-4.4615,-4.4615,-4.4615,-4.4615,-4.4333,-4.413,-4.413,0.0,-4.298,-4.298,-4.298,-4.3098,-4.3358,-4.3842,-4.4248,-4.4581,-4.4615,-4.4265,-4.3443,-4.3392,-4.3274,-4.3014,-4.3724,-4.4265,-4.4598,-4.4615,-4.4615,-4.4615,-4.4615,-4.4615,-4.4615,-4.4615,-4.4615,-4.4615,-4.4615,-4.4615,-4.4615,-4.4615,-4.4615,-4.4615,-4.4615,-4.4615,-4.4615,-4.4615,-4.4615,-4.4615,-4.4615,-4.4615,-4.4615,-4.7309,-4.7309,-4.7309,-4.7309,-4.7309,-4.7309,-4.7309,-4.7309,-4.7309,-4.7309,-4.7309,-4.7309,-4.7309,-4.7309,-4.7309,-4.7309,-4.7309,-4.7309,-4.7309,-4.7309,-4.7309,-4.7309,-4.7309,-4.7309,-4.7309,-4.7309,-4.6636,-4.5289,-4.5289,-4.4616,-4.329,-4.329,-4.329,-4.3329,-4.363,-4.4143,-4.4774,-4.4381,-4.5143,-4.6574,-4.5634,-4.5814,-4.6627,-4.6627,-4.6454,-4.6138,-4.5814,-4.5905,-4.6103,-4.5468,-4.5264,-4.5264,-4.5264,-4.5264,-4.5541,-4.7138,-4.7095,-4.6532,-4.6695,-4.585,-4.4613,-4.3171,-4.371,-4.4615,-4.4615,-4.4615,-4.4615,-4.4615,-4.4615,-4.4615,-4.4615,-4.4615,-4.4615,-4.4615,-4.413,-4.3792,-4.3792,-4.3792,-4.3792,-4.3792,-4.4248,-4.4615,-4.4615,-4.4615,-4.435,-4.3826,-4.3792,-4.3792,-4.3792,-4.4282,-4.4615,-4.4615,-4.4615,-4.4615,-4.4615,-4.4615,-4.4615,-4.4615,-4.4615,-4.4615,-4.4615,-4.4615,-4.4615,-4.4615,-4.4615,-4.4615,-4.4615,-4.4615,-4.4615,-4.4615,-4.4615,-4.4615,-4.4615,-4.4615,-4.4615,-4.4615,-4.7309,-4.7309,-4.7309,-4.7309,-4.7309,-4.7309,-4.7309,-4.7309,-4.7309,-4.7309,-4.7309,-4.7309,-4.7309,-4.7309,-4.7309,-4.7309,-4.7309,-4.7309,-4.7309,-4.7309,-4.7309,-4.7309,-4.7309,-4.7309,-4.7309,-4.7309,-4.6651,-4.5289,-4.5289,-4.4616,-4.3329,-4.3329,-4.3329,-4.3369,-4.4373,-4.4812,-4.4871,-4.5798,-4.6747,-4.7523,-4.6592,-4.6781,-4.7622,-4.7589,-4.702,-4.6349,-4.7273,-4.6986,-4.6208,-4.6208,-4.6208,-4.6208,-4.6208,-4.6208,-4.6384,-4.734,-4.7095,-4.6535,-4.6583,-4.6182,-4.5534,-4.4773,-4.4615,-4.4615,-4.4615,-4.4615,-4.4615,-4.4615,-4.4615,-4.4615,-4.4615,-4.4615,-4.4615,-4.4615,-4.4615,-4.4615,-4.4615,-4.4615,-4.4615,-4.4615,-4.4615,-4.4615,-4.4615,-4.4615,-4.4615,-4.4615,-4.4615,-4.4615,-4.4615,-4.4615,-4.4615,-4.4615,-4.4615,-4.4615,-4.4615,-4.4615,-4.4615,-4.4615,-4.4615,-4.4615,-4.4615,-4.4615,-4.4615,-4.4615,-4.4615,-4.4615,-4.4615,-4.4615,-4.4615,-4.4615,-4.4615,-4.4615,-4.4615,-4.4615,-4.4615,-4.4615,-4.7309,-4.7309,-4.7309,-4.7309,-4.7309,-4.7309,-4.7309,-4.7309,-4.7309,-4.7309,-4.7309,-4.7309,-4.7309,-4.7309,-4.7309,-4.7309,-4.7309,-4.7309,-4.7309,-4.7309,-4.7309,-4.7309,-4.7309,-4.7309,-4.7309,-4.7309,-4.6945,-4.6297,-4.6297,-4.5982,-4.5327,-4.5327,-4.5327,-4.5363,-4.5654,-4.6154,-4.6763,-4.6365,-4.7122,-4.8513,-4.7556,-4.7721,-4.8513,-4.7836,-4.7836,-4.8015,-4.6986,-4.7273,-4.8047,-4.7406,-4.7172,-4.7054,-4.6419,-4.6208,-4.6384,-4.734,-4.7441,-4.7308,-4.7465,-4.6995,-4.6144,-4.4807,-4.4536,-4.4615,-4.4615,-4.4615,-4.4615,-4.4615,-4.4615,-4.4615,-4.4615,-4.4615,-4.4615,-4.4615,-4.4615,-4.4615,-4.4615,-4.4615,-4.4615,-4.4615,-4.4615,-4.4615,-4.4615,-4.4615,-4.4615,-4.4615,-4.4615,-4.4615,-4.4615,-4.4615,-4.4615,-4.4615,-4.4615,-4.4615,-4.4615,-4.4615,-4.4615,-4.4615,-4.4615,-4.4615,-4.4615,-4.4615,-4.4615,-4.4615,-4.4615,-4.4615,-4.4615,-4.4615,-4.4615,-4.4615,-4.4615,-4.4615,-4.4615,-4.4615,-4.4615,-4.4615,-4.7381,-4.7309,-4.7309,-4.7309,-4.7309,-4.7309,-4.7309,-4.7309,-4.7309,-4.7309,-4.7309,-4.7309,-4.7309,-4.7309,-4.7309,-4.7309,-4.7309,-4.7309,-4.7309,-4.7309,-4.7309,-4.7309,-4.7309,-4.7309,-4.7309,-4.7309,-4.7039,-4.6524,-4.6658,-4.6476,-4.6013,-4.6124,-4.6208,-4.6208,-4.6208,-4.6539,-4.702,-4.6419,-4.7054,-4.837,-4.7406,-4.7622,-4.837,-4.7836,-4.7737,-4.7803,-4.702,-4.7239,-4.7803,-4.7239,-4.7306,-4.7523,-4.6918,-4.702,-4.7406,-4.7982,-4.8144,-4.8174,-4.829,-4.78,-4.692,-4.5664,-4.498,-4.4615,-4.4615,-4.4615,-4.4615,-4.4615,-4.4615,-4.4615,-4.4615,-4.4615,-4.4615,-4.4615,-4.4615,-4.4615,-4.4615,-4.4615,-4.4615,-4.4615,-4.4615,-4.4615,-4.4615,-4.4615,-4.4615,-4.4615,-4.4615,-4.4615,-4.4615,-4.4615,-4.4615,-4.4615,-4.4615,-4.4615,-4.4615,-4.4615,-4.4615,-4.4615,-4.4615,-4.4615,-4.4615,-4.4615,-4.4615,-4.4615,-4.4615,-4.4615,-4.4615,-4.4615,-4.4615,-4.4615,-4.4615,-4.4615,-4.4615,-4.4615,-4.4615,-4.4615,-4.7495,-4.7309,-4.7309,-4.7309,-4.7309,-4.7309,-4.7309,-4.7309,-4.7309,-4.7309,-4.7309,-4.7309,-4.7309,-4.7309,-4.7309,-4.7309,-4.7309,-4.7309,-4.7309,-4.7309,-4.7309,-4.7309,-4.7309,-4.7337,-4.7424,-4.7337,-4.7023,-4.6434,-4.6594,-4.6385,-4.5818,-4.6079,-4.6208,-4.6208,-4.6279,-4.6314,-4.6314,-4.6419,-4.6952,-4.7655,-4.6781,-4.6952,-4.7737,-4.7622,-4.7122,-4.6558,-4.7306,-4.7088,-4.6454,-4.6454,-4.702,-4.7737,-4.7737,-4.8289,-4.9001,-4.9001,-4.9001,-4.9001,-4.9001,-4.8477,-4.7703,-4.6972,-4.572,-4.4682,-4.4632,-4.4615,-4.4615,-4.4615,-4.4615,-4.4615,-4.4615,-4.4615,-4.4615,-4.4615,-4.4615,-4.4615,-4.4615,-4.4615,-4.4615,-4.4615,-4.4615,-4.4615,-4.4615,-4.4615,-4.4615,-4.4615,-4.4615,-4.4615,-4.4615,-4.4615,-4.4615,-4.4615,-4.4615,-4.4615,-4.4615,-4.4615,-4.4615,-4.4615,-4.4615,-4.4615,-4.4615,-4.4615,-4.4615,-4.4615,-4.4615,-4.4615,-4.4615,-4.4615,-4.4615,-4.4615,-4.4615,-4.4615,-4.4615,-4.4615,-4.4615,-4.4615,-4.7337,-4.7309,-4.7309,-4.7309,-4.7309,-4.7309,-4.7309,-4.7309,-4.7309,-4.7309,-4.7309,-4.7309,-4.7309,-4.7309,-4.7309,-4.7309,-4.7309,-4.7309,-4.7309,-4.7309,-4.7309,-4.7309,-4.7309,-4.7694,-4.8444,-4.7679,-4.7319,-4.739,-4.6923,-4.6771,-4.6881,-4.6402,-4.6208,-4.6244,-4.6952,-4.7306,-4.734,-4.808,-4.8513,-4.8688,-4.8465,-4.8497,-4.8625,-4.7868,-4.7933,-4.8321,-4.7803,-4.7933,-4.8401,-4.8401,-4.8545,-4.8688,-4.8688,-4.8829,-4.9001,-4.9001,-4.9001,-4.9001,-4.9001,-4.8477,-4.7703,-4.6972,-4.6126,-4.5314,-4.4733,-4.4615,-4.4615,-4.4615,-4.4615,-4.4615,-4.4615,-4.4615,-4.4615,-4.4615,-4.4615,-4.4615,-4.4615,-4.4615,-4.4615,-4.4615,-4.4615,-4.4615,-4.4615,-4.4615,-4.4615,-4.4615,-4.4615,-4.4615,-4.4615,-4.4615,-4.4615,-4.4615,-4.4615,-4.4615,-4.4615,-4.4615,-4.4615,-4.4615,-4.4615,-4.4615,-4.4615,-4.4615,-4.4615,-4.4615,-4.4615,-4.4615,-4.4615,-4.4615,-4.4615,-4.4615,-4.4615,-4.4615,-4.4615,-4.4615,-4.4615,-4.4615,-4.7381,-4.7309,-4.7309,-4.7309,-4.7309,-4.7309,-4.7309,-4.7309,-4.7309,-4.7309,-4.7309,-4.7309,-4.7309,-4.7309,-4.7309,-4.7309,-4.7309,-4.7309,-4.7309,-4.7764,-4.803,-4.803,-4.8501,-4.9044,-4.9536,-4.9044,-4.8662,-4.8443,-4.8247,-4.8027,-4.785,-4.765,-4.7556,-4.7556,-4.8047,-4.8257,-4.8289,-4.8798,-4.9001,-4.9001,-4.9001,-4.9001,-4.894,-4.8433,-4.8576,-4.894,-4.8433,-4.8576,-4.9001,-4.9001,-4.9001,-4.9001,-4.9001,-4.9001,-4.9001,-4.9001,-4.9001,-4.9001,-4.9001,-4.8731,-4.8257,-4.7513,-4.6769,-4.594,-4.4852,-4.4615,-4.4615,-4.4615,-4.4615,-4.4615,-4.4615,-4.4615,-4.4615,-4.4615,-4.4615,-4.4615,-4.4615,-4.4615,-4.4615,-4.4615,-4.4615,-4.4615,-4.4615,-4.4615,-4.4615,-4.4615,-4.4615,-4.4615,-4.4615,-4.4615,-4.4615,-4.4615,-4.4615,-4.4615,-4.4615,-4.4615,-4.4615,-4.4615,-4.4615,-4.4615,-4.4615,-4.4615,-4.4615,-4.4615,-4.4615,-4.4615,-4.4615,-4.4615,-4.4615,-4.4615,-4.4615,-4.4615,-4.4615,-4.4615,-4.4615,-4.4615,-4.7483,-4.7259,-4.7174,-4.7279,-4.7309,-4.7309,-4.7309,-4.7309,-4.7309,-4.7309,-4.7309,-4.7309,-4.7309,-4.7309,-4.7309,-4.7309,-4.7309,-4.7309,-4.7309,-4.8252,-4.8702,-4.8553,-4.9575,-5.0204,-5.0413,-5.0397,-5.0061,-4.9303,-4.9534,-4.9223,-4.8371,-4.8594,-4.8631,-4.8545,-4.8688,-4.875,-4.875,-4.894,-4.9001,-4.9001,-4.9001,-4.9001,-4.9001,-4.9001,-4.9001,-4.9001,-4.9001,-4.9001,-4.9001,-4.9001,-4.9001,-4.9001,-4.9001,-4.9001,-4.9001,-4.9001,-4.9001,-4.9001,-4.9001,-4.9001,-4.8832,-4.8075,-4.7445,-4.6599,-4.5111,-4.4699,-4.4615,-4.4615,-4.4615,-4.4615,-4.4615,-4.4615,-4.4615,-4.4615,-4.4615,-4.4615,-4.4615,-4.4615,-4.4615,-4.4615,-4.4615,-4.4615,-4.4615,-4.4615,-4.4615,-4.4615,-4.4615,-4.4615,-4.4615,-4.4615,-4.4615,-4.4615,-4.4615,-4.4615,-4.4615,-4.4615,-4.4615,-4.4615,-4.4615,-4.4615,-4.4615,-4.4615,-4.4615,-4.4615,-4.4615,-4.4615,-4.4615,-4.4615,-4.4615,-4.4615,-4.4615,-4.4615,-4.4615,-4.4615,-4.4615,-4.4615,-4.7552,-4.7012,-4.6636,-4.7204,-4.7309,-4.7309,-4.7309,-4.7309,-4.7309,-4.7309,-4.7309,-4.7309,-4.7309,-4.7309,-4.7309,-4.7309,-4.7309,-4.7309,-4.7309,-4.8252,-4.8403,-4.7538,-4.8501,-4.9456,-5.0374,-5.0397,-5.0061,-4.9303,-4.9379,-4.8746,-4.7405,-4.7487,-4.7206,-4.6592,-4.7423,-4.7803,-4.7836,-4.8656,-4.9001,-4.9001,-4.9001,-4.9001,-4.9001,-4.9001,-4.9001,-4.9001,-4.9001,-4.9001,-4.9001,-4.9001,-4.9001,-4.9001,-4.9001,-4.9001,-4.9001,-4.9001,-4.9001,-4.9001,-4.9001,-4.9001,-4.8832,-4.8075,-4.7821,-4.7348,-4.5889,-4.5043,-4.4615,-4.4615,-4.4615,-4.4615,-4.4615,-4.4615,-4.4615,-4.4615,-4.4615,-4.4615,-4.4615,-4.4615,-4.4615,-4.4615,-4.4615,-4.4615,-4.4615,-4.4615,-4.4615,-4.4615,-4.4615,-4.4615,-4.4615,-4.4615,-4.4615,-4.4615,-4.4615,-4.4615,-4.4615,-4.4615,-4.4615,-4.4615,-4.4615,-4.4615,-4.4615,-4.4615,-4.4615,-4.4615,-4.4615,-4.4615,-4.4615,-4.4615,-4.4615,-4.4615,-4.4615,-4.4615,-4.4615,-4.4615,-4.4615,-4.4615,-4.7876,-4.7459,-4.7078,-4.6986,-4.7154,-4.7174,-4.6815,-4.707,-4.7309,-4.7309,-4.7309,-4.7309,-4.7309,-4.7309,-4.7309,-4.7309,-4.7309,-4.7309,-4.7309,-4.8252,-4.8866,-4.9004,-4.9993,-5.1043,-5.2098,-5.215,-5.177,-5.0975,-5.0597,-4.9637,-4.82,-4.8249,-4.8283,-4.8382,-4.8376,-4.8619,-4.9002,-4.8998,-4.9001,-4.9001,-4.9001,-4.9001,-4.9001,-4.9001,-4.9001,-4.9001,-4.9001,-4.9001,-4.9001,-4.9001,-4.9001,-4.9001,-4.9001,-4.9001,-4.9001,-4.9001,-4.9001,-4.9001,-4.9001,-4.9001,-4.8934,-4.8612,-4.8193,-4.772,-4.709,-4.6041,-4.5094,-4.4682,-4.4615,-4.4615,-4.4615,-4.4615,-4.4615,-4.4615,-4.4615,-4.4615,-4.4615,-4.4615,-4.4615,-4.4615,-4.4615,-4.4615,-4.4615,-4.4615,-4.4615,-4.4615,-4.4615,-4.4615,-4.4615,-4.4615,-4.4615,-4.4615,-4.4615,-4.4615,-4.4615,-4.4615,-4.4615,-4.4615,-4.4615,-4.4615,-4.4615,-4.4615,-4.4615,-4.4615,-4.4615,-4.4615,-4.4615,-4.4615,-4.4615,-4.4615,-4.4615,-4.4615,-4.4615,-4.4615,-4.4615,-4.4615]},{"header":{"parameterUnit":"m.s-1","parameterCategory":1,"la1":30.6,"la2":28.766,"lo1":-90.7593,"lo2":-88.6598,"dy":0.0162,"dx":0.0183,"nx":116,"ny":114,"refTime":"2024-07-06T12:00:00:Z","depth":0,"parameterNumber":3,"parameterNumberName":"V-component_of_WINDS"},"data":[0.0,0.0,0.0,0.0,0.0,0.0,0.0,0.0,0.0,0.0,0.0,0.0,0.0,0.0,0.0,0.0,0.0,0.0,0.0,0.0,0.0,0.0,0.0,0.0,0.0,0.0,0.0,0.0,0.0,0.0,0.0,0.0,0.0,0.0,0.0,0.0,0.0,0.0,0.0,0.0,0.0,0.0,0.0,0.0,0.0,0.0,0.0,0.0,0.0,0.0,0.0,0.0,0.0,0.0,0.0,0.0,0.0,0.0,0.0,0.0,0.0,0.0,0.0,0.0,0.0,0.0,0.0,0.0,0.0,0.0,0.0,0.0,0.0,0.0,0.0,0.0,0.0,0.0,0.0,0.0,0.0,0.0,0.0,0.0,0.0,0.0,0.0,0.0,0.0,0.0,0.0,0.0,0.0,0.0,0.0,0.0,0.0,0.0,0.0,0.0,0.0,0.0,0.0,0.0,0.0,0.0,0.0,0.0,0.0,0.0,0.0,0.0,0.0,0.0,0.0,0.0,0.0,0.0,0.0,0.0,0.0,0.0,0.0,0.0,0.0,0.0,0.0,0.0,0.0,0.0,0.0,0.0,0.0,0.0,0.0,0.0,0.0,0.0,0.0,0.0,0.0,0.0,0.0,0.0,0.0,0.0,0.0,0.0,0.0,0.0,0.0,0.0,0.0,0.0,0.0,0.0,0.0,0.0,0.0,0.0,0.0,0.0,0.0,0.0,0.0,0.0,0.0,0.0,0.0,0.0,0.0,0.0,0.0,0.0,0.0,0.0,0.0,0.0,0.0,0.0,0.0,0.0,0.0,0.0,0.0,0.0,0.0,0.0,0.0,0.0,0.0,0.0,0.0,0.0,0.0,0.0,0.0,0.0,0.0,0.0,0.0,0.0,0.0,0.0,0.0,0.0,0.0,0.0,0.0,0.0,0.0,0.0,0.0,0.0,0.0,0.0,0.0,0.0,0.0,0.0,0.0,0.0,0.0,0.0,0.0,0.0,0.0,0.0,0.0,0.0,0.0,0.0,0.0,0.0,0.0,0.0,0.0,0.0,0.0,0.0,0.0,0.0,0.0,0.0,0.0,0.0,0.0,0.0,0.0,0.0,0.0,0.0,0.0,0.0,0.0,0.0,0.0,0.0,0.0,0.0,0.0,0.0,0.0,0.0,0.0,0.0,0.0,0.0,0.0,0.0,0.0,0.0,0.0,0.0,0.0,0.0,0.0,0.0,0.0,0.0,0.0,0.0,0.0,0.0,0.0,0.0,0.0,0.0,0.0,0.0,0.0,0.0,0.0,0.0,0.0,0.0,0.0,0.0,0.0,0.0,0.0,0.0,0.0,0.0,0.0,0.0,0.0,0.0,0.0,0.0,0.0,0.0,0.0,0.0,0.0,0.0,0.0,0.0,0.0,0.0,0.0,0.0,0.0,0.0,0.0,0.0,0.0,0.0,0.0,0.0,0.0,0.0,0.0,0.0,0.0,0.0,0.0,0.0,0.0,0.0,0.0,0.0,0.0,0.0,0.0,0.0,0.0,0.0,0.0,0.0,0.0,0.0,0.0,0.0,0.0,0.0,0.0,0.0,0.0,0.0,0.0,0.0,0.0,0.0,0.0,0.0,0.0,0.0,0.0,0.0,0.0,0.0,0.0,0.0,0.0,0.0,0.0,0.0,0.0,0.0,0.0,0.0,0.0,0.0,0.0,0.0,0.0,0.0,0.0,0.0,0.0,0.0,0.0,0.0,0.0,0.0,0.0,0.0,0.0,0.0,0.0,0.0,0.0,0.0,0.0,0.0,0.0,0.0,0.0,0.0,0.0,0.0,0.0,0.0,0.0,0.0,0.0,0.0,0.0,0.0,0.0,0.0,0.0,0.0,0.0,0.0,0.0,0.0,0.0,0.0,0.0,0.0,0.0,0.0,0.0,0.0,0.0,0.0,0.0,0.0,0.0,0.0,0.0,0.0,0.0,0.0,0.0,0.0,0.0,0.0,0.0,0.0,0.0,0.0,0.0,0.0,0.0,0.0,0.0,0.0,0.0,0.0,0.0,0.0,0.0,0.0,0.0,0.0,0.0,0.0,0.0,0.0,0.0,0.0,0.0,0.0,0.0,0.0,0.0,0.0,0.0,0.0,0.0,0.0,0.0,0.0,0.0,0.0,0.0,0.0,0.0,0.0,0.0,0.0,0.0,0.0,0.0,0.0,0.0,0.0,0.0,0.0,0.0,0.0,0.0,0.0,0.0,0.0,0.0,0.0,0.0,0.0,0.0,0.0,0.0,0.0,0.0,0.0,0.0,0.0,0.0,0.0,0.0,0.0,0.0,0.0,0.0,0.0,0.0,0.0,0.0,0.0,0.0,0.0,0.0,0.0,0.0,0.0,0.0,0.0,0.0,0.0,0.0,0.0,0.0,0.0,0.0,0.0,0.0,0.0,0.0,0.0,0.0,0.0,0.0,0.0,0.0,0.0,0.0,0.0,0.0,0.0,0.0,0.0,0.0,0.0,0.0,0.0,0.0,0.0,0.0,0.0,0.0,0.0,0.0,0.0,0.0,0.0,0.0,0.0,0.0,0.0,0.0,0.0,0.0,0.0,0.0,0.0,0.0,0.0,0.0,0.0,0.0,0.0,0.0,0.0,0.0,0.0,0.0,0.0,0.0,0.0,0.0,0.0,0.0,0.0,0.0,0.0,0.0,0.0,0.0,0.0,0.0,0.0,0.0,0.0,0.0,0.0,0.0,0.0,0.0,0.0,0.0,0.0,0.0,0.0,0.0,0.0,0.0,0.0,0.0,0.0,0.0,0.0,0.0,0.0,0.0,0.0,0.0,0.0,0.0,0.0,0.0,0.0,0.0,0.0,0.0,0.0,0.0,0.0,0.0,0.0,0.0,0.0,0.0,0.0,0.0,0.0,0.0,0.0,0.0,0.0,0.0,0.0,0.0,0.0,0.0,0.0,0.0,0.0,0.0,0.0,0.0,0.0,0.0,0.0,0.0,0.0,0.0,0.0,0.0,0.0,0.0,0.0,0.0,0.0,0.0,0.0,0.0,0.0,0.0,0.0,0.0,0.0,0.0,0.0,0.0,0.0,0.0,0.0,0.0,0.0,0.0,0.0,0.0,0.0,0.0,0.0,0.0,0.0,0.0,0.0,0.0,0.0,0.0,0.0,0.0,0.0,0.0,0.0,0.0,0.0,0.0,0.0,0.0,0.0,0.0,0.0,0.0,0.0,0.0,0.0,0.0,0.0,0.0,0.0,0.0,0.0,0.0,0.0,0.0,0.0,0.0,0.0,0.0,0.0,0.0,0.0,0.0,0.0,0.0,0.0,0.0,0.0,0.0,0.0,0.0,0.0,0.0,0.0,0.0,0.0,0.0,0.0,0.0,0.0,0.0,0.0,0.0,0.0,0.0,0.0,0.0,0.0,0.0,0.0,0.0,0.0,0.0,0.0,0.0,0.0,0.0,0.0,0.0,0.0,0.0,0.0,0.0,0.0,0.0,0.0,0.0,0.0,0.0,0.0,0.0,0.0,0.0,0.0,0.0,0.0,0.0,0.0,0.0,0.0,0.0,0.0,0.0,0.0,0.0,0.0,0.0,0.0,0.0,0.0,0.0,0.0,0.0,0.0,0.0,0.0,0.0,0.0,0.0,0.0,0.0,0.0,0.0,0.0,0.0,0.0,0.0,0.0,0.0,0.0,0.0,0.0,0.0,0.0,0.0,0.0,0.0,0.0,0.0,0.0,0.0,0.0,0.0,0.0,0.0,0.0,0.0,0.0,0.0,0.0,0.0,0.0,0.0,0.0,0.0,0.0,0.0,0.0,0.0,0.0,0.0,0.0,0.0,0.0,0.0,0.0,0.0,0.0,0.0,0.0,0.0,0.0,0.0,0.0,0.0,0.0,0.0,0.0,0.0,0.0,0.0,0.0,0.0,0.0,0.0,0.0,0.0,0.0,0.0,0.0,0.0,0.0,0.0,0.0,0.0,0.0,0.0,0.0,0.0,0.0,0.0,0.0,0.0,0.0,0.0,0.0,0.0,0.0,0.0,0.0,0.0,0.0,0.0,0.0,0.0,0.0,0.0,0.0,0.0,0.0,0.0,0.0,0.0,0.0,0.0,0.0,0.0,0.0,0.0,0.0,0.0,0.0,0.0,0.0,0.0,0.0,0.0,0.0,0.0,0.0,0.0,0.0,0.0,0.0,0.0,0.0,0.0,0.0,0.0,0.0,0.0,0.0,0.0,0.0,0.0,0.0,0.0,0.0,0.0,0.0,0.0,0.0,0.0,0.0,0.0,0.0,0.0,0.0,0.0,0.0,0.0,0.0,0.0,0.0,0.0,0.0,0.0,0.0,0.0,0.0,0.0,0.0,0.0,0.0,0.0,0.0,0.0,0.0,0.0,0.0,0.0,0.0,0.0,0.0,0.0,0.0,0.0,0.0,0.0,0.0,0.0,0.0,0.0,0.0,0.0,0.0,0.0,0.0,0.0,0.0,0.0,0.0,0.0,0.0,0.0,0.0,0.0,0.0,0.0,0.0,0.0,0.0,0.0,0.0,0.0,0.0,0.0,0.0,0.0,0.0,0.0,0.0,0.0,0.0,0.0,0.0,0.0,0.0,0.0,0.0,0.0,0.0,0.0,0.0,0.0,0.0,0.0,0.0,0.0,0.0,0.0,0.0,0.0,0.0,0.0,0.0,0.0,0.0,0.0,0.0,0.0,0.0,0.0,0.0,0.0,0.0,0.0,0.0,0.0,0.0,0.0,0.0,0.0,0.0,0.0,0.0,0.0,0.0,0.0,0.0,0.0,0.0,0.0,0.0,0.0,0.0,0.0,0.0,0.0,0.0,0.0,0.0,0.0,0.0,0.0,0.0,0.0,0.0,0.0,0.0,0.0,0.0,0.0,0.0,0.0,0.0,0.0,0.0,0.0,0.0,0.0,0.0,0.0,0.0,0.0,0.0,0.0,0.0,0.0,0.0,0.0,0.0,0.0,0.0,0.0,0.0,0.0,0.0,0.0,0.0,0.0,0.0,0.0,0.0,0.0,0.0,0.0,0.0,0.0,0.0,0.0,0.0,0.0,0.0,0.0,0.0,0.0,0.0,0.0,0.0,0.0,0.0,0.0,0.0,0.0,0.0,0.0,0.0,0.0,0.0,0.0,0.0,0.0,0.0,0.0,0.0,0.0,0.0,0.0,0.0,0.0,0.0,0.0,0.0,0.0,0.0,0.0,0.0,0.0,0.0,0.0,0.0,0.0,0.0,0.0,0.0,0.0,0.0,0.0,0.0,0.0,0.0,0.0,0.0,0.0,0.0,0.0,0.0,0.0,0.0,0.0,0.0,0.0,0.0,0.0,0.0,0.0,0.0,0.0,0.0,0.0,0.0,0.0,0.0,0.0,0.0,0.0,0.0,0.0,0.0,0.0,0.0,0.0,0.0,0.0,0.0,0.0,0.0,0.0,0.0,0.0,0.0,0.0,0.0,0.0,0.0,0.0,0.0,0.0,0.0,0.0,0.0,0.0,0.0,0.0,0.0,0.0,0.0,0.0,0.0,0.0,0.0,0.0,0.0,0.0,0.0,0.0,0.0,0.0,0.0,0.0,0.0,0.0,0.0,0.0,0.0,0.0,0.0,0.0,0.0,0.0,0.0,0.0,0.0,0.0,0.0,0.0,0.0,0.0,0.0,0.0,0.0,0.0,0.0,0.0,0.0,0.0,0.0,0.0,0.0,0.0,0.0,0.0,0.0,0.0,0.0,0.0,0.0,0.0,0.0,0.0,0.0,0.0,0.0,0.0,0.0,0.0,0.0,0.0,0.0,0.0,0.0,0.0,0.0,0.0,0.0,0.0,0.0,0.0,0.0,0.0,0.0,0.0,0.0,0.0,0.0,0.0,0.0,0.0,0.0,0.0,0.0,0.0,0.0,0.0,0.0,0.0,0.0,0.0,0.0,0.0,0.0,0.0,0.0,0.0,0.0,0.0,0.0,0.0,0.0,0.0,0.0,0.0,0.0,0.0,0.0,0.0,0.0,0.0,0.0,0.0,0.0,0.0,0.0,0.0,0.0,0.0,0.0,0.0,0.0,0.0,0.0,0.0,0.0,-1.9424,0.0,0.0,0.0,0.0,0.0,0.0,0.0,0.0,0.0,0.0,0.0,0.0,0.0,0.0,0.0,0.0,0.0,0.0,0.0,0.0,0.0,0.0,0.0,0.0,-1.6574,-1.7624,-1.8154,-1.8204,-1.8204,-1.8204,0.0,0.0,0.0,0.0,0.0,-1.779,-1.7488,-1.744,-1.7704,-1.7415,-1.7576,-1.8055,-1.7513,-1.6694,-1.5668,0.0,0.0,0.0,0.0,0.0,0.0,0.0,0.0,0.0,0.0,0.0,0.0,0.0,0.0,0.0,0.0,0.0,0.0,0.0,0.0,0.0,0.0,0.0,0.0,0.0,0.0,0.0,0.0,0.0,0.0,0.0,0.0,0.0,0.0,0.0,0.0,0.0,0.0,0.0,0.0,0.0,0.0,0.0,0.0,0.0,0.0,0.0,0.0,0.0,0.0,0.0,0.0,0.0,0.0,0.0,0.0,0.0,0.0,0.0,0.0,0.0,0.0,0.0,0.0,0.0,0.0,0.0,0.0,0.0,0.0,0.0,-2.0401,0.0,0.0,0.0,0.0,0.0,0.0,0.0,0.0,0.0,0.0,0.0,0.0,0.0,0.0,0.0,0.0,0.0,0.0,0.0,0.0,0.0,-1.5113,-1.5384,-1.6774,-1.789,-1.843,-1.848,-1.848,-1.848,0.0,0.0,0.0,0.0,-1.848,-1.848,-1.8392,-1.8656,-1.9284,-1.9484,-1.9835,-2.0388,-2.0388,-1.9384,-1.7629,-1.724,0.0,0.0,0.0,0.0,0.0,0.0,0.0,0.0,0.0,0.0,0.0,0.0,0.0,0.0,0.0,0.0,0.0,0.0,0.0,0.0,0.0,0.0,0.0,0.0,0.0,0.0,0.0,0.0,0.0,0.0,0.0,0.0,0.0,0.0,0.0,0.0,0.0,0.0,0.0,0.0,0.0,0.0,0.0,0.0,0.0,0.0,0.0,0.0,0.0,0.0,0.0,0.0,0.0,0.0,0.0,0.0,0.0,0.0,0.0,0.0,0.0,0.0,0.0,-2.4219,-2.4648,-2.499,-2.5059,-2.5293,-2.5508,-2.331,-2.2691,-2.3179,0.0,0.0,0.0,0.0,0.0,0.0,0.0,0.0,0.0,0.0,0.0,0.0,0.0,0.0,0.0,0.0,0.0,0.0,0.0,0.0,-1.5908,-1.6975,-1.8094,-1.902,-1.9547,-1.9597,-1.9597,-1.9597,-1.9597,0.0,0.0,-1.9597,-1.9597,-1.9597,-1.9121,-1.9422,-2.0478,-2.1418,-2.213,-2.2656,-2.2656,0.0,-2.2155,-2.0225,-1.9334,0.0,0.0,0.0,0.0,0.0,0.0,0.0,0.0,0.0,0.0,0.0,0.0,0.0,0.0,0.0,0.0,0.0,0.0,0.0,0.0,0.0,0.0,0.0,0.0,0.0,0.0,0.0,0.0,0.0,0.0,0.0,0.0,0.0,0.0,0.0,0.0,0.0,0.0,0.0,0.0,0.0,0.0,-1.2663,-1.2557,0.0,0.0,0.0,0.0,0.0,0.0,0.0,0.0,0.0,0.0,0.0,0.0,0.0,-2.2023,-2.4299,-2.4964,-2.5527,-2.5967,-2.6768,-2.7187,-2.7297,-2.7617,-2.7812,-2.7822,-2.7119,0.0,-2.4228,-2.3945,0.0,0.0,0.0,0.0,0.0,0.0,0.0,0.0,0.0,0.0,0.0,0.0,0.0,0.0,0.0,0.0,0.0,0.0,0.0,0.0,0.0,-1.8436,-1.9685,-2.0264,-2.0577,-2.0614,-2.0339,0.0,0.0,-1.9811,-1.9798,-1.9798,-1.9798,-1.9899,-2.0639,-2.2058,-2.3175,-2.3822,-2.4048,0.0,0.0,0.0,-2.3032,-2.192,-2.0677,0.0,0.0,0.0,0.0,0.0,0.0,0.0,0.0,0.0,0.0,0.0,0.0,0.0,0.0,0.0,0.0,0.0,0.0,0.0,0.0,0.0,0.0,0.0,0.0,0.0,0.0,0.0,0.0,0.0,0.0,0.0,0.0,0.0,0.0,0.0,0.0,0.0,0.0,0.0,0.0,-1.2514,-1.2898,-1.2788,-1.3119,-1.3173,0.0,0.0,0.0,0.0,0.0,0.0,0.0,0.0,0.0,-2.1726,-2.3721,-2.5145,-2.5764,-2.6933,-2.7617,-2.7822,-2.8437,-2.8785,-2.874,-2.8926,-2.9014,-2.9004,-2.8809,-2.8057,-2.6855,-2.5606,-2.4777,-2.4212,0.0,0.0,0.0,0.0,-2.3516,-2.3418,0.0,0.0,0.0,0.0,0.0,0.0,0.0,0.0,0.0,0.0,0.0,0.0,-1.7385,-1.8983,-2.0289,-2.0855,0.0,0.0,0.0,0.0,0.0,-1.9823,-1.9798,-1.9798,-1.9798,-2.0666,-2.1907,-2.3534,-2.4512,0.0,0.0,0.0,0.0,0.0,0.0,0.0,0.0,0.0,0.0,0.0,0.0,0.0,0.0,0.0,0.0,0.0,0.0,0.0,0.0,0.0,0.0,0.0,0.0,0.0,0.0,0.0,0.0,0.0,0.0,0.0,0.0,0.0,0.0,0.0,0.0,0.0,0.0,0.0,0.0,0.0,0.0,0.0,0.0,0.0,0.0,0.0,0.0,-1.2563,-1.3213,-1.3434,-1.4082,-1.4335,0.0,0.0,0.0,0.0,0.0,0.0,-1.9447,-2.321,-2.4894,-2.3808,-2.6178,-2.7362,-2.7168,-2.8423,-2.9082,-2.9092,-2.9521,-2.9726,-2.9736,-2.9853,-2.9912,-2.9902,-2.9785,-2.9551,-2.9101,-2.7295,-2.6426,-2.6162,-2.5508,-2.499,-2.4697,-2.5332,-2.5361,-2.5225,0.0,0.0,0.0,0.0,0.0,0.0,0.0,0.0,0.0,0.0,0.0,-1.7861,-1.9483,0.0,-2.0867,0.0,0.0,0.0,0.0,0.0,-1.9836,-1.9798,-1.9798,-1.9798,-1.9798,-2.1393,-2.305,0.0,0.0,0.0,0.0,0.0,0.0,0.0,0.0,0.0,0.0,0.0,0.0,0.0,0.0,0.0,0.0,0.0,0.0,0.0,0.0,0.0,0.0,0.0,0.0,0.0,0.0,0.0,0.0,0.0,0.0,0.0,0.0,0.0,0.0,0.0,0.0,0.0,0.0,0.0,0.0,0.0,0.0,0.0,0.0,0.0,0.0,0.0,0.0,0.0,0.0,0.0,0.0,-1.5164,-1.5545,0.0,0.0,0.0,0.0,-1.8345,-2.3107,-2.5148,-2.298,-2.4987,-2.64,-2.6699,-2.6865,-2.7753,-2.9446,-2.9521,-2.9531,-2.9597,-2.9961,-3.0166,-3.0176,-3.0625,-3.082,-3.0801,-3.0361,-3.0156,-3.0059,-2.9141,-2.8291,-2.762,-2.7571,-2.7236,-2.6855,-2.6904,-2.6904,-2.6894,0.0,0.0,0.0,-1.1012,-1.1282,-1.1856,-1.2896,-1.3462,-1.4239,-1.5557,-1.7288,-1.861,0.0,-2.0752,0.0,0.0,0.0,0.0,0.0,0.0,-2.0377,-2.0377,-2.0377,-2.0853,-2.1892,-2.2899,-2.4029,0.0,0.0,0.0,0.0,0.0,0.0,0.0,0.0,0.0,0.0,0.0,0.0,0.0,0.0,0.0,0.0,0.0,0.0,0.0,0.0,0.0,0.0,0.0,0.0,0.0,0.0,0.0,0.0,0.0,0.0,0.0,0.0,0.0,0.0,0.0,0.0,0.0,0.0,0.0,0.0,0.0,0.0,0.0,0.0,0.0,0.0,0.0,0.0,0.0,0.0,0.0,0.0,-1.5899,-1.6727,0.0,-1.792,-1.9514,-2.077,-2.1409,-2.4738,-2.6379,-2.5572,-2.7623,-2.9031,-2.947,-2.9737,-3.0324,-3.124,-3.124,-3.1103,-3.082,-3.0976,-3.0908,-3.0644,-3.081,-3.0889,-3.0879,-3.0713,-3.0644,-3.0625,-3.0312,-2.9678,-2.8941,-2.8941,-2.8457,-2.7871,-2.8144,-2.79,-2.7471,-1.0505,-1.0791,0.0,-1.1438,-1.1799,-1.2442,-1.3657,-1.414,-1.4902,-1.6341,-1.7967,-1.9221,0.0,0.0,0.0,0.0,0.0,0.0,0.0,0.0,-2.0893,-2.0704,-2.1043,-2.1907,-2.3358,-2.4155,0.0,0.0,0.0,0.0,0.0,0.0,0.0,0.0,0.0,0.0,0.0,0.0,0.0,0.0,0.0,0.0,-1.9961,0.0,0.0,0.0,0.0,0.0,0.0,0.0,0.0,0.0,0.0,0.0,0.0,0.0,0.0,0.0,0.0,0.0,0.0,0.0,0.0,0.0,0.0,0.0,0.0,0.0,0.0,0.0,0.0,0.0,0.0,0.0,0.0,0.0,0.0,0.0,-1.6313,-1.6814,-1.8199,-1.9186,-1.9237,-2.1448,-2.3122,-2.3566,-2.6331,-2.8099,-2.8248,-2.9786,-3.085,-3.1309,-3.1592,-3.1875,-3.2229,-3.2229,-3.2021,-3.1738,-3.1738,-3.1592,-3.1318,-3.1162,-3.1103,-3.1094,-3.0957,-3.0889,-3.0889,-3.0889,-3.0547,-3.0,-2.9844,-2.9346,-2.876,-2.9033,-2.8789,-2.8384,-1.0905,-1.1038,-1.1345,-1.2336,-1.2508,-1.3053,-1.4663,-1.4909,-1.5713,-1.789,-1.8682,-1.966,0.0,0.0,0.0,0.0,0.0,0.0,0.0,-2.1496,-2.1257,-2.0767,-2.1794,-2.2924,-2.4054,0.0,0.0,0.0,0.0,0.0,0.0,0.0,0.0,0.0,0.0,0.0,0.0,0.0,0.0,0.0,0.0,0.0,-2.2184,0.0,0.0,0.0,0.0,0.0,0.0,0.0,0.0,0.0,0.0,0.0,0.0,0.0,0.0,0.0,0.0,0.0,0.0,0.0,0.0,0.0,0.0,0.0,0.0,0.0,0.0,0.0,0.0,0.0,0.0,0.0,0.0,0.0,-1.7478,-1.7001,-1.7101,-1.8037,-2.0051,-2.0769,-1.9292,-2.3818,-2.6237,-2.4824,-2.8122,-3.0439,-3.0908,-3.1318,-3.1738,-3.2178,-3.2248,-3.2197,-3.2268,-3.2268,-3.2207,-3.2248,-3.2248,-3.2178,-3.2158,-3.1728,-3.1533,-3.1494,-3.1084,-3.0898,-3.0889,-3.0889,-3.0889,-3.084,-3.0391,-2.9961,-2.9646,-2.9646,-2.9636,-2.9512,-1.0981,-1.1597,-1.2174,-1.2443,-1.2773,-1.3437,-1.4701,-1.5236,-1.6003,-1.7413,-1.9158,0.0,0.0,0.0,0.0,0.0,0.0,0.0,-2.2071,-2.0941,-2.074,-2.1807,-2.3326,0.0,0.0,0.0,0.0,0.0,0.0,0.0,0.0,0.0,0.0,0.0,0.0,0.0,0.0,0.0,0.0,0.0,0.0,0.0,-2.3439,0.0,0.0,0.0,0.0,0.0,0.0,0.0,0.0,0.0,0.0,0.0,0.0,0.0,0.0,0.0,0.0,0.0,0.0,0.0,0.0,0.0,0.0,0.0,0.0,0.0,0.0,0.0,0.0,0.0,0.0,0.0,0.0,-2.1311,-1.9613,-1.8749,-1.8913,-2.0579,-2.0642,-2.1708,-2.4694,-2.5508,-2.6793,-2.9006,-3.0363,-3.1348,-3.1797,-3.1934,-3.2187,-3.2607,-3.2627,-3.2764,-3.3076,-3.3076,-3.292,-3.2627,-3.2627,-3.2461,-3.2229,-3.2041,-3.1816,-3.1514,-3.1396,-3.1172,-3.0889,-3.0889,-3.0889,-3.0879,-3.0752,-3.042,-3.0029,-3.0029,-2.9834,-2.9551,-1.0962,-1.1653,-1.2276,-1.2473,-1.311,-1.3891,-1.4758,-1.5563,-1.6446,-1.7576,-1.9258,0.0,0.0,0.0,0.0,0.0,0.0,-2.1782,-2.1631,-2.1142,-2.1606,-2.3258,0.0,0.0,0.0,0.0,0.0,0.0,0.0,0.0,0.0,0.0,0.0,0.0,0.0,0.0,0.0,0.0,0.0,0.0,0.0,0.0,-2.4921,-2.3891,-2.3409,-2.3221,-2.246,-2.1832,-2.1267,-2.0702,0.0,0.0,0.0,0.0,0.0,0.0,0.0,0.0,0.0,0.0,0.0,0.0,0.0,0.0,0.0,0.0,0.0,0.0,0.0,0.0,0.0,0.0,0.0,0.0,-2.332,-2.3936,-2.2834,-2.1719,-2.1086,-2.1334,-2.2609,-2.413,-2.5862,-2.7225,-2.8677,-3.0266,-3.1272,-3.1982,-3.2412,-3.2432,-3.2627,-3.3047,-3.3057,-3.3174,-3.3418,-3.3418,-3.3301,-3.3057,-3.3057,-3.293,-3.2685,-3.251,-3.2295,0.0,-3.1865,-3.1543,-3.1152,-3.1152,-3.1055,0.0,0.0,0.0,0.0,0.0,-3.0215,-2.9834,-1.1,-1.1523,-1.2029,-1.2508,-1.3421,-1.4274,-1.4828,-1.5806,-1.6901,-1.8053,0.0,0.0,0.0,0.0,0.0,0.0,0.0,0.0,0.0,0.0,0.0,-2.4725,0.0,0.0,0.0,0.0,0.0,0.0,0.0,0.0,0.0,0.0,0.0,0.0,0.0,0.0,0.0,0.0,0.0,0.0,0.0,0.0,-2.6424,-2.4858,-2.4544,-2.475,-2.3735,-2.3032,-2.2523,-2.2033,0.0,0.0,0.0,0.0,0.0,0.0,0.0,0.0,0.0,0.0,0.0,0.0,0.0,0.0,0.0,0.0,0.0,0.0,0.0,0.0,0.0,0.0,0.0,0.0,-2.5531,-2.6254,-2.6061,-2.5296,-2.391,-2.1775,-2.525,-2.7046,-2.5172,-2.8778,-3.0889,-3.014,-3.1455,-3.2422,-3.2842,0.0,0.0,0.0,0.0,-3.3418,-3.3418,-3.3418,-3.3418,-3.3418,-3.3418,-3.3418,-3.3408,-3.3037,-3.2842,-3.2773,-3.2402,-3.1963,-3.1514,-3.1514,-3.1269,-3.0889,-3.0889,-3.0889,-3.0889,-3.0889,-3.0635,-3.0273,-1.1542,-1.2029,-1.2508,-1.2978,-1.3649,-1.4274,-1.4828,-1.5806,-1.6901,-1.8053,-1.9133,0.0,0.0,0.0,0.0,0.0,0.0,0.0,0.0,0.0,0.0,0.0,0.0,0.0,0.0,0.0,0.0,0.0,0.0,0.0,0.0,0.0,0.0,0.0,0.0,0.0,0.0,0.0,0.0,0.0,0.0,0.0,-2.7077,-2.6311,-2.5795,-2.5423,-2.5197,-2.4782,-2.4286,-2.4217,-2.3471,-2.2594,-2.238,0.0,0.0,0.0,0.0,0.0,0.0,0.0,0.0,0.0,0.0,0.0,0.0,0.0,0.0,0.0,0.0,0.0,0.0,0.0,0.0,-2.5117,-2.6686,-2.7352,-2.5885,-2.7594,-2.8384,-2.68,-2.6491,-2.7332,-2.9851,-2.9767,-3.0316,-3.2094,-3.2481,-3.2861,-3.3281,-3.3301,-3.334,-3.3418,-3.3418,-3.3418,-3.3418,-3.3418,-3.3418,-3.3418,0.0,0.0,-3.3418,-3.334,-3.3115,-3.2793,-3.2715,-3.2236,-3.1514,-3.1514,-3.1269,-3.0889,-3.0889,-3.0889,-3.0889,-3.0889,-3.083,-3.0752,-1.1756,-1.2174,-1.2663,-1.3161,-1.3939,-1.4689,-1.5223,-1.6233,-1.7149,-1.7714,-1.8744,0.0,0.0,0.0,0.0,0.0,0.0,0.0,0.0,0.0,0.0,0.0,0.0,0.0,0.0,0.0,0.0,0.0,0.0,0.0,0.0,0.0,0.0,0.0,0.0,0.0,0.0,0.0,0.0,0.0,0.0,0.0,-2.7632,-2.7115,-2.6549,-2.6059,-2.6059,-2.5674,-2.5209,-2.5209,-2.4481,-2.3484,-2.3195,-2.2543,-2.1732,0.0,0.0,0.0,0.0,0.0,0.0,0.0,0.0,0.0,0.0,0.0,0.0,0.0,0.0,-2.2978,-2.4482,0.0,-2.6272,-2.7031,-2.8308,-2.8941,-2.8031,-2.9439,-2.9697,-2.7283,-2.7884,-2.903,-3.0443,-3.0639,-3.1304,-3.2984,-3.3105,-3.3203,-3.3408,-3.3418,-3.3418,-3.3418,-3.3418,-3.3418,-3.3418,-3.3418,-3.3418,-3.3418,-3.3418,-3.3418,-3.3418,-3.3418,-3.331,-3.3105,-3.3105,-3.2744,-3.2119,-3.1689,-3.1269,-3.0889,-3.0889,-3.0889,-3.0889,-3.0889,-3.0889,-3.0889,-1.2063,-1.247,-1.2957,-1.3378,-1.434,-1.5198,-1.563,-1.6559,-1.7272,-1.7385,-1.8154,-1.8719,-1.8832,-1.8945,-1.9259,0.0,0.0,0.0,0.0,0.0,0.0,0.0,0.0,0.0,0.0,0.0,0.0,0.0,0.0,0.0,0.0,0.0,0.0,0.0,0.0,0.0,0.0,0.0,0.0,0.0,0.0,0.0,-2.8059,-2.7607,-2.7065,-2.6474,-2.6361,-2.5959,-2.5448,-2.5448,-2.472,-2.3766,-2.3384,-2.2895,-2.2284,-2.1307,-2.1333,0.0,0.0,0.0,0.0,0.0,0.0,0.0,0.0,0.0,-2.166,-2.2891,-2.3818,-2.4893,-2.6465,-2.7324,-2.8086,-2.9014,-2.9746,-3.0225,-3.0322,-3.0654,-2.9903,-2.7263,-2.9285,-3.0719,-3.0223,-3.1398,-3.2519,-3.3359,-3.3418,-3.3418,-3.3418,-3.3418,-3.3418,-3.3418,-3.3418,-3.3418,-3.3418,-3.3418,-3.3418,-3.3418,-3.3418,-3.3418,-3.3418,-3.3418,-3.3418,-3.3418,-3.334,-3.3066,-3.2607,-3.1836,-3.1269,-3.0889,-3.0889,-3.0889,-3.0889,-3.0889,-3.0889,-3.0889,-1.3028,-1.3564,-1.3937,-1.3999,-1.4895,-1.5618,-1.568,-1.622,-1.6798,-1.7335,-1.7511,-1.7752,-1.8242,-1.8707,-1.9447,0.0,0.0,0.0,0.0,0.0,0.0,0.0,0.0,0.0,0.0,0.0,0.0,0.0,0.0,0.0,0.0,0.0,0.0,0.0,0.0,0.0,0.0,0.0,0.0,0.0,0.0,0.0,-2.8097,-2.8034,-2.7369,-2.6424,-2.5875,-2.536,-2.4876,-2.4876,-2.4123,-2.3283,-2.3753,-2.3471,-2.2895,-2.2309,0.0,-2.2309,-2.2706,-2.295,-2.3195,-2.3556,-2.2735,-2.2208,0.0,0.0,-2.4248,-2.5138,-2.6064,-2.6943,-2.79,-2.8164,-2.8623,-2.9853,-3.0137,-3.0342,-3.0752,-3.0859,-3.0762,-3.0401,-3.0704,-3.1162,-3.1828,-3.2097,-3.2519,-3.3359,-3.3418,-3.3418,-3.3418,-3.3418,-3.3418,-3.3418,-3.3418,-3.3418,-3.3418,-3.3418,-3.3418,-3.3418,-3.3418,-3.3418,-3.3418,-3.3418,-3.3418,-3.3398,-3.3027,-3.2627,-3.2207,-3.1719,-3.1269,-3.0889,-3.0889,-3.0889,-3.0889,-3.0889,-3.0889,-3.0889,-1.3264,-1.4227,-1.5022,-1.5022,-1.5412,-1.5806,-1.612,-1.635,-1.6588,-1.6848,-1.7174,-1.7589,-1.8141,-1.897,-1.9547,-1.9698,-2.0803,0.0,0.0,0.0,0.0,0.0,0.0,0.0,0.0,0.0,0.0,0.0,0.0,0.0,0.0,0.0,0.0,0.0,0.0,0.0,0.0,0.0,0.0,0.0,0.0,0.0,-2.8034,-2.7394,-2.6653,-2.5925,-2.5686,-2.5059,0.0,0.0,-2.3822,-2.2732,-2.3296,-2.2857,-2.2133,-2.1895,-2.2535,0.0,-2.4762,-2.5242,-2.5277,0.0,-2.4576,-2.4681,-2.4447,-2.4814,-2.5382,-2.6299,-2.6963,-2.7734,-2.8828,-2.9033,-2.9385,0.0,-3.0605,-3.0674,-3.0859,-3.0654,-3.0488,-3.0488,-3.0488,-3.0928,-3.2121,-3.2229,-3.2519,-3.3359,-3.3418,-3.3418,-3.3418,-3.3418,-3.3418,-3.3418,-3.3418,-3.3418,-3.3418,-3.3418,-3.3418,-3.3418,-3.3418,-3.3418,-3.3418,-3.3418,-3.3418,-3.3408,-3.3232,-3.2783,-3.2158,-3.1973,-3.1494,-3.0889,-3.0889,-3.0889,-3.0889,-3.0889,-3.0889,-3.0889,-1.3676,-1.4681,-1.5567,-1.5869,-1.5919,-1.6057,-1.6437,-1.65,-1.65,-1.65,-1.6886,-1.7413,-1.8129,-1.9032,-1.9497,-1.9233,-2.0476,-2.1732,0.0,0.0,0.0,0.0,0.0,0.0,0.0,0.0,0.0,0.0,0.0,0.0,0.0,0.0,0.0,0.0,0.0,0.0,0.0,0.0,0.0,0.0,0.0,0.0,-2.777,-2.6851,-2.5946,-2.5134,-2.4971,-2.4318,0.0,0.0,-2.2987,-2.1958,-2.2481,-2.2133,-2.1581,-2.2046,-2.3477,-2.517,-2.6372,0.0,0.0,-2.5816,-2.5991,-2.6104,-2.5002,-2.5371,-2.6123,-2.6865,-2.7363,-2.807,-2.918,-2.9482,-2.9814,-3.0576,-3.081,-3.0889,-3.0889,-3.0488,-3.0244,-3.0371,-3.0273,-3.0674,-3.1875,-3.21,-3.2471,-3.3193,-3.3359,-3.3418,-3.3418,-3.3418,-3.3418,-3.3418,-3.3418,-3.3418,-3.3418,-3.3418,-3.3418,-3.3418,-3.3418,-3.3418,-3.3418,-3.3418,-3.3418,-3.3418,-3.3418,-3.3008,-3.2334,-3.2278,-3.1728,-3.1055,-3.0937,-3.0889,-3.0889,-3.0889,-3.0889,-3.0889,-1.4638,-1.4896,-1.5248,-1.6287,-1.6475,-1.6475,-1.65,-1.65,-1.65,-1.65,-1.6513,-1.6939,-1.8091,-1.8682,-1.9221,-1.9736,-2.0365,-2.1182,-2.2259,-2.2844,0.0,0.0,0.0,0.0,0.0,0.0,0.0,0.0,0.0,0.0,0.0,0.0,0.0,0.0,0.0,0.0,0.0,0.0,0.0,0.0,0.0,0.0,-2.7278,-2.6713,-2.5493,-2.3966,-2.3384,0.0,0.0,0.0,-2.1232,-2.0842,-2.1395,-2.1546,0.0,-2.3452,-2.5473,0.0,0.0,0.0,-2.6538,-2.741,-2.6361,-2.5223,-2.5596,-2.6045,-2.6494,-2.6924,-2.7363,-2.793,-2.8779,-2.9287,-2.9717,-3.0146,-3.0596,-3.0889,-3.0889,-3.0488,-3.0361,-3.081,-3.0469,-3.0547,0.0,-3.1924,-3.2353,-3.2783,-3.3193,-3.3418,-3.3418,-3.3418,-3.3418,-3.3418,-3.3418,-3.3418,-3.3418,-3.3418,-3.3418,-3.3418,-3.3418,-3.3418,-3.3418,-3.3418,-3.3418,-3.3418,-3.3418,-3.3174,-3.2744,-3.2334,-3.1904,-3.1455,-3.1055,-3.0889,-3.0889,-3.0889,-3.0889,-3.0889,-1.4821,-1.5185,-1.5655,-1.6362,-1.65,-1.65,-1.65,-1.65,-1.6638,-1.7036,-1.7727,0.0,0.0,0.0,0.0,0.0,-2.0352,-2.1006,-2.1719,-2.2594,0.0,0.0,0.0,0.0,0.0,0.0,0.0,0.0,0.0,0.0,0.0,0.0,0.0,0.0,0.0,0.0,0.0,0.0,0.0,0.0,0.0,0.0,-2.8197,-2.6527,-2.5109,-2.3866,0.0,0.0,0.0,0.0,-2.0865,-2.0289,-2.1192,0.0,0.0,-2.4255,-2.5529,-2.621,-2.6971,0.0,-2.6034,-2.5986,-2.5724,-2.5557,-2.5654,-2.6074,-2.6426,-2.6572,-2.6943,-2.7412,-2.7988,-2.8437,-2.8955,-2.9668,-3.041,-3.0889,-3.0889,-3.0996,-3.0918,-3.0478,-3.0566,0.0,0.0,0.0,0.0,-3.2744,-3.293,-3.3125,-3.3408,-3.3418,-3.3418,-3.3418,-3.3418,-3.3418,-3.3418,-3.3418,-3.3418,-3.3418,-3.3418,-3.3418,-3.3418,-3.3418,-3.3418,-3.3418,-3.3418,-3.3184,-3.2764,-3.2344,-3.1914,-3.1475,-3.1055,-3.0889,-3.0889,-3.0889,-3.0889,-3.0889,-1.4896,-1.55,-1.6095,-1.6437,-1.6685,0.0,0.0,0.0,0.0,0.0,0.0,0.0,0.0,0.0,0.0,0.0,0.0,-2.0629,-2.1182,0.0,0.0,0.0,0.0,0.0,0.0,0.0,0.0,0.0,0.0,0.0,0.0,0.0,0.0,0.0,0.0,0.0,0.0,0.0,0.0,0.0,0.0,0.0,-2.7245,-2.5649,-2.4469,0.0,0.0,0.0,0.0,0.0,0.0,0.0,0.0,0.0,0.0,-2.5317,-2.6116,-2.6531,-2.769,-2.6955,-2.5943,-2.5977,-2.5844,-2.5693,-2.5693,-2.5908,-2.6201,-2.6357,-2.6484,-2.6738,-2.7324,-2.7656,-2.8164,-2.917,-3.0068,-3.0752,-3.1074,-3.1348,-3.1367,-3.0947,-3.1025,-3.1055,0.0,0.0,0.0,-3.2529,-3.2851,-3.3135,-3.3408,-3.3418,-3.3418,-3.3418,-3.3418,-3.3418,-3.3418,-3.3418,-3.3418,-3.3418,-3.3418,-3.3418,-3.3418,-3.3418,-3.3418,-3.3418,-3.3418,-3.3271,-3.2978,-3.2402,-3.2002,-3.1689,-3.1113,-3.0889,-3.0889,-3.0889,-3.0889,-3.0889,-1.4972,-1.5806,-1.65,0.0,0.0,0.0,0.0,0.0,0.0,0.0,0.0,0.0,0.0,0.0,0.0,0.0,0.0,0.0,-2.0616,0.0,0.0,0.0,0.0,0.0,-2.3045,-2.369,0.0,0.0,0.0,0.0,0.0,0.0,0.0,0.0,0.0,0.0,0.0,0.0,0.0,0.0,0.0,0.0,-2.4845,-2.4268,0.0,0.0,0.0,0.0,0.0,0.0,0.0,0.0,0.0,0.0,0.0,-2.6581,-2.7185,-2.8133,-2.9199,-2.7755,-2.62,-2.7291,-2.6671,-2.5723,-2.5723,-2.5693,-2.582,-2.624,-2.5977,-2.5869,-2.6728,0.0,-2.7393,-2.8652,-2.9629,-3.0537,-3.1396,-3.1572,-3.1758,0.0,0.0,0.0,0.0,0.0,0.0,-3.2207,0.0,-3.3398,-3.3418,-3.3418,-3.3418,-3.3418,-3.3418,-3.3418,-3.3418,-3.3418,-3.3418,-3.3418,-3.3418,-3.3418,-3.3418,-3.3418,-3.3418,-3.3418,-3.3418,-3.3418,-3.3359,-3.2519,-3.2229,-3.208,-3.123,-3.0889,-3.0889,-3.0889,-3.0889,-3.0889,0.0,0.0,0.0,0.0,0.0,0.0,0.0,0.0,0.0,0.0,0.0,0.0,0.0,0.0,0.0,0.0,0.0,0.0,0.0,0.0,0.0,0.0,0.0,0.0,0.0,-2.3489,0.0,0.0,0.0,0.0,0.0,0.0,0.0,0.0,0.0,0.0,0.0,0.0,0.0,0.0,0.0,0.0,-2.5971,0.0,0.0,0.0,0.0,0.0,0.0,0.0,0.0,0.0,0.0,-2.6628,-2.8188,0.0,0.0,-2.776,-2.79,-2.7154,-2.6388,-2.7033,-2.6695,-2.6221,-2.6221,-2.5713,-2.5273,-2.5429,-2.5059,-2.4824,-2.5039,0.0,0.0,-2.7832,-2.9521,0.0,-3.1445,-3.2334,0.0,-3.2226,0.0,-3.2393,-3.2187,-3.2451,0.0,0.0,-3.2832,-3.3086,-3.3408,-3.3418,-3.3418,-3.3418,-3.3418,-3.3418,-3.3418,-3.3418,-3.3418,-3.3418,-3.3418,-3.3418,-3.3418,-3.3418,-3.3418,-3.3418,-3.3418,-3.3418,-3.3359,-3.2519,-3.2229,-3.208,-3.123,-3.0889,-3.0889,-3.0889,-3.0889,-3.0889,0.0,0.0,0.0,0.0,0.0,0.0,0.0,0.0,0.0,0.0,0.0,0.0,0.0,0.0,0.0,0.0,0.0,0.0,0.0,0.0,0.0,0.0,0.0,0.0,0.0,0.0,0.0,0.0,0.0,0.0,0.0,0.0,0.0,0.0,0.0,0.0,0.0,0.0,0.0,0.0,0.0,0.0,0.0,0.0,0.0,0.0,0.0,0.0,0.0,0.0,0.0,-2.6939,-2.7394,-2.8524,-2.9521,-2.8858,0.0,-2.8285,-2.7862,-2.7227,-2.668,-2.6728,-2.6562,-2.624,-2.5654,-2.5283,-2.4949,-2.4392,-2.4189,0.0,-2.3887,-2.4775,0.0,0.0,0.0,0.0,-3.1377,-3.2461,-3.3037,0.0,-3.293,0.0,-3.2744,-3.293,-3.3066,0.0,-3.3066,-3.3174,-3.3408,-3.3418,-3.3418,-3.3418,-3.3418,-3.3418,-3.3418,-3.3418,-3.3418,-3.3418,-3.3418,-3.3418,-3.3418,-3.3418,-3.3418,-3.3418,0.0,-3.3418,-3.3359,-3.2519,-3.2229,-3.208,-3.123,-3.0889,-3.0889,-3.0889,-3.0889,-3.0889,0.0,0.0,0.0,0.0,0.0,0.0,0.0,0.0,0.0,-1.8329,-1.8355,0.0,0.0,0.0,0.0,0.0,0.0,0.0,0.0,0.0,0.0,0.0,0.0,0.0,0.0,0.0,0.0,0.0,0.0,0.0,0.0,0.0,0.0,0.0,0.0,0.0,0.0,0.0,0.0,0.0,0.0,0.0,0.0,0.0,0.0,0.0,0.0,0.0,0.0,0.0,-2.7921,-2.8009,-2.9038,-3.0054,-3.0726,-2.9833,-2.9437,-2.9135,-2.8267,-2.7592,-2.7012,-2.665,-2.6514,-2.6143,-2.4873,-2.4756,-2.4617,-2.3443,0.0,-2.3437,-2.3071,-2.3715,-2.4785,-2.6162,0.0,-2.9521,-3.1269,-3.2256,-3.2949,-3.3369,-3.3418,-3.3418,-3.3418,-3.3418,-3.3418,-3.3418,-3.3418,-3.3418,-3.3418,-3.3418,-3.3418,-3.3418,-3.3418,-3.3418,-3.3418,-3.3418,-3.3418,-3.3418,-3.3418,-3.3418,-3.3418,-3.3418,-3.3418,-3.3418,0.0,0.0,-3.3359,-3.2519,-3.2229,-3.208,-3.123,-3.0889,-3.0889,-3.0889,-3.0889,-3.0889,0.0,0.0,0.0,0.0,0.0,0.0,0.0,0.0,0.0,0.0,-1.9133,-1.9096,0.0,0.0,0.0,0.0,0.0,0.0,0.0,0.0,0.0,0.0,0.0,0.0,0.0,0.0,0.0,0.0,0.0,0.0,0.0,0.0,0.0,0.0,0.0,0.0,0.0,0.0,0.0,0.0,0.0,0.0,0.0,0.0,0.0,0.0,0.0,0.0,0.0,0.0,-2.8875,-3.0796,-3.1436,-3.2102,-3.2258,-3.0072,-2.9645,-2.9489,-2.7692,-2.7371,-2.7539,-2.7513,-2.7168,-2.666,-2.5674,-2.4727,0.0,0.0,-2.2646,-2.2305,-2.2568,-2.332,-2.4443,-2.6113,0.0,0.0,0.0,0.0,-3.2949,0.0,0.0,0.0,0.0,0.0,0.0,0.0,0.0,-3.3418,-3.3418,-3.3418,-3.3418,-3.3418,-3.3418,-3.3418,-3.3418,-3.3418,-3.3418,-3.3418,-3.3418,-3.3418,-3.3418,-3.3418,-3.3418,-3.3418,-3.3418,0.0,-3.3359,-3.2519,-3.2229,-3.208,-3.123,-3.0889,-3.0889,-3.0889,-3.0889,-3.0889,0.0,0.0,0.0,0.0,0.0,0.0,0.0,0.0,-1.9434,-2.0539,-2.0464,-2.03,-2.0289,-1.9987,0.0,0.0,0.0,0.0,0.0,0.0,0.0,0.0,0.0,0.0,0.0,0.0,0.0,0.0,0.0,0.0,0.0,0.0,0.0,0.0,0.0,0.0,0.0,0.0,0.0,0.0,0.0,0.0,0.0,0.0,0.0,0.0,0.0,0.0,0.0,0.0,-2.8109,-2.998,-3.1675,-3.2153,-3.1733,-2.9954,-2.9371,-2.903,-2.7441,-2.749,-2.7881,-2.7441,-2.7168,-2.6553,-2.4738,0.0,0.0,0.0,-2.1846,-2.1807,-2.1543,0.0,0.0,0.0,0.0,0.0,0.0,0.0,0.0,0.0,0.0,0.0,0.0,0.0,0.0,0.0,0.0,-3.3418,-3.3418,-3.3418,-3.3418,-3.3418,-3.3418,-3.3418,-3.3418,-3.3418,-3.3418,-3.3418,-3.3418,-3.3418,-3.3418,-3.3418,-3.3418,-3.3418,-3.3418,0.0,-3.3359,-3.2519,-3.2229,-3.208,-3.123,-3.0889,-3.0889,-3.0889,-3.0889,-3.0889,0.0,0.0,0.0,0.0,0.0,0.0,0.0,-1.9497,-2.0351,-2.1355,-2.1493,-2.1358,-2.0918,-2.0365,-1.9936,0.0,0.0,0.0,0.0,0.0,0.0,0.0,0.0,0.0,0.0,0.0,0.0,0.0,0.0,0.0,0.0,0.0,0.0,0.0,0.0,0.0,0.0,0.0,0.0,0.0,0.0,0.0,0.0,0.0,0.0,0.0,0.0,0.0,0.0,0.0,-2.6753,-2.8009,-3.0532,-3.1118,-3.0637,-2.9534,-2.9033,-2.8545,-2.7348,-2.7646,-2.8086,-2.7226,-2.7012,-2.6357,-2.3803,-2.3467,0.0,0.0,-2.1182,-2.1416,-2.086,0.0,-2.3115,0.0,0.0,0.0,0.0,0.0,0.0,0.0,0.0,0.0,0.0,0.0,0.0,0.0,0.0,0.0,-3.3418,-3.3418,-3.3418,-3.3418,-3.3418,-3.3418,-3.3418,-3.3418,-3.3418,-3.3418,-3.3418,-3.3418,-3.3418,-3.3418,-3.3418,-3.3418,-3.3418,0.0,0.0,-3.248,-3.2119,-3.1953,-3.1191,-3.0889,-3.0889,-3.0889,-3.0889,-3.0889,0.0,0.0,0.0,0.0,0.0,0.0,0.0,-1.9623,-2.083,-2.1405,-2.1493,-2.1468,-2.1446,-2.0943,-2.0402,0.0,0.0,0.0,0.0,0.0,0.0,0.0,0.0,0.0,0.0,0.0,0.0,0.0,0.0,0.0,0.0,0.0,0.0,0.0,0.0,0.0,0.0,0.0,0.0,0.0,0.0,0.0,0.0,0.0,0.0,0.0,0.0,0.0,0.0,0.0,0.0,-2.6138,-2.7921,-2.9071,-2.9593,-2.8867,0.0,0.0,-2.7348,-2.7646,-2.8086,-2.7226,-2.7012,-2.6435,-2.4228,0.0,0.0,-2.1414,-2.0918,-2.083,-2.1073,-2.1621,0.0,0.0,0.0,0.0,0.0,0.0,0.0,0.0,0.0,0.0,0.0,0.0,0.0,0.0,0.0,0.0,-3.3418,-3.3418,-3.3418,-3.3418,-3.3418,-3.3418,-3.3418,-3.3418,-3.3418,-3.3418,-3.3418,-3.3418,-3.3418,-3.3418,-3.3418,-3.3418,-3.3418,0.0,0.0,-3.2353,-3.1934,-3.1533,-3.1064,-3.0889,-3.0889,-3.0889,-3.0889,-3.0889,0.0,0.0,0.0,0.0,0.0,0.0,-1.8619,-1.9823,-2.0893,-2.1446,-2.1782,-2.1857,-2.1559,-2.132,-2.0817,0.0,0.0,0.0,0.0,0.0,0.0,0.0,0.0,0.0,0.0,0.0,0.0,0.0,0.0,0.0,0.0,0.0,0.0,0.0,0.0,0.0,0.0,0.0,0.0,0.0,0.0,0.0,0.0,0.0,0.0,0.0,0.0,0.0,0.0,0.0,0.0,0.0,-2.5912,-2.653,0.0,0.0,-2.8009,-2.7751,-2.6903,-2.707,-2.7383,-2.6787,-2.6641,-2.6074,-2.3951,0.0,-2.2652,-2.1152,-2.0723,-2.0703,-2.1112,-2.1592,-2.2363,0.0,-2.4551,-2.5762,-2.8096,0.0,0.0,0.0,0.0,0.0,0.0,0.0,0.0,0.0,0.0,0.0,-3.3418,-3.3418,-3.3418,-3.3418,-3.3418,-3.3418,-3.3418,-3.3418,-3.3418,-3.3418,-3.3418,-3.3418,-3.3418,-3.3418,-3.3418,-3.3418,-3.3418,0.0,0.0,-3.2344,-3.1914,-3.1475,-3.1055,-3.0889,-3.0889,-3.0889,-3.0889,-3.0889,0.0,0.0,0.0,0.0,0.0,-1.8342,-1.8707,-1.9887,-2.083,-2.1219,-2.1732,-2.192,-2.1531,-2.137,-2.0955,-2.0125,0.0,0.0,0.0,0.0,0.0,0.0,0.0,0.0,0.0,0.0,-2.1644,-2.3108,0.0,0.0,0.0,0.0,0.0,0.0,0.0,0.0,0.0,0.0,0.0,0.0,0.0,0.0,0.0,0.0,0.0,0.0,0.0,0.0,0.0,0.0,0.0,0.0,0.0,0.0,0.0,0.0,-2.7067,-2.7012,-2.6349,-2.6592,-2.6914,-2.6494,-2.6299,-2.5664,0.0,-2.3047,-2.25,-2.0938,-2.0713,-2.0859,-2.1142,-2.1689,-2.2412,0.0,-2.4062,-2.5127,-2.7187,-2.7949,0.0,0.0,0.0,0.0,0.0,0.0,0.0,0.0,0.0,0.0,0.0,-3.3418,-3.3418,-3.3418,-3.3418,-3.3418,-3.3418,-3.3418,-3.3418,-3.3418,-3.3418,-3.3418,-3.3418,-3.3418,-3.335,-3.3232,0.0,0.0,0.0,-3.21,-3.1719,-3.1299,-3.1006,-3.0889,-3.0889,-3.0889,-3.0889,-3.0889,0.0,0.0,0.0,0.0,0.0,0.0,0.0,-1.9635,-2.0691,-2.0704,-2.1182,-2.1493,-2.1493,-2.1031,-2.0691,-2.0679,0.0,0.0,0.0,0.0,0.0,0.0,0.0,0.0,0.0,0.0,-2.202,-2.3108,-2.3703,-2.4268,0.0,0.0,0.0,0.0,0.0,0.0,0.0,0.0,0.0,0.0,0.0,0.0,0.0,0.0,0.0,0.0,0.0,0.0,0.0,0.0,0.0,0.0,0.0,0.0,0.0,0.0,-2.5926,-2.6377,-2.5847,-2.6317,-2.6914,-2.6494,-2.6064,-2.5235,-2.3491,-2.2779,-2.2148,-2.0869,-2.0918,-2.119,-2.119,-2.1892,-2.2656,-2.3139,-2.3867,-2.5029,-2.6777,-2.7754,0.0,0.0,0.0,0.0,0.0,0.0,0.0,0.0,0.0,0.0,0.0,-3.3418,-3.3418,-3.3418,-3.3418,-3.3418,-3.3418,-3.3418,-3.3418,-3.3418,-3.3418,-3.3418,-3.3418,-3.3418,-3.3193,0.0,0.0,0.0,0.0,-3.1523,-3.1279,-3.0898,-3.0889,-3.0889,-3.0889,-3.0889,-3.0889,-3.0889,0.0,0.0,0.0,0.0,0.0,0.0,0.0,-1.9271,-2.0075,-2.0075,-2.0603,-2.0955,-2.0955,-2.0792,-2.0842,-2.1219,0.0,0.0,0.0,0.0,0.0,0.0,0.0,0.0,0.0,0.0,-2.241,-2.4261,-2.4437,-2.4833,-2.5347,-2.4983,-2.4217,0.0,0.0,0.0,0.0,0.0,0.0,0.0,0.0,0.0,0.0,0.0,0.0,0.0,0.0,0.0,0.0,0.0,0.0,0.0,0.0,0.0,0.0,-2.446,-2.534,-2.6001,-2.4411,-2.4385,-2.4717,-2.4287,-2.4297,-2.4033,-2.2607,-2.2402,-2.2227,-2.123,-2.1093,-2.1375,-2.196,-2.2334,-2.2939,-2.4294,-2.4687,0.0,0.0,0.0,0.0,0.0,0.0,0.0,0.0,0.0,0.0,0.0,0.0,0.0,0.0,-3.3418,-3.3418,-3.3418,-3.3418,-3.3418,-3.3418,-3.3418,-3.3418,-3.3418,-3.3418,-3.3271,-3.2998,-3.2998,0.0,0.0,0.0,0.0,0.0,-3.1514,-3.1269,-3.0889,-3.0889,-3.0889,-3.0889,-3.0889,-3.0889,-3.1054,0.0,0.0,0.0,0.0,0.0,0.0,0.0,-1.8819,-1.951,-1.951,-1.9987,-2.0453,-2.0666,-2.0691,-2.0918,-2.1443,0.0,0.0,0.0,0.0,0.0,0.0,0.0,0.0,-2.1496,-2.1493,-2.2585,-2.4788,-2.4788,-2.5197,-2.5912,-2.5699,-2.4946,-2.3735,-2.3521,0.0,0.0,0.0,0.0,0.0,0.0,0.0,-2.5285,0.0,0.0,0.0,0.0,0.0,0.0,0.0,0.0,0.0,0.0,0.0,0.0,0.0,-2.4672,-2.5395,0.0,-2.3824,-2.3953,-2.33,-2.3232,-2.3057,-2.2109,-2.1963,-2.1826,-2.1133,-2.125,-2.1641,-2.2178,-2.2539,-2.3154,-2.4385,-2.4717,0.0,0.0,0.0,0.0,0.0,0.0,0.0,0.0,0.0,0.0,0.0,0.0,0.0,0.0,-3.3418,-3.3418,-3.3418,-3.3418,-3.3418,-3.3418,-3.3418,-3.3418,-3.3418,-3.3262,-3.3047,-3.2793,-3.2627,0.0,0.0,0.0,0.0,0.0,-3.1279,-3.1123,-3.0889,-3.0889,-3.0889,-3.0889,-3.0889,-3.0889,-3.1054,0.0,0.0,0.0,0.0,0.0,0.0,0.0,0.0,-1.9008,-1.9008,-1.9459,-2.0012,-2.0566,-2.0629,-2.0867,-2.1443,0.0,0.0,0.0,0.0,0.0,0.0,0.0,0.0,-2.1518,-2.1581,-2.2661,-2.4788,-2.4863,-2.5485,-2.6549,-2.6,-2.546,-2.4825,-2.4343,-2.3753,0.0,0.0,0.0,0.0,-2.4562,-2.4763,0.0,0.0,0.0,0.0,0.0,0.0,0.0,0.0,0.0,0.0,0.0,0.0,0.0,0.0,0.0,0.0,0.0,-2.419,-2.4164,-2.3242,-2.2728,-2.2314,-2.1894,-2.1504,0.0,-2.0742,-2.131,-2.1865,-2.1963,-2.2617,-2.331,-2.3848,0.0,0.0,0.0,0.0,0.0,0.0,0.0,0.0,0.0,0.0,0.0,0.0,0.0,0.0,0.0,-3.3418,-3.3418,-3.3418,-3.3389,-3.3389,-3.3418,-3.3418,-3.3408,-3.3369,-3.2978,-3.2764,-3.2685,-3.2295,0.0,0.0,0.0,0.0,0.0,-3.0889,-3.0889,-3.0889,-3.0889,-3.0889,-3.0889,-3.0889,-3.0889,-3.0889,0.0,0.0,0.0,0.0,0.0,0.0,0.0,0.0,0.0,0.0,-1.9459,-1.9849,-1.9987,-2.0012,-2.0401,0.0,0.0,0.0,0.0,0.0,0.0,0.0,0.0,0.0,-2.2096,-2.2506,-2.3396,-2.4788,-2.5661,-2.6461,-2.7128,-2.7381,-2.6766,-2.541,-2.5272,-2.4443,0.0,0.0,0.0,0.0,-2.4562,-2.4537,0.0,0.0,0.0,0.0,-2.2862,-2.2945,0.0,0.0,0.0,0.0,0.0,0.0,0.0,0.0,-2.4327,-2.4189,-2.4178,0.0,-2.2504,-2.2309,-2.189,-2.1416,0.0,-2.1064,-2.1161,-2.1064,0.0,-2.1689,-2.2728,-2.3071,-2.3623,0.0,0.0,0.0,0.0,0.0,0.0,0.0,0.0,0.0,0.0,0.0,0.0,0.0,0.0,0.0,0.0,-3.3418,-3.3418,-3.3418,-3.3105,-3.3096,-3.3418,-3.3418,-3.3262,-3.2939,-3.2842,-3.2451,-3.1816,-3.1719,0.0,0.0,0.0,0.0,-3.0889,-3.0889,-3.0889,-3.0889,-3.0889,-3.0889,-3.0889,-3.0889,-3.0889,-3.1054,0.0,0.0,0.0,0.0,0.0,0.0,0.0,0.0,0.0,0.0,0.0,0.0,0.0,0.0,0.0,0.0,0.0,0.0,0.0,0.0,0.0,0.0,0.0,-2.1443,-2.2297,-2.2832,-2.3772,-2.5172,-2.6072,-2.6901,-2.7657,-2.7708,-2.6967,-2.5561,-2.4808,-2.3948,0.0,0.0,0.0,0.0,-2.4217,0.0,0.0,0.0,0.0,0.0,-2.2334,-2.2498,0.0,-2.3715,-2.3615,-2.3296,0.0,0.0,0.0,0.0,-2.423,-2.4085,-2.4385,-2.3682,-2.2815,-2.2643,-2.2069,-2.1465,-2.1271,0.0,0.0,0.0,0.0,0.0,0.0,0.0,0.0,0.0,0.0,0.0,0.0,0.0,0.0,0.0,0.0,0.0,0.0,0.0,0.0,0.0,0.0,0.0,0.0,-3.3135,-3.3047,-3.2851,-3.2627,-3.2715,-3.3135,-3.2939,-3.2734,-3.25,-3.2305,-3.1963,-3.1514,-3.1318,-3.1103,0.0,0.0,0.0,-3.0889,-3.0889,-3.0889,-3.0889,-3.0889,-3.0889,-3.0889,-3.0889,-3.0889,-3.1005,0.0,0.0,0.0,0.0,0.0,0.0,0.0,0.0,0.0,0.0,0.0,0.0,0.0,0.0,0.0,0.0,0.0,0.0,0.0,0.0,0.0,0.0,-2.1656,-2.1907,-2.256,-2.2995,-2.3998,-2.5598,-2.6298,-2.714,-2.8097,-2.7708,-2.6841,-2.5523,-2.3923,-2.3195,0.0,0.0,0.0,0.0,-2.3766,0.0,0.0,0.0,0.0,0.0,0.0,0.0,0.0,-2.3414,-2.3446,-2.3283,-2.4336,0.0,0.0,0.0,0.0,0.0,-2.4858,-2.4578,-2.3985,-2.3767,-2.296,-2.2233,-2.2174,0.0,0.0,0.0,0.0,0.0,0.0,0.0,0.0,0.0,0.0,0.0,0.0,0.0,0.0,0.0,0.0,0.0,0.0,0.0,0.0,0.0,0.0,0.0,0.0,-3.2734,-3.2539,-3.2178,-3.21,-3.2236,-3.2598,-3.2314,-3.2129,-3.206,-3.1699,-3.1484,-3.1406,-3.1055,-3.0889,0.0,0.0,0.0,-3.0889,-3.0889,-3.0889,-3.0889,-3.0889,-3.0889,-3.0889,-3.0889,-3.0889,-3.0947,0.0,0.0,0.0,0.0,0.0,0.0,0.0,0.0,0.0,0.0,0.0,0.0,0.0,0.0,0.0,0.0,0.0,0.0,0.0,0.0,0.0,-2.2857,-2.2406,-2.2673,-2.3715,-2.3816,-2.4431,-2.5598,-2.664,-2.7482,-2.8109,-2.8461,-2.757,-2.5548,-2.4381,-2.359,-2.3145,-2.3753,0.0,-2.3158,0.0,0.0,0.0,0.0,0.0,0.0,0.0,0.0,0.0,-2.251,-2.2794,-2.3221,-2.3916,0.0,0.0,0.0,0.0,0.0,-2.5707,-2.5308,-2.452,-2.5226,-2.4659,-2.3824,-2.3356,0.0,0.0,0.0,0.0,0.0,0.0,0.0,0.0,0.0,0.0,0.0,0.0,0.0,0.0,0.0,0.0,0.0,0.0,0.0,0.0,0.0,0.0,0.0,0.0,-3.2461,-3.2236,-3.2229,-3.1807,-3.165,-3.1719,-3.2012,-3.1982,-3.1621,-3.1543,-3.1328,-3.0986,-3.0918,-3.0889,0.0,0.0,-3.0889,-3.0889,-3.0889,-3.0889,-3.0889,-3.0889,-3.0889,-3.0889,-3.0889,-3.0889,-3.1054,0.0,0.0,0.0,0.0,0.0,0.0,0.0,0.0,0.0,0.0,0.0,0.0,0.0,0.0,0.0,0.0,0.0,0.0,0.0,0.0,-2.3108,-2.3108,-2.2857,-2.312,-2.3979,-2.4569,-2.5398,-2.6502,-2.762,-2.8461,-2.9001,-2.8047,-2.6728,-2.5134,-2.4017,-2.3521,-2.3584,-2.3891,-2.3841,-2.3597,0.0,0.0,0.0,0.0,0.0,0.0,0.0,0.0,0.0,0.0,-2.2656,-2.3145,-2.3421,0.0,0.0,0.0,0.0,0.0,-2.5134,-2.5786,-2.6044,-2.6401,-2.5409,-2.4492,-2.4912,0.0,0.0,0.0,0.0,0.0,0.0,0.0,0.0,0.0,0.0,0.0,0.0,0.0,0.0,0.0,0.0,0.0,0.0,0.0,0.0,0.0,0.0,0.0,0.0,0.0,-3.1709,-3.1484,-3.1279,-3.1182,-3.1182,-3.1377,-3.1377,-3.1182,-3.1182,-3.1074,-3.0889,-3.0889,-3.0889,-3.0889,0.0,-3.0889,-3.0889,-3.0889,-3.0889,-3.0889,-3.0889,-3.0889,-3.0859,-3.0605,-3.0866,-3.1401,0.0,0.0,0.0,0.0,0.0,0.0,0.0,0.0,0.0,0.0,0.0,0.0,0.0,0.0,0.0,0.0,0.0,0.0,0.0,-2.2681,-2.297,-2.3095,-2.3108,-2.3434,-2.418,-2.4996,-2.6025,-2.7281,-2.8134,-2.8762,-2.9164,-2.7492,-2.6,-2.475,-2.3885,-2.3672,-2.4004,-2.4142,-2.4192,-2.4192,0.0,0.0,0.0,0.0,0.0,0.0,0.0,0.0,0.0,0.0,0.0,0.0,0.0,0.0,0.0,-2.3108,-2.3108,-2.3384,-2.4625,-2.5809,-2.6819,-2.7368,-2.6203,-2.5157,-2.6177,-2.502,0.0,0.0,0.0,0.0,0.0,0.0,0.0,0.0,0.0,0.0,0.0,0.0,0.0,0.0,0.0,0.0,0.0,0.0,0.0,0.0,0.0,0.0,0.0,0.0,-3.1221,-3.0898,-3.0889,-3.0889,-3.0889,-3.0889,-3.0889,-3.0889,-3.0889,-3.0889,-3.0889,-3.0889,-3.0889,-3.0889,-3.0771,-3.0732,-3.0723,-3.0625,-3.0586,-3.0586,-3.0586,-3.0586,-3.0537,-3.0185,-3.0701,-3.168,0.0,0.0,0.0,0.0,0.0,0.0,0.0,0.0,0.0,0.0,0.0,0.0,0.0,0.0,0.0,0.0,0.0,0.0,0.0,-2.2347,-2.2569,-2.3083,-2.3108,-2.3622,-2.4713,-2.4813,-2.5674,-2.7281,-2.7369,-2.7419,-2.7492,-2.7341,-2.6364,-2.4788,-2.47,-2.4443,-2.4029,-2.4544,-2.4725,-2.4725,-2.4725,0.0,0.0,0.0,0.0,0.0,0.0,0.0,0.0,0.0,0.0,0.0,0.0,0.0,-2.3108,-2.3108,-2.3108,-2.3459,-2.5109,-2.5178,-2.5433,-2.8089,-2.7616,0.0,-2.662,-2.6109,0.0,-2.7121,0.0,0.0,0.0,0.0,0.0,0.0,0.0,0.0,0.0,0.0,0.0,0.0,0.0,0.0,0.0,0.0,0.0,0.0,0.0,0.0,0.0,0.0,0.0,-3.0889,-3.0889,-3.0889,-3.0889,-3.0889,-3.0889,-3.0889,-3.0889,-3.0889,-3.0889,-3.0889,-3.0889,-3.0869,-3.043,-3.0244,-3.0215,-2.9824,-2.9668,-2.9668,-2.9668,-2.9668,-2.9658,-2.9685,-3.0439,-3.1638,0.0,0.0,0.0,0.0,0.0,0.0,0.0,0.0,0.0,0.0,0.0,0.0,0.0,0.0,0.0,0.0,0.0,0.0,0.0,-2.1933,-2.2397,-2.2581,-2.292,-2.3471,-2.4293,-2.4958,-2.595,-2.7281,-2.762,-2.762,-2.7268,-2.6964,-2.6076,-2.4775,-2.4456,-2.4192,-2.4017,-2.4217,-2.4305,-2.4305,-2.4305,-2.381,0.0,0.0,0.0,0.0,0.0,0.0,0.0,0.0,-2.1857,-2.238,0.0,0.0,-2.3108,0.0,-2.3108,-2.3321,-2.4343,-2.5434,-2.6443,-2.7123,-2.7727,0.0,0.0,-2.8032,-2.7516,-2.8715,-2.881,0.0,0.0,0.0,0.0,0.0,0.0,0.0,0.0,0.0,0.0,0.0,0.0,0.0,0.0,0.0,0.0,0.0,0.0,0.0,0.0,0.0,0.0,-3.0889,-3.0889,-3.0889,-3.0889,-3.0889,-3.0889,-3.0889,-3.0889,-3.0889,-3.0879,-3.0596,-3.0459,-3.043,-3.0,-2.9814,-2.9795,-2.9629,-2.9626,-2.9626,-2.9626,-2.9404,-2.917,-2.917,-2.989,-3.0831,0.0,0.0,0.0,0.0,0.0,0.0,0.0,0.0,0.0,0.0,0.0,0.0,0.0,0.0,0.0,0.0,0.0,0.0,-2.0679,-2.1408,-2.187,-2.2046,-2.241,-2.2887,-2.3452,-2.4356,-2.5448,-2.6753,-2.713,-2.7118,-2.6741,-2.6399,-2.5787,-2.5046,-2.4506,-2.4255,-2.4243,-2.4067,-2.4104,-2.4243,-2.4067,-2.3766,0.0,0.0,0.0,0.0,0.0,0.0,0.0,0.0,-2.1594,0.0,0.0,0.0,0.0,0.0,-2.3358,-2.3722,-2.4155,-2.5737,-2.7228,-2.6929,0.0,0.0,-3.0446,-2.9498,-2.8951,-3.0493,-3.119,0.0,0.0,0.0,0.0,0.0,0.0,0.0,0.0,0.0,0.0,0.0,0.0,0.0,0.0,0.0,0.0,0.0,0.0,0.0,0.0,0.0,0.0,0.0,-3.0674,-3.0605,-3.0478,-3.0469,-3.0469,-3.0469,-3.0469,-3.0547,-3.0664,-3.0342,-3.0127,-2.9971,-2.9551,-2.9365,-2.9355,-2.9219,-2.917,-2.917,-2.917,-2.8984,-2.8721,-2.8721,-2.9662,-3.0918,0.0,0.0,0.0,0.0,0.0,0.0,0.0,0.0,0.0,0.0,0.0,0.0,0.0,0.0,0.0,0.0,0.0,0.0,-2.0641,-2.0691,-2.0943,-2.1455,-2.1493,-2.1757,-2.2297,-2.2832,-2.391,-2.5586,-2.5586,-2.5586,-2.5586,-2.5598,-2.5586,-2.5561,-2.5046,-2.4775,-2.4738,-2.4217,-2.4305,-2.4725,-2.4217,-2.3991,-2.3866,0.0,0.0,0.0,0.0,0.0,0.0,0.0,-2.1056,0.0,0.0,0.0,0.0,0.0,-2.391,-2.4788,-2.4775,-2.6025,-2.7419,0.0,0.0,0.0,-3.0954,-3.0283,-3.0334,-3.2752,0.0,-3.5124,-3.3946,0.0,0.0,0.0,0.0,0.0,0.0,0.0,0.0,0.0,0.0,0.0,0.0,0.0,0.0,0.0,0.0,0.0,0.0,0.0,0.0,0.0,-3.0185,-2.999,-2.957,-2.9626,-2.9626,-2.9626,-2.9626,-2.9785,-3.0185,-3.0185,-2.9961,-2.9597,-2.9101,-2.8916,-2.8877,-2.8467,-2.8291,-2.8291,-2.8291,-2.8291,-2.8291,-2.8291,-2.9964,-3.2079,0.0,0.0,0.0,0.0,0.0,0.0,0.0,0.0,0.0,0.0,0.0,0.0,0.0,0.0,0.0,0.0,0.0,0.0,-2.0075,-2.0465,-2.0767,-2.093,-2.1656,-2.2146,-2.2309,-2.2832,-2.3735,-2.5059,-2.5059,-2.5059,-2.5059,-2.5423,-2.5197,-2.4481,-2.4687,-2.4349,-2.3597,-2.3434,-2.3459,-2.3597,-2.3434,-2.3358,-2.3283,0.0,0.0,0.0,0.0,0.0,0.0,0.0,0.0,0.0,0.0,0.0,0.0,-2.3221,-2.391,-2.4713,-2.4343,-2.5737,0.0,0.0,0.0,0.0,0.0,-3.1913,0.0,0.0,0.0,-3.578,-3.611,0.0,0.0,0.0,0.0,0.0,0.0,0.0,0.0,0.0,0.0,0.0,0.0,0.0,0.0,0.0,0.0,0.0,0.0,0.0,0.0,0.0,-2.9756,-2.9697,-2.9626,-2.9626,-2.9626,-2.9626,-2.9626,-2.9629,-2.9746,-2.9443,-2.9228,-2.9092,-2.8662,-2.8476,-2.8467,-2.834,-2.8291,-2.8291,-2.8291,-2.8291,-2.8291,-2.8291,-2.9408,-3.0824,0.0,0.0,0.0,0.0,0.0,0.0,0.0,0.0,0.0,0.0,-1.9798,-1.9798,0.0,0.0,0.0,0.0,0.0,0.0,0.0,-2.0125,-2.0453,-2.0679,-2.1333,-2.1857,-2.2297,-2.2606,-2.3221,-2.4123,-2.4123,-2.4236,-2.4474,-2.5046,-2.5059,-2.4632,-2.4738,-2.4286,-2.3421,-2.297,-2.2782,-2.2782,-2.2782,-2.2907,-2.307,0.0,0.0,0.0,0.0,0.0,0.0,0.0,0.0,0.0,0.0,0.0,0.0,-2.3484,-2.4431,-2.5536,-2.5875,0.0,0.0,0.0,0.0,0.0,0.0,0.0,0.0,0.0,0.0,0.0,0.0,0.0,0.0,0.0,0.0,0.0,0.0,0.0,0.0,0.0,0.0,0.0,0.0,0.0,0.0,0.0,0.0,0.0,0.0,0.0,0.0,0.0,-2.9307,-2.9228,-2.9062,-2.9062,-2.9062,-2.9062,-2.9062,-2.9062,-2.9062,-2.8965,-2.8828,-2.8662,-2.8398,-2.8291,-2.8291,-2.8291,-2.8291,-2.8291,-2.8291,-2.8644,-2.9102,-2.9102,-3.0317,-3.1949,0.0,0.0,-1.9221,-1.971,0.0,0.0,0.0,0.0,0.0,-1.9798,-1.9798,-1.9798,0.0,0.0,0.0,-1.9798,0.0,0.0,0.0,-1.9798,-2.0062,-2.0666,-2.0792,-2.1333,-2.2359,-2.2355,-2.2606,-2.3108,-2.3108,-2.3371,-2.3929,-2.4462,-2.4971,-2.5347,-2.4838,-2.4368,-2.3766,-2.2698,-2.2234,-2.2234,-2.2234,-2.2506,-2.2957,-2.2957,0.0,0.0,0.0,0.0,0.0,0.0,0.0,0.0,0.0,0.0,-2.3208,-2.3766,-2.5084,-2.6751,0.0,0.0,0.0,0.0,0.0,0.0,0.0,0.0,0.0,0.0,0.0,0.0,0.0,0.0,0.0,0.0,0.0,0.0,0.0,0.0,0.0,0.0,0.0,0.0,0.0,0.0,0.0,0.0,0.0,0.0,0.0,0.0,0.0,-2.8877,-2.8867,-2.8682,-2.8301,-2.8291,-2.8291,0.0,-2.8291,-2.8291,-2.8301,-2.8682,-2.8652,-2.8291,-2.8291,-2.8291,-2.8291,-2.8291,-2.8291,-2.8291,-2.8291,-2.9102,-3.0317,-3.0317,-3.2039,-3.4385,0.0,0.0,-1.9673,-1.9786,0.0,0.0,0.0,0.0,-1.9798,-1.9798,-1.9798,-1.9798,-1.9798,-1.9798,0.0,-1.9798,-1.9798,0.0,0.0,-1.9798,-2.0062,-2.0666,-2.1493,-2.2272,-2.2907,-2.2932,-2.2982,-2.3108,-2.3108,-2.317,-2.3308,-2.3904,-2.3991,-2.3634,-2.3521,-2.3158,-2.2636,-2.1945,-2.1669,-2.1669,-2.1669,-2.1732,-2.1845,-2.1845,-2.1493,0.0,0.0,0.0,0.0,0.0,0.0,0.0,-2.2033,-2.2569,-2.3133,-2.3258,-2.4494,-2.595,0.0,-2.8122,0.0,0.0,0.0,0.0,0.0,0.0,0.0,0.0,0.0,0.0,0.0,0.0,0.0,0.0,0.0,0.0,0.0,0.0,0.0,0.0,0.0,0.0,0.0,0.0,0.0,0.0,0.0,0.0,0.0,0.0,0.0,-2.8428,-2.8428,-2.8389,-2.8291,-2.8291,-2.8291,0.0,-2.8291,-2.8291,-2.8301,-2.8389,-2.8379,-2.8291,-2.8291,-2.8291,-2.8291,-2.8291,-2.8291,-2.8291,-2.8291,-2.9102,-3.0317,-3.0317,-3.2039,-3.4385,0.0,0.0,0.0,0.0,0.0,0.0,0.0,0.0,-2.0138,-1.9836,-1.9798,-1.9798,-1.9798,-1.9798,0.0,0.0,-1.9798,-1.9798,0.0,0.0,-2.0175,-2.1056,-2.187,-2.2447,-2.2706,-2.2706,-2.2706,-2.2706,-2.2443,-2.2594,-2.312,-2.396,-2.423,-2.3898,-2.3634,-2.3208,-2.2606,-2.1556,-2.1119,-2.1119,-2.1119,-2.1282,-2.1493,-2.1493,-2.1333,-2.1119,-2.1408,0.0,0.0,0.0,0.0,0.0,0.0,0.0,-2.2819,-2.3358,-2.4343,-2.5573,0.0,0.0,0.0,0.0,0.0,0.0,0.0,0.0,0.0,0.0,0.0,0.0,0.0,0.0,0.0,0.0,0.0,0.0,0.0,0.0,0.0,0.0,0.0,0.0,0.0,0.0,0.0,0.0,0.0,0.0,0.0,-2.8291,-2.8291,-2.8291,-2.8291,-2.8291,-2.8291,-2.8291,-2.8291,-2.8291,-2.8291,-2.8291,-2.8291,-2.8291,-2.8291,-2.8291,-2.8291,-2.8291,-2.8291,-2.8291,-2.8291,-2.8291,-2.8291,-2.9102,-3.0317,-3.0317,-3.2039,-3.4385,0.0,0.0,0.0,0.0,0.0,0.0,0.0,0.0,0.0,-1.9861,-1.9798,-1.9798,-1.9798,-1.9798,-1.9798,0.0,0.0,0.0,-1.9798,0.0,0.0,-2.1333,-2.1882,-2.2171,-2.2171,-2.2171,-2.2171,-2.2171,-2.1707,-2.2146,-2.3409,-2.4148,-2.46,-2.4763,-2.4142,-2.354,-2.2857,-2.1358,-2.0629,-2.0541,-2.0541,-2.0817,-2.1192,-2.1192,-2.1192,-2.1204,-2.1305,-2.1644,-2.2058,-2.2246,0.0,0.0,0.0,0.0,-2.2234,-2.3263,-2.4017,-2.5013,0.0,0.0,0.0,0.0,0.0,0.0,0.0,0.0,0.0,0.0,0.0,0.0,0.0,0.0,0.0,0.0,0.0,0.0,0.0,0.0,0.0,0.0,0.0,0.0,0.0,0.0,0.0,0.0,0.0,0.0,-2.8291,-2.8291,-2.8291,-2.8291,-2.8291,-2.8291,-2.8291,-2.8291,-2.8291,-2.8291,-2.8223,-2.8223,-2.8291,-2.8223,-2.8223,-2.8291,-2.8291,-2.8291,-2.8291,-2.8291,-2.8291,-2.8291,-2.8291,-2.926,-3.0669,-3.0669,-3.2392,-3.4727,0.0,0.0,0.0,0.0,0.0,0.0,0.0,0.0,0.0,0.0,-1.9798,-1.9798,-1.9798,-1.9798,-1.9798,-1.9798,-1.9798,-1.9798,0.0,0.0,0.0,-2.0792,-2.1333,-2.1594,-2.1594,-2.1594,-2.1594,-2.1594,-2.1559,-2.2548,-2.455,-2.3722,-2.3847,-2.475,-2.3684,-2.2907,-2.2347,-2.1194,-2.0402,-1.9911,-1.9911,-1.9962,-2.0024,-2.0024,-2.0024,-2.0087,-2.0629,-2.0842,-2.1056,-2.1995,-2.2046,0.0,0.0,0.0,0.0,-2.1644,-2.2548,-2.3521,0.0,0.0,0.0,0.0,0.0,0.0,0.0,0.0,0.0,0.0,0.0,0.0,0.0,0.0,0.0,0.0,0.0,0.0,0.0,0.0,0.0,0.0,0.0,0.0,0.0,0.0,0.0,0.0,0.0,0.0,-2.8291,-2.8291,-2.8291,-2.8291,-2.8291,-2.8291,-2.8291,-2.8291,-2.8291,-2.8291,-2.792,-2.7939,-2.8281,-2.792,-2.7949,-2.8291,-2.8291,-2.8291,-2.8291,-2.8291,-2.8291,-2.8291,-2.8291,-2.9807,-3.2028,-3.2028,-3.3787,-3.6108,0.0,0.0,0.0,0.0,0.0,0.0,0.0,0.0,0.0,0.0,0.0,-1.9798,-1.9798,-1.9798,-1.9798,-1.9798,-1.9798,0.0,0.0,0.0,0.0,-2.0679,-2.093,-2.1056,-2.1056,-2.1056,-2.1056,-2.1056,-2.0702,-2.202,-2.4775,-2.4286,-2.5139,-2.7007,-2.5297,-2.4381,-2.4004,-2.1685,-2.0541,-2.0289,-1.9936,-2.0363,-2.1104,-2.0162,-2.0388,-2.1117,-2.0426,-2.0415,-2.0767,-2.1257,-2.1458,-2.1531,-2.1782,0.0,0.0,0.0,0.0,0.0,0.0,0.0,0.0,0.0,0.0,0.0,0.0,0.0,0.0,0.0,0.0,0.0,0.0,0.0,0.0,0.0,0.0,0.0,0.0,0.0,0.0,0.0,0.0,0.0,0.0,0.0,0.0,0.0,0.0,-2.8291,-2.8291,-2.8291,-2.8291,-2.8291,-2.8291,-2.8174,-2.7949,-2.7939,-2.7822,-2.7568,-2.7393,-2.7393,-2.7568,-2.7383,-2.7539,-2.7939,-2.7939,-2.7803,-2.7578,-2.7578,-2.7578,-2.763,-2.8316,-2.9505,-3.0936,-3.1578,-3.3308,-3.5271,0.0,0.0,0.0,0.0,0.0,0.0,0.0,0.0,0.0,0.0,0.0,-1.9798,-1.9798,0.0,0.0,0.0,-1.9798,0.0,0.0,0.0,0.0,0.0,-2.0478,-2.0478,-2.0478,-2.0478,-2.0478,-2.0478,-2.0162,-2.1732,-2.5021,-2.5172,-2.6854,-2.9628,-2.7293,-2.5925,-2.5222,-2.246,-2.1232,-2.1069,-2.0614,-2.128,-2.2393,-2.1594,-2.2146,-2.3125,-2.1305,-2.0928,-2.1257,-2.083,-2.0867,-2.1079,-2.1257,-2.093,0.0,0.0,0.0,0.0,0.0,0.0,0.0,0.0,0.0,0.0,0.0,0.0,0.0,0.0,0.0,0.0,0.0,0.0,0.0,0.0,0.0,0.0,0.0,0.0,0.0,0.0,0.0,0.0,0.0,0.0,0.0,0.0,0.0,-2.8644,-2.8291,-2.8193,-2.8135,-2.8135,-2.8027,-2.7822,-2.751,-2.75,-2.7334,-2.7012,-2.6904,-2.6914,-2.7012,-2.6904,-2.7031,-2.7395,-2.7451,-2.7314,-2.7012,-2.7348,-2.745,-2.7592,-2.8783,-2.9852,-3.0771,-3.1701,-3.3256,-3.4933,0.0,0.0,0.0,0.0,0.0,0.0,0.0,0.0,0.0,0.0,0.0,-1.9798,-1.9798,-1.9798,-1.9798,-1.9798,-1.9798,0.0,0.0,0.0,0.0,0.0,0.0,0.0,-1.9849,-1.9849,-1.9849,-1.9849,-2.039,-2.2338,-2.5573,-2.6147,-2.8435,-3.1926,-2.9189,-2.6816,-2.475,-2.3509,-2.2681,-2.2221,-2.2196,-2.2518,-2.3221,-2.4732,-2.572,-2.5996,-2.3753,-2.2945,-2.2732,-2.1219,-2.0352,-1.9987,-2.0566,-2.0339,-1.9849,0.0,0.0,0.0,0.0,0.0,0.0,0.0,0.0,0.0,0.0,0.0,0.0,0.0,0.0,0.0,0.0,0.0,0.0,0.0,0.0,0.0,0.0,0.0,0.0,0.0,0.0,0.0,0.0,0.0,0.0,0.0,0.0,-2.966,-2.8398,-2.792,-2.7748,-2.7748,-2.7295,-2.707,-2.7051,-2.7051,-2.7041,-2.7012,-2.6611,-2.6631,-2.7002,-2.6602,-2.6435,-2.6475,-2.6875,-2.7041,-2.7114,-2.8206,-2.8695,-2.8833,-3.01,-3.1698,-3.3326,-3.3374,-3.464,-3.631,0.0,0.0,0.0,0.0,0.0,0.0,0.0,0.0,0.0,0.0,0.0,0.0,0.0,-1.9798,-1.9798,-1.9798,-1.9798,0.0,0.0,0.0,0.0,0.0,0.0,0.0,-1.9798,-1.9798,-1.9798,-1.9798,-2.0012,-2.1267,-2.3502,-2.4443,-2.5799,-2.7433,-2.7544,-2.7532,-2.7208,-2.396,-2.2912,-2.3389,-2.3389,-2.4356,-2.5787,-2.5649,-2.6615,-2.7758,-2.5523,-2.4462,-2.4048,-2.3125,-2.1945,-2.0865,-2.0742,-2.0302,-1.9798,-1.9798,-2.0313,0.0,0.0,0.0,0.0,0.0,0.0,0.0,0.0,0.0,0.0,0.0,0.0,0.0,0.0,0.0,0.0,0.0,0.0,0.0,0.0,0.0,0.0,0.0,0.0,0.0,0.0,0.0,0.0,0.0,0.0,0.0,-2.7996,-2.748,-2.7246,-2.7246,-2.71,-2.6885,-2.6621,-2.6338,-2.6152,-2.6142,-2.6045,-2.6045,-2.6142,-2.6035,-2.5967,-2.5977,-2.6074,-2.6152,-2.6191,-2.6606,-2.727,-2.8157,-2.9371,-3.0985,-3.2718,-3.3878,-3.4926,-3.5893,0.0,0.0,0.0,-2.0289,0.0,-1.9798,-1.9798,-1.9798,-1.9798,-1.9798,0.0,0.0,0.0,0.0,-1.9798,-1.9798,-1.9798,-1.9798,-1.9798,-1.9798,0.0,0.0,0.0,0.0,-1.9798,-1.9798,-1.9798,-1.9798,-1.9999,-2.0853,-2.2334,-2.3276,-2.4205,-2.5109,-2.5649,-2.6716,-2.7896,-2.4745,-2.3841,-2.4569,-2.4946,-2.5975,-2.7318,-2.7682,-2.8737,-2.9728,-2.7733,-2.6779,-2.6289,-2.4983,-2.3678,-2.2447,-2.1534,-2.0564,-1.9798,-1.9798,-2.0476,-2.1408,-2.2108,0.0,0.0,0.0,0.0,0.0,0.0,0.0,0.0,0.0,0.0,0.0,0.0,0.0,0.0,0.0,0.0,0.0,0.0,0.0,0.0,0.0,0.0,0.0,0.0,0.0,0.0,0.0,0.0,0.0,-2.7545,-2.7041,-2.6738,-2.6592,-2.6582,-2.6455,-2.6172,-2.5879,-2.5693,-2.5693,-2.5693,-2.5693,-2.5693,-2.5693,-2.5693,-2.5693,-2.5693,-2.5693,-2.5732,-2.6149,-2.6849,-2.7767,-2.9361,-3.0867,-3.233,-3.4049,-3.5019,-3.5583,-2.2284,-2.187,-2.1343,-2.0817,-2.0251,-1.9849,-1.9823,-1.9823,-1.9823,-1.9823,0.0,0.0,0.0,0.0,0.0,-1.9798,-1.9798,-1.9798,-1.9798,-1.9798,-1.9798,0.0,0.0,0.0,-1.9798,-1.9798,-1.9798,-1.9798,-2.039,-2.1219,-2.2246,-2.2782,-2.3898,-2.5398,-2.3785,-2.4318,-2.6361,-2.5724,-2.5536,-2.5737,-2.6804,-2.7341,-2.7758,-3.0947,-3.219,-3.2026,-3.0432,-2.9854,-2.9428,-2.6666,-2.536,-2.4537,-2.2819,-2.1179,-1.9849,-1.9836,-2.025,-2.0729,0.0,0.0,0.0,0.0,0.0,0.0,0.0,0.0,0.0,0.0,0.0,0.0,0.0,0.0,0.0,0.0,0.0,0.0,0.0,0.0,0.0,0.0,0.0,0.0,0.0,0.0,0.0,0.0,0.0,-2.8445,-2.7043,-2.6602,-2.6172,-2.5703,-2.5693,-2.5693,-2.5693,-2.5693,-2.5693,-2.5693,-2.5693,-2.5693,-2.5693,-2.5693,-2.5693,-2.5693,-2.5693,-2.5693,-2.5781,-2.703,-2.7589,-2.7814,-3.0181,-3.1454,-3.2215,-3.3921,-3.4936,-3.5487,-2.1719,-2.192,-2.1907,-2.1355,-2.1129,-2.0918,-2.0515,-2.0453,-2.0453,0.0,0.0,0.0,-2.0453,-2.0049,-1.9798,-1.9798,-1.9798,-1.9798,-1.9798,-1.9798,-1.9798,-1.9798,-1.9798,-1.9798,-1.9798,-1.9798,-1.9798,-1.9798,-1.9962,-2.02,-2.0501,-2.1079,-2.1807,-2.2623,-2.2573,-2.307,-2.3991,-2.3037,-2.4255,-2.6801,-2.6264,-2.7745,-3.0319,-3.0859,-3.18,-3.2729,-3.1851,-3.1286,-3.0771,-2.9616,-2.7795,-2.5607,-2.3088,-2.1719,-2.0941,-2.0566,-2.1131,-2.1681,-2.0905,0.0,0.0,0.0,0.0,0.0,0.0,0.0,0.0,0.0,0.0,0.0,0.0,0.0,0.0,0.0,0.0,0.0,0.0,0.0,0.0,0.0,0.0,0.0,0.0,0.0,0.0,0.0,-3.0263,-2.8876,-2.6703,-2.6152,-2.581,-2.5693,-2.5693,-2.5693,-2.5693,-2.5693,-2.5693,-2.5693,-2.5693,-2.5693,-2.5693,-2.5693,-2.5693,-2.5693,-2.5693,-2.5693,-2.5732,-2.6062,-2.6754,-2.7683,-2.8319,-2.922,-3.0274,-3.1101,-3.2144,-3.3107,-2.2083,-2.2246,-2.2209,-2.1895,-2.1832,-2.1732,-2.1433,-2.1383,-2.1383,0.0,0.0,0.0,-2.1031,-2.0916,-2.0665,-2.02,-1.9936,-1.9798,-1.9798,-1.9798,-1.9798,-1.9798,-1.9798,-1.9798,-1.9798,-1.9798,-1.9798,-1.9798,-1.9798,-1.9798,-1.9811,-2.015,-2.0503,-2.079,-2.1117,-2.1581,-2.2046,-2.1167,-2.2899,-2.6327,-2.7055,-2.8561,-3.0457,-3.1311,-3.2089,0.0,0.0,-3.2365,-3.2014,-3.1474,-2.9289,-2.6474,-2.4343,-2.315,-2.2334,-2.1333,-2.1958,-2.2774,-2.1656,-2.2221,-2.3271,-2.396,0.0,0.0,0.0,-2.7519,0.0,0.0,0.0,0.0,0.0,0.0,0.0,0.0,0.0,0.0,0.0,0.0,0.0,0.0,0.0,0.0,0.0,0.0,0.0,-3.1159,-2.986,-2.8264,-2.6212,-2.583,-2.5693,-2.5693,-2.5693,-2.5693,-2.5693,-2.5693,-2.5693,-2.5693,-2.5693,-2.5693,-2.5693,-2.5693,-2.5693,-2.5693,-2.5693,-2.5693,-2.5693,-2.5693,-2.6159,-2.6849,-2.74,-2.8319,-2.9509,-3.0617,-3.1791,-3.2942,0.0,-2.2669,-2.2422,-2.2485,-2.2498,-2.2498,-2.2498,-2.2498,-2.2498,0.0,-2.2133,-2.1857,-2.1857,-2.2184,-2.2008,-2.1056,-2.03,-1.9924,-1.9987,-1.9874,-1.9798,-1.9798,-1.9798,-1.9798,-1.9798,-1.9798,-1.9798,-1.9798,-1.9798,-1.9798,-1.9798,-1.9798,-1.9798,-1.9798,-1.9798,-2.0087,-2.0578,-2.0288,-2.197,-2.5051,-2.8047,-2.9227,0.0,0.0,-3.2654,-3.2378,-3.2893,-3.3124,-3.298,-3.234,-3.0131,-2.7444,-2.6251,-2.5222,-2.413,-2.2435,-2.31,-2.4117,-2.2987,-2.3045,-2.381,-2.5247,-2.4582,0.0,-2.7105,-2.703,0.0,0.0,0.0,0.0,0.0,0.0,0.0,0.0,0.0,0.0,0.0,0.0,0.0,0.0,0.0,0.0,0.0,-3.2096,-3.1311,-3.1033,-2.8773,-2.6897,-2.5781,-2.5693,-2.5693,-2.5693,-2.5693,-2.5693,-2.5693,-2.5693,-2.5693,-2.5693,-2.5693,-2.5693,-2.5693,-2.5693,-2.5693,-2.5693,-2.5693,-2.5693,-2.5693,-2.5693,-2.5693,-2.583,-2.7078,-2.8272,-2.9417,-3.1168,-3.2547,-3.3683,-2.2393,-2.2706,-2.3095,-2.359,-2.3665,-2.3665,-2.3665,-2.3665,-2.3665,-2.3665,-2.3966,-2.4167,-2.4167,-2.3421,-2.2857,-2.2644,-2.133,-2.0717,-2.1129,-2.0313,-1.9798,-1.9798,-1.9798,-1.9798,-1.9798,-1.9798,-1.9798,-1.9798,-1.9798,-1.9798,-1.9798,-1.9798,-1.9798,-1.9798,-1.9798,-1.9861,-2.0075,-2.1741,-2.3358,-2.485,-2.549,-2.7846,-3.0972,-3.1512,-3.2215,-3.2918,-3.3074,-3.3124,-3.2918,-3.1901,-3.0846,-2.9691,-2.8109,-2.7469,-2.6979,-2.5285,-2.5674,-2.6402,-2.5259,-2.5372,-2.5808,-2.5636,-2.6038,0.0,-2.5611,-2.5624,0.0,0.0,0.0,0.0,0.0,0.0,0.0,0.0,0.0,0.0,0.0,0.0,0.0,0.0,0.0,0.0,0.0,-3.2884,-3.1877,-2.9909,-2.7484,-2.5965,-2.5684,-2.5693,-2.5693,-2.5693,-2.5693,-2.5693,-2.5693,-2.5693,-2.5693,-2.5693,-2.5693,-2.5693,-2.5693,-2.5693,-2.5693,-2.5693,-2.5693,-2.5693,-2.5693,-2.5693,-2.5693,-2.583,-2.7078,-2.7731,-2.8107,-2.9427,-3.0692,-3.1757,-2.2644,-2.292,-2.3283,-2.3891,-2.423,-2.4494,-2.4757,-2.4795,-2.4908,-2.5217,-2.595,-2.6038,-2.4913,-2.4808,-2.4343,-2.3195,-2.2121,-2.1408,-2.1119,-2.0578,-2.01,-1.9811,-1.9798,-1.9798,-1.9798,-1.9798,-1.9798,-1.9798,-1.9798,-1.9798,-1.9798,-1.9798,-2.01,-2.0614,-2.0049,-2.0263,-2.1091,-2.1669,-2.2874,-2.4582,-2.6515,0.0,-3.1449,-3.2014,-3.2579,-3.3124,-3.3124,-3.3124,-3.2948,-3.1763,-3.1047,0.0,-2.8925,-2.8712,-2.8612,0.0,-2.7231,-2.7858,-2.6741,-2.6688,-2.6901,-2.6854,0.0,0.0,0.0,-2.5812,-2.5912,0.0,0.0,0.0,0.0,0.0,0.0,0.0,0.0,0.0,0.0,0.0,0.0,0.0,0.0,0.0,0.0,-3.3124,-3.2064,-2.959,-2.8262,-2.702,-2.5781,-2.5693,-2.5693,-2.5693,-2.5693,-2.5693,-2.5693,-2.5693,-2.5693,-2.5693,-2.5693,-2.5693,-2.5693,-2.5693,-2.5693,-2.5693,-2.5693,-2.5693,-2.5693,-2.5693,-2.5693,-2.583,-2.7078,-2.7955,-2.8634,-2.9852,-3.1089,-3.2152,-2.2857,-2.3032,-2.3283,-2.3891,-2.4456,-2.4996,-2.5523,-2.5686,-2.6,-2.6725,-2.7645,-2.7632,-2.5963,-2.6565,-2.6377,-2.455,-2.3615,-2.2686,-2.171,-2.1345,-2.0918,-2.0313,-2.0075,-2.0012,-2.0125,-1.9911,-1.9798,-1.9798,-1.9798,-1.9798,-1.9798,-1.9798,-2.0351,-2.1292,-2.0489,-2.1004,-2.2393,0.0,0.0,-2.5222,0.0,-3.008,-3.0896,-3.224,-3.2797,-3.278,-3.3006,-3.3124,-3.296,-3.1888,-3.1273,-3.0721,-2.9565,-2.9716,0.0,0.0,-2.8699,-2.9302,-2.8348,-2.8072,-2.8109,-2.8235,0.0,-2.7241,0.0,0.0,0.0,-2.7256,0.0,0.0,0.0,0.0,0.0,0.0,0.0,0.0,0.0,0.0,0.0,0.0,0.0,0.0,0.0,-3.2534,-3.1593,-2.9886,-2.9002,-2.7843,-2.6139,-2.583,-2.5693,-2.5693,-2.5693,-2.5693,-2.5693,-2.5693,-2.5693,-2.5693,-2.5693,-2.5693,-2.5693,-2.5693,-2.5693,-2.5693,-2.5693,-2.5693,-2.5693,-2.5693,-2.5693,-2.583,-2.7078,-2.8319,-2.9544,-3.0765,-3.2008,-3.3124,-2.2397,-2.2769,-2.3283,-2.3891,-2.4456,-2.4996,-2.5523,-2.6059,-2.6776,-2.7783,-2.8448,-2.8938,-2.9202,-2.934,-2.9315,-2.9063,-2.7203,-2.5745,-2.5084,-2.3634,-2.2581,-2.2046,-2.1119,-2.0817,-2.1292,-2.0313,-1.9798,-1.9798,-1.9798,-1.9798,-1.9798,-1.9798,-2.0137,-2.0805,-2.1142,0.0,0.0,0.0,-2.546,0.0,-2.8813,-2.88,0.0,-3.0796,-3.1587,-3.1712,-3.2759,-3.3124,-3.298,0.0,-3.2077,-3.1838,0.0,-3.1122,-3.1712,-3.057,0.0,0.0,0.0,0.0,0.0,0.0,-2.9503,0.0,0.0,0.0,-2.6728,-2.546,0.0,0.0,0.0,0.0,0.0,0.0,0.0,0.0,0.0,0.0,0.0,0.0,0.0,0.0,0.0,0.0,-2.9767,-3.0894,-2.7657,-2.6097,-2.7337,-2.6294,-2.5693,-2.5693,-2.5693,-2.5693,-2.5693,-2.5693,-2.5693,-2.5693,-2.5693,-2.5693,-2.5693,-2.5693,-2.5693,-2.5693,-2.5693,-2.5693,-2.5693,-2.5693,-2.5693,-2.583,-2.7078,-2.8319,-2.9544,-3.0765,-3.2008,-3.3124,-2.2246,-2.2732,-2.3283,-2.3891,-2.4192,-2.4619,-2.5473,-2.6904,-2.7946,-2.8084,-2.9151,-2.988,-2.9804,-2.9792,-2.9654,-2.9315,-2.8436,-2.7243,0.0,-2.4946,-2.4029,-2.2807,-2.2033,-2.1581,-2.1493,-2.0742,-2.0137,-1.9798,-1.9798,-1.9798,-1.9798,-1.9798,-2.0627,-2.2096,-2.2008,0.0,-2.5498,0.0,-2.5649,0.0,0.0,0.0,0.0,-3.116,-3.2365,-3.2428,-3.2948,-3.3124,-3.2943,0.0,-3.1738,0.0,0.0,0.0,0.0,-3.1587,0.0,0.0,0.0,0.0,0.0,0.0,0.0,0.0,-2.7444,0.0,-2.6738,0.0,0.0,0.0,0.0,0.0,0.0,0.0,0.0,0.0,0.0,0.0,0.0,0.0,0.0,0.0,0.0,0.0,0.0,0.0,0.0,-2.6416,-2.7024,-2.6192,-2.5693,-2.5693,-2.5693,-2.5693,-2.5693,-2.5693,-2.5693,-2.5693,-2.5693,-2.5693,-2.5693,-2.5693,-2.5693,-2.5693,-2.5693,-2.5693,-2.5693,-2.5693,-2.6159,-2.6849,-2.74,-2.8319,-2.9544,-3.0765,-3.2008,-3.3124,-2.2234,-2.2732,-2.3233,-2.369,-2.3891,-2.4469,-2.585,-2.757,-2.8725,-2.8787,-2.998,-3.0796,-3.0696,-3.0834,-3.0746,-3.0331,-3.0156,-2.9189,0.0,-2.654,-2.5749,-2.4512,-2.3389,-2.2661,-2.241,-2.1556,-2.0867,-2.0263,-2.0263,-2.0263,-2.0263,-2.0112,-2.0978,-2.2656,-2.2719,-2.4368,-2.704,0.0,-2.6615,-2.8083,-2.816,-2.8473,-2.9139,-3.1703,-3.2847,-3.3124,-3.3124,-3.3124,-3.2973,-3.1938,-3.1612,0.0,-3.1436,0.0,-3.17,0.0,0.0,0.0,-3.1964,0.0,0.0,0.0,0.0,0.0,0.0,0.0,0.0,0.0,0.0,0.0,0.0,0.0,-2.5398,-2.5084,0.0,0.0,0.0,0.0,0.0,0.0,0.0,0.0,0.0,0.0,0.0,0.0,0.0,0.0,-2.7203,-2.6425,-2.5885,-2.5684,-2.5693,-2.5693,-2.5693,-2.5693,-2.5693,-2.5693,-2.5693,-2.5693,-2.5693,-2.5693,-2.5693,-2.5693,-2.5693,-2.5693,-2.5732,-2.6062,-2.6754,-2.7636,-2.7955,-2.8819,-3.0,-3.0899,-3.2008,-3.3124,-2.2309,-2.2732,-2.3108,-2.3133,-2.3597,-2.4732,-2.6892,-2.7745,-2.8712,-3.0319,-3.1022,-3.1775,-3.2898,0.0,0.0,-3.3746,0.0,-3.224,-3.057,0.0,-2.8009,-2.7946,-2.5372,-2.4192,-2.4675,-2.31,-2.1983,-2.1443,-2.1443,-2.1443,0.0,0.0,-2.0993,-2.1606,-2.3226,-2.4928,-2.6587,-2.757,-2.9553,-3.1938,-3.0922,-3.1474,-3.2822,0.0,-3.2127,-3.3124,-3.3124,0.0,0.0,-3.239,-3.219,0.0,0.0,0.0,0.0,0.0,0.0,0.0,0.0,0.0,0.0,-3.0357,0.0,0.0,0.0,0.0,-2.7908,0.0,0.0,0.0,0.0,-2.7582,-2.6841,-2.5749,-2.5586,0.0,0.0,0.0,0.0,0.0,0.0,0.0,0.0,0.0,0.0,0.0,0.0,0.0,-2.8433,-2.7334,-2.638,-2.5723,-2.5693,-2.5693,-2.5693,-2.5693,-2.5693,-2.5693,-2.5693,-2.5693,-2.5693,-2.5693,-2.5693,-2.5693,-2.5693,-2.5693,-2.5781,-2.703,-2.7542,-2.7731,-2.8912,-3.009,-3.1134,-3.1178,-3.2008,-3.3124,-2.3351,-2.3577,-2.359,-2.317,0.0,-2.4745,-2.6942,-2.8699,-3.0218,0.0,-3.2152,0.0,0.0,-3.401,-3.4048,0.0,0.0,-3.3458,-3.1788,-3.1135,0.0,-2.9264,-2.7959,-2.7017,0.0,-2.5159,-2.3853,-2.2543,-2.2209,0.0,0.0,0.0,0.0,0.0,0.0,-2.5523,0.0,0.0,0.0,0.0,0.0,-3.1599,-3.3074,0.0,0.0,-3.3124,-3.3124,-3.3124,0.0,-3.2855,-3.2528,-3.2252,-3.2453,-3.2365,-3.229,-3.2667,-3.2918,0.0,0.0,0.0,-3.2759,-3.1223,0.0,0.0,0.0,0.0,0.0,0.0,0.0,0.0,0.0,-2.7657,-2.7077,-2.6323,-2.585,-2.5285,0.0,0.0,0.0,0.0,0.0,0.0,0.0,0.0,0.0,0.0,0.0,0.0,0.0,-2.6358,-2.5553,-2.5293,-2.5586,-2.5693,-2.5693,-2.5693,-2.5693,-2.5693,-2.5693,-2.5693,-2.5693,-2.5693,-2.5693,-2.5693,-2.5693,-2.5693,-2.5732,-2.6149,-2.6849,-2.7636,-2.8049,-2.9453,-3.1223,-3.1223,-3.2008,-3.2982,-2.4255,-2.4293,-2.4104,0.0,0.0,-2.5548,-2.7557,-2.9754,0.0,0.0,-3.3307,0.0,-3.4868,0.0,-3.4625,0.0,-3.4969,-3.4342,-3.2905,-3.2441,0.0,-3.0696,-2.9741,-2.89,0.0,0.0,-2.5674,0.0,0.0,-2.2811,0.0,0.0,0.0,0.0,0.0,-2.5799,-2.8398,0.0,-3.0281,0.0,0.0,-3.2127,0.0,0.0,-3.3124,-3.3124,0.0,-3.3124,-3.3124,-3.3124,-3.283,-3.2591,-3.2998,-3.2817,-3.2591,-3.3011,-3.3124,-3.3124,-3.3124,-3.3124,0.0,-3.1662,-3.0871,0.0,-2.8699,0.0,0.0,0.0,0.0,0.0,0.0,-2.8499,-2.7682,-2.7165,-2.6226,-2.5146,0.0,-2.3866,0.0,0.0,0.0,0.0,0.0,0.0,-2.6235,-2.7695,0.0,0.0,0.0,0.0,-2.576,-2.5106,-2.5508,-2.5693,-2.5693,-2.5693,-2.5693,-2.5693,-2.5693,-2.5693,-2.5693,-2.5693,-2.5693,-2.5693,-2.5693,-2.5693,-2.5742,-2.6207,-2.6849,-2.7636,-2.8085,-2.9177,-3.0631,-3.1033,-3.1721,-3.2239,-2.4963,-2.4913,0.0,0.0,-2.5506,0.0,0.0,0.0,-3.2604,0.0,-3.4424,-3.4931,-3.5483,-3.5533,-3.5533,-3.5533,-3.5533,-3.5082,-3.4048,-3.298,0.0,0.0,-3.0821,-2.9967,-2.9917,0.0,0.0,0.0,0.0,0.0,0.0,0.0,0.0,0.0,-2.4054,0.0,-2.7469,-2.9654,-3.1537,-3.3124,-3.3124,-3.3124,-3.3124,-3.3124,-3.3124,-3.3124,-3.3124,-3.3124,-3.3124,-3.3124,-3.3124,-3.3124,-3.3124,-3.3124,-3.3124,-3.3124,-3.3124,-3.3124,-3.3124,-3.3124,-3.286,-3.1738,0.0,0.0,0.0,0.0,-3.0507,0.0,0.0,0.0,0.0,0.0,-2.8737,-2.816,-2.6678,-2.5046,-2.3446,0.0,0.0,0.0,0.0,0.0,0.0,-2.4632,-2.4946,-2.7077,-2.6706,0.0,0.0,0.0,-2.6781,-2.5208,-2.5469,-2.5664,-2.5693,-2.5693,-2.5693,-2.5693,-2.5693,-2.5693,-2.5693,-2.5693,-2.5693,-2.5693,-2.5693,-2.5693,-2.5781,-2.6993,-2.7494,-2.7636,-2.8773,-2.9269,-2.9453,-3.0676,-3.1122,-3.0944,-2.6097,-2.6703,-2.7218,0.0,-2.7055,-2.7908,0.0,0.0,0.0,0.0,-3.4944,-3.5495,-3.6094,-3.6157,-3.6157,-3.6157,-3.6157,0.0,0.0,0.0,0.0,-3.3508,-3.3068,-3.2453,-3.1612,-3.0131,-2.8737,-2.7457,0.0,0.0,-2.3753,0.0,0.0,0.0,0.0,0.0,-2.7984,-2.9402,-3.1198,-3.3124,-3.3124,-3.3124,0.0,0.0,-3.3124,-3.3124,-3.3124,-3.3124,-3.3124,-3.3124,-3.3124,-3.3124,-3.3124,-3.3124,-3.3124,-3.3124,-3.3124,-3.3124,-3.3124,-3.3124,-3.3048,-3.2759,-3.2014,-3.1286,0.0,0.0,0.0,0.0,0.0,0.0,0.0,0.0,0.0,-2.772,-2.6427,-2.5448,-2.5021,0.0,0.0,0.0,0.0,0.0,-2.381,-2.4632,-2.5423,-2.5988,-2.5528,0.0,0.0,0.0,0.0,-2.5807,-2.5471,-2.54,-2.5684,-2.5693,-2.5693,-2.5693,-2.5693,-2.5693,-2.5693,-2.5693,-2.5693,-2.5693,-2.5693,-2.5693,-2.5732,-2.6062,-2.6207,-2.6197,-2.6524,-2.721,-2.8226,-2.9407,-2.9863,-2.9681,-2.7544,0.0,0.0,-2.9503,0.0,0.0,-3.1474,0.0,0.0,-3.4525,-3.5157,0.0,-3.5968,-3.6267,-3.6405,-3.6405,-3.6405,0.0,-3.5533,0.0,0.0,-3.4299,-3.4035,-3.3608,-3.2968,-3.1574,0.0,-2.8461,0.0,0.0,-2.3979,0.0,0.0,0.0,0.0,-2.5624,0.0,-2.9967,-3.1574,-3.2717,-3.2968,0.0,0.0,-3.3124,-3.3124,-3.3124,-3.3124,-3.3124,-3.3124,-3.3124,-3.3124,-3.3124,-3.3124,-3.3124,-3.3124,-3.3124,-3.3124,-3.3124,-3.3124,-3.3124,-3.3124,-3.3124,-3.2646,-3.2064,-3.18,-3.175,-3.1662,0.0,0.0,0.0,0.0,0.0,0.0,-2.6854,-2.6013,-2.5523,-2.5285,0.0,0.0,0.0,-2.4669,0.0,-2.3208,-2.4205,-2.4996,-2.5234,-2.5197,0.0,0.0,0.0,0.0,-2.4791,-2.5498,-2.5734,-2.5439,-2.6146,-2.6245,-2.5693,-2.5693,-2.5693,-2.5693,-2.5693,-2.5693,-2.5693,-2.5693,-2.5693,-2.5693,-2.5693,-2.5693,-2.5693,-2.5693,-2.6476,-2.7683,-2.8366,-2.8958,-2.9131,-2.9113,0.0,0.0,0.0,0.0,0.0,0.0,-3.3319,0.0,-3.4751,0.0,-3.5608,-3.5608,-3.6081,-3.6405,-3.6405,0.0,-3.6157,-3.5633,-3.5608,-3.5357,-3.4806,-3.4374,-3.4048,-3.3897,-3.2792,-3.1173,0.0,-2.7783,-2.6126,-2.4092,0.0,0.0,0.0,0.0,0.0,0.0,-3.0821,-3.219,-3.2365,-3.288,-3.3124,-3.3124,-3.3124,-3.3124,-3.3124,-3.3124,-3.3124,-3.3124,-3.3124,-3.3124,-3.3124,-3.3124,-3.3124,-3.3124,-3.3124,-3.3124,-3.3124,-3.3124,-3.3124,-3.3124,-3.3124,-3.3124,-3.2943,-3.2441,-3.2328,-3.2328,-3.2328,-3.1951,-3.1863,0.0,0.0,0.0,-2.6264,0.0,0.0,0.0,0.0,0.0,0.0,0.0,0.0,0.0,-2.3766,-2.428,-2.4682,-2.5134,0.0,0.0,0.0,0.0,-2.3377,-2.5333,0.0,-2.5342,0.0,-2.6836,-2.5965,-2.5781,-2.5693,-2.5693,-2.5693,-2.5693,-2.5693,-2.5693,-2.5693,-2.5693,-2.5693,-2.5693,-2.5693,-2.5693,-2.639,-2.7363,-2.7363,-2.8132,-2.8866,-3.0319,0.0,0.0,0.0,0.0,-3.3646,-3.4198,-3.406,-3.4261,-3.5219,-3.5881,-3.6267,-3.6267,-3.6355,-3.6405,-3.6405,-3.6405,0.0,0.0,0.0,0.0,-3.5382,-3.5257,-3.4826,-3.3922,-3.2792,-3.1373,-2.9641,-2.7643,-2.5971,-2.4625,0.0,0.0,0.0,0.0,0.0,-2.9453,-3.0922,0.0,-3.293,-3.3074,-3.3124,-3.3124,-3.3124,-3.3124,-3.3124,-3.3124,-3.3124,-3.3124,-3.3124,-3.3124,-3.3124,-3.3124,-3.3124,-3.3124,-3.3124,-3.3124,-3.3124,-3.3124,-3.3124,-3.3124,-3.3124,-3.3124,-3.3056,-3.2955,-3.2918,-3.2918,-3.2918,-3.2855,-3.2596,-3.1813,0.0,0.0,0.0,0.0,0.0,0.0,0.0,0.0,0.0,0.0,0.0,0.0,0.0,-2.4531,-2.4167,0.0,0.0,0.0,0.0,0.0,0.0,-2.4022,0.0,0.0,0.0,-2.6104,-2.7268,-2.6197,-2.5693,-2.5693,-2.5693,-2.5693,-2.5693,-2.5693,-2.5693,-2.5693,-2.5693,-2.5693,-2.5693,-2.5693,-2.583,-2.6014,-2.6014,-2.6849,-2.7861,0.0,0.0,0.0,0.0,0.0,0.0,0.0,-3.5165,0.0,-3.547,-3.5768,-3.5931,-3.5931,-3.6194,-3.6405,-3.6405,-3.6405,-3.6405,-3.6405,-3.6405,-3.6292,-3.5981,-3.5658,-3.5119,-3.4349,-3.3508,-3.2139,-3.0218,-2.8561,-2.6879,-2.5197,-2.4061,0.0,0.0,0.0,-2.757,0.0,0.0,0.0,-3.2654,-3.2955,-3.3124,-3.3124,-3.3124,-3.3124,-3.3124,-3.3124,-3.3124,-3.3124,-3.3124,-3.3124,-3.3124,-3.3124,-3.3124,-3.3124,-3.3124,-3.3124,-3.3124,-3.3124,-3.3124,-3.3124,-3.3124,-3.3124,-3.3124,-3.3124,-3.3124,-3.3124,-3.3124,-3.3124,-3.2729,-3.1599,-3.052,0.0,0.0,0.0,0.0,0.0,0.0,-2.6967,0.0,0.0,0.0,0.0,0.0,0.0,0.0,0.0,0.0,0.0,0.0,0.0,0.0,0.0,0.0,0.0,0.0,0.0,-2.662,-2.5965,-2.5693,-2.5693,-2.5693,-2.5693,-2.5693,-2.5693,-2.5693,-2.5693,-2.5693,-2.5693,-2.5693,-2.5693,-2.61,-2.6668,-2.6668,-2.7484,-2.8448,0.0,-3.4248,0.0,0.0,-3.4856,0.0,-3.5433,-3.6006,-3.6207,-3.5768,-3.5671,-3.5671,-3.5671,-3.6107,-3.6405,-3.6405,-3.6405,-3.6405,-3.6405,-3.6405,-3.6405,-3.6405,-3.5943,-3.5408,-3.4868,-3.4361,-3.3043,0.0,-2.9716,-2.8034,-2.5937,-2.4971,-2.4644,-2.4971,0.0,0.0,0.0,0.0,-3.2177,-3.2441,-3.2893,-3.3124,-3.3124,-3.3124,-3.3124,-3.3124,-3.3124,-3.3124,-3.3124,-3.3124,-3.3124,-3.3124,-3.3124,-3.3124,-3.3124,-3.3124,-3.3124,-3.3124,-3.3124,-3.3124,-3.3124,-3.3124,-3.3124,-3.3124,-3.3124,-3.3124,-3.3124,-3.3124,-3.3124,-3.2729,-3.1599,-3.0896,0.0,0.0,0.0,0.0,0.0,0.0,0.0,0.0,0.0,0.0,0.0,0.0,0.0,0.0,0.0,0.0,0.0,0.0,0.0,0.0,0.0,-2.6225,-2.6303,0.0,-2.6532,0.0,-2.583,-2.5693,-2.5693,-2.5693,-2.5693,-2.5693,-2.5693,-2.5693,-2.5693,-2.5693,-2.5693,-2.5693,-2.5693,-2.6476,-2.7589,-2.7589,-2.8366,-2.9269,0.0,0.0,0.0,0.0,0.0,0.0,-3.5495,-3.6006,-3.6392,-3.6329,-3.6329,-3.6329,-3.6329,-3.638,-3.6405,-3.6405,-3.6405,-3.6405,-3.6405,-3.6405,-3.6405,-3.6405,-3.6367,-3.6031,-3.5433,-3.4881,-3.3796,0.0,0.0,-2.8825,-2.7118,-2.6549,-2.6766,-2.7733,0.0,0.0,0.0,-3.1386,-3.2064,-3.3006,-3.3099,-3.3124,-3.3124,-3.3124,-3.3124,-3.3124,-3.3124,-3.3124,-3.3124,-3.3124,-3.3124,-3.3124,-3.3124,-3.3124,-3.3124,-3.3124,-3.3124,-3.3124,-3.3124,-3.3124,-3.3124,-3.3124,-3.3124,-3.3124,-3.3124,-3.3124,-3.3124,-3.3124,-3.3124,-3.2729,-3.1599,-3.2152,-3.2114,0.0,0.0,0.0,0.0,0.0,-2.7808,-2.7193,0.0,0.0,0.0,0.0,0.0,0.0,0.0,0.0,0.0,0.0,0.0,-2.4249,0.0,-2.5742,-2.699,-2.6459,0.0,-2.74,-2.6245,-2.5693,-2.5693,-2.5693,-2.5693,-2.5693,-2.5693,-2.5693,-2.5693,-2.5693,-2.5693,-2.5693,-2.5693,-2.6476,-2.7589,-2.7589,-2.8366,-2.9361,0.0,0.0,0.0,0.0,0.0,0.0,0.0,-3.6433,-3.6405,-3.6405,-3.6405,-3.6405,-3.6405,-3.6405,-3.6405,-3.6405,-3.6405,-3.6405,-3.6405,-3.6405,-3.6405,-3.6405,-3.6405,-3.6107,-3.5508,-3.5282,-3.4399,0.0,0.0,0.0,0.0,-2.821,-2.8185,0.0,0.0,-3.057,-3.1436,-3.2114,-3.2667,-3.3124,-3.3124,-3.3124,-3.3124,-3.3124,-3.3124,-3.3124,-3.3124,-3.3124,-3.3124,-3.3124,-3.3124,-3.3124,-3.3124,-3.3124,-3.3124,-3.3124,-3.3124,-3.3124,-3.3124,-3.3124,-3.3124,-3.3124,-3.3124,-3.3124,-3.3124,-3.3124,-3.3124,-3.3124,-3.3124,-3.2943,-3.2478,-3.1964,-3.1524,0.0,0.0,0.0,0.0,0.0,0.0,-2.7344,0.0,-2.4575,0.0,0.0,0.0,0.0,0.0,-2.3293,-2.3703,0.0,0.0,-2.5517,0.0,-2.4832,-2.6616,-2.5594,-2.5394,-2.6121,-2.5837,-2.5693,-2.5693,-2.5693,-2.5693,-2.5693,-2.5693,-2.5693,-2.5693,-2.5693,-2.5693,-2.5781,-2.6524,-2.7125,-2.7589,-2.7589,-2.8366,-2.9315,-3.8228,0.0,-3.76,0.0,-3.7475,-3.6923,-3.7149,-3.6908,-3.6593,-3.643,-3.6405,-3.6405,-3.6405,-3.6405,-3.6405,-3.6405,-3.6405,-3.6405,-3.6405,-3.6405,-3.6405,-3.6405,-3.6405,0.0,-3.5793,-3.5583,-3.4919,-3.3809,-3.2905,0.0,0.0,-2.9767,0.0,0.0,-3.111,-3.1725,-3.1938,-3.2742,-3.3124,-3.3124,-3.3124,-3.3124,-3.3124,-3.3124,-3.3124,-3.3124,-3.3124,-3.3124,-3.3124,-3.3124,-3.3124,-3.3124,-3.3124,-3.3124,-3.3124,-3.3124,-3.3124,-3.3124,-3.3124,-3.3124,-3.3124,-3.3124,-3.3124,-3.3124,-3.3124,-3.3124,-3.3124,-3.3124,-3.3124,-3.3124,-3.3124,-3.1989,-3.1235,-3.1675,0.0,0.0,0.0,0.0,0.0,0.0,-2.5686,-2.4354,-2.385,0.0,0.0,0.0,0.0,-2.3247,-2.4028,0.0,0.0,0.0,0.0,0.0,0.0,-2.5201,-2.4954,-2.5116,-2.5527,-2.5693,-2.5693,-2.5693,-2.5693,-2.5693,-2.5693,-2.5693,-2.5693,-2.5693,-2.5927,-2.6294,-2.6849,-2.7494,-2.8096,-2.7731,-2.8366,-2.9223,-3.8743,-3.8391,-3.8178,-3.8755,-3.8379,-3.7801,-3.7262,-3.7174,-3.6973,-3.648,-3.6405,-3.6405,-3.6405,-3.6405,-3.6405,-3.6405,-3.6405,-3.6405,-3.6405,-3.6405,-3.6405,0.0,0.0,-3.6405,-3.6405,-3.583,-3.5495,-3.547,0.0,0.0,-3.2164,-3.1097,-3.116,-3.2177,-3.219,-3.2516,-3.3056,-3.3111,-3.3124,-3.3124,-3.3124,-3.3124,-3.3124,-3.3124,-3.3124,-3.3124,-3.3124,-3.3124,-3.3124,-3.3124,-3.3124,-3.3124,-3.3124,-3.3124,-3.3124,-3.3124,-3.3124,-3.3124,-3.3124,-3.3124,-3.3124,-3.3124,-3.3124,-3.3124,-3.3124,-3.3124,-3.3124,-3.3124,-3.3124,-3.3124,-3.3124,-3.2591,-3.1851,-3.0809,0.0,0.0,0.0,0.0,0.0,-2.7344,-2.5347,-2.3813,-2.3364,0.0,0.0,0.0,0.0,0.0,-2.4139,0.0,0.0,-2.422,-2.5116,0.0,-2.4648,-2.561,-2.5762,-2.5116,-2.5527,-2.5693,-2.5693,-2.5693,-2.5693,-2.5693,-2.5693,-2.5693,-2.5693,-2.5693,-2.6428,-2.7447,-2.6197,-2.721,-2.9223,-2.8038,-2.8366,-2.9223,-3.9396,-3.9283,-3.922,-3.9396,-3.8969,-3.8542,-3.8416,-3.8002,-3.7688,-3.75,-3.7475,-3.7475,-3.7475,-3.6857,-3.6405,0.0,-3.6405,-3.6405,0.0,-3.6405,-3.6405,-3.6405,-3.6405,-3.6405,-3.6405,-3.6194,-3.5918,-3.5495,0.0,0.0,0.0,-3.3018,-3.2842,-3.2805,-3.2805,-3.2905,-3.3124,-3.3124,-3.3124,-3.3124,-3.3124,-3.3124,-3.3124,-3.3124,-3.3124,-3.3124,-3.3124,-3.3124,-3.3124,-3.3124,-3.3124,-3.3124,-3.3124,-3.3124,-3.3124,-3.3124,-3.3124,-3.3124,-3.3124,-3.3124,-3.3124,-3.3124,-3.3124,-3.3124,-3.3124,-3.3124,-3.3124,-3.3124,-3.3124,-3.3124,-3.3124,-3.2303,-3.1537,-3.1198,-3.0532,0.0,0.0,0.0,0.0,-2.6336,-2.4637,-2.3351,0.0,-2.2761,0.0,0.0,0.0,0.0,0.0,0.0,0.0,0.0,-2.3505,0.0,-2.42,-2.4668,-2.4842,-2.4639,-2.5333,-2.5693,-2.5693,-2.5693,-2.5693,-2.5693,-2.5693,-2.5693,-2.5693,-2.5693,-2.5927,-2.6332,-2.6802,-2.7494,-2.8132,-2.7731,-2.7861,-2.7992,-3.9697,-3.9697,-3.9697,-3.9697,-3.9408,-3.9107,-3.8957,-3.8567,-3.8253,-3.804,-3.8002,-3.8002,-3.8002,-3.7387,0.0,-3.6732,-3.6719,-3.6631,-3.6417,-3.6405,-3.6405,-3.6405,-3.6405,-3.6405,-3.6405,0.0,0.0,-3.5855,-3.5596,-3.5044,-3.4211,-3.4211,-3.4022,-3.3696,-3.3696,-3.3583,-3.3382,-3.3382,-3.3269,-3.3124,-3.3124,-3.3124,-3.3124,-3.3124,-3.3124,-3.3124,-3.3124,-3.3124,-3.3124,-3.3124,-3.3124,-3.3124,-3.3124,-3.3124,-3.3124,-3.3124,-3.3124,-3.3124,-3.3124,-3.3124,-3.3124,-3.3124,-3.3124,-3.3124,-3.3124,-3.3124,-3.3124,-3.3124,-3.3124,-3.3124,-3.3124,-3.2152,-3.1263,-3.0869,-2.9887,-2.8844,-2.7883,0.0,0.0,0.0,0.0,0.0,0.0,-2.2799,0.0,0.0,0.0,0.0,0.0,0.0,0.0,-2.3009,-2.2833,0.0,-2.3907,-2.4241,-2.4502,-2.4668,-2.5343,-2.5693,-2.5693,-2.5693,-2.5693,-2.5693,-2.5693,-2.5693,-2.5693,-2.5693,-2.5965,-2.6428,-2.6754,-2.7173,-2.7542,-2.7078,-2.6897,-2.6754,-3.9697,-3.9697,0.0,0.0,-3.9697,0.0,-3.9057,-3.8982,-3.873,-3.8191,-3.8128,-3.8128,-3.8128,-3.8128,-3.7902,-3.7349,0.0,0.0,0.0,-3.6468,-3.6455,-3.6405,-3.6405,-3.6405,-3.6405,-3.6405,-3.6405,-3.6405,-3.5855,-3.527,-3.4776,-3.4776,-3.4763,-3.468,-3.468,-3.4437,-3.396,-3.396,-3.3658,-3.3194,-3.3194,-3.3194,-3.3194,-3.3194,-3.3194,-3.3194,-3.3194,-3.3194,-3.3194,-3.3194,-3.3194,-3.3194,-3.3194,-3.3212,-3.3174,-3.3124,-3.3124,-3.3124,-3.3124,-3.3124,-3.3124,-3.3124,-3.3124,-3.3124,-3.3124,-3.3124,-3.3124,-3.3124,-3.3025,-3.2982,-3.2982,-3.1972,-3.0828,-2.9803,-2.8703,-2.7455,-2.5955,0.0,0.0,0.0,0.0,0.0,0.0,-2.2524,-2.2513,0.0,0.0,0.0,0.0,0.0,-2.3541,-2.2533,-2.2877,-2.335,-2.3789,-2.4209,-2.4648,-2.5165,-2.5537,-2.5693,-2.5693,-2.5693,-2.5693,-2.5693,-2.5693,-2.5693,-2.5693,-2.5693,-2.638,-2.7363,-2.6149,-2.6428,-2.7315,-2.6159,-2.5693,-2.5693,0.0,0.0,-3.9697,-3.9697,-3.9697,-3.9647,-3.9521,-3.9496,-3.9446,-3.932,-3.9295,-3.9295,-3.9295,-3.9295,-3.9069,-3.8517,-3.8065,-3.7575,-3.7023,-3.6985,-3.6845,-3.643,-3.6405,-3.6405,-3.6405,-3.6405,-3.6405,-3.6405,-3.6279,-3.5893,-3.5307,-3.5307,-3.5082,-3.468,-3.468,-3.465,-3.4525,-3.4525,-3.4449,-3.4336,-3.4336,-3.4336,-3.4336,-3.4336,-3.4336,-3.4336,-3.4336,-3.4336,-3.4336,-3.4336,-3.4336,-3.4336,-3.4336,-3.4048,-3.3621,-3.3206,-3.3124,-3.3124,-3.3124,-3.3124,-3.3124,-3.3124,-3.3124,-3.3124,-3.3124,-3.3124,-3.3124,-3.3124,-3.2339,-3.1633,-3.1633,-3.0052,-2.8663,-2.8405,-2.7531,-2.6495,-2.5335,-2.4719,0.0,0.0,-2.2836,-2.2521,-2.2066,-2.2589,-2.2848,0.0,0.0,0.0,0.0,-2.3616,-2.3546,-2.2542,-2.2877,-2.335,-2.3789,-2.4209,-2.4805,-2.5586,-2.5635,-2.5693,-2.5693,-2.5693,-2.5693,-2.5693,-2.5693,-2.5693,-2.5693,-2.5693,-2.5878,-2.611,-2.583,-2.5868,-2.611,-2.583,-2.5693,-2.5693,-3.9697,-3.9697,-3.9697,-3.9697,-3.9697,-3.9697,-3.9697,-3.9697,-3.9697,-3.9697,-3.9697,-3.9697,-3.9697,-3.9697,-3.9572,-3.927,-3.873,-3.8165,-3.76,-3.7563,-3.7425,-3.7123,-3.7111,-3.6998,-3.6782,-3.6782,-3.6669,-3.6405,-3.6405,-3.6207,-3.5918,-3.5918,-3.5768,-3.5479,-3.5479,-3.5328,-3.5056,-3.5056,-3.4906,-3.468,-3.468,-3.468,-3.468,-3.468,-3.468,-3.468,-3.468,-3.468,-3.468,-3.468,-3.468,-3.468,-3.468,-3.4512,-3.4173,-3.3608,-3.3269,-3.3124,-3.3124,-3.3124,-3.3124,-3.3124,-3.3124,-3.3124,-3.3124,-3.2655,-3.2239,-3.2239,-3.1235,-3.0406,-3.0406,-2.9033,-2.7754,-2.7272,-2.6334,-2.5297,-2.4046,-2.3608,0.0,-2.2686,-2.2542,-2.25,-2.2461,-2.2828,-2.3014,-2.2794,0.0,0.0,-2.3106,-2.3402,-2.334,-2.2793,-2.3169,-2.3643,-2.4072,-2.4707,-2.5216,-2.5693,-2.5693,-2.5693,-2.5693,-2.5693,-2.5693,-2.5693,-2.5693,-2.5693,-2.5693,-2.5693,-2.5693,-2.5693,-2.5693,-2.5693,-2.5693,-2.5693,-2.5693,-2.5693,-3.9697,-3.9697,-3.9697,-3.9697,-3.9697,-3.9697,-3.9697,-3.9697,-3.9697,-3.9697,-3.9697,-3.9697,-3.9697,-3.9697,-3.9697,-3.9697,-3.927,-3.8755,-3.8165,-3.814,-3.8103,-3.8002,-3.8002,-3.7789,-3.7312,-3.7224,-3.7008,-3.6531,-3.6455,-3.6405,-3.6405,-3.6405,-3.6405,-3.6405,-3.6405,-3.6107,-3.5621,-3.5621,-3.5357,-3.4977,-3.4977,-3.4977,-3.4977,-3.4977,-3.4977,-3.4977,-3.4977,-3.4977,-3.4977,-3.4977,-3.4977,-3.4977,-3.4977,-3.4914,-3.4705,-3.4286,-3.3696,-3.3181,-3.3106,-3.3124,-3.3068,-3.284,-3.2797,-3.2754,-3.2568,-3.1689,-3.0944,-3.0944,-2.9954,-2.9131,-2.9131,-2.8153,-2.7051,-2.6172,-2.5188,-2.4057,-2.2696,0.0,-2.2607,-2.2607,-2.2666,-2.2871,-2.3247,-2.3286,-2.3266,-2.3198,-2.3198,-2.3169,0.0,-2.3159,-2.3198,-2.3198,-2.3594,-2.4023,-2.4512,-2.5284,-2.5693,-2.5693,-2.5693,-2.5693,-2.5693,-2.5693,-2.5693,-2.5693,-2.5693,-2.5693,-2.5693,-2.5693,-2.5693,-2.5693,-2.5693,-2.5693,-2.5693,-2.5693,-2.5693,-2.5693,-3.9697,-3.9697,-3.9697,-3.9697,-3.9697,-3.9697,-3.9697,-3.9697,-3.9697,-3.9697,-3.9697,-3.9697,-3.9697,-3.9697,-3.9697,-3.9697,-3.9609,-3.9333,-3.8781,-3.8781,-3.8517,-3.8027,-3.8002,-3.7965,-3.7889,-3.7425,-3.7149,-3.7109,-3.6631,-3.6405,-3.6405,-3.6405,-3.6405,-3.6405,-3.6405,-3.6367,-3.6279,-3.6279,-3.6229,-3.6153,-3.6153,-3.6153,-3.6153,-3.6153,-3.6153,-3.6153,-3.6153,-3.6153,-3.6153,-3.6153,-3.6153,-3.6153,-3.6153,-3.5793,-3.5357,-3.527,-3.4562,-3.3671,-3.3206,-3.3124,-3.284,-3.1777,-3.15,-3.1223,-3.0226,-2.9818,-2.9681,-2.9681,-2.8727,-2.7861,-2.7861,-2.627,-2.49,-2.4726,-2.395,-2.3152,-2.2568,0.0,-2.3047,-2.3057,-2.3379,-2.376,-2.418,-2.4219,-2.4072,-2.3721,-2.3691,-2.3525,-2.311,-2.3486,-2.3691,-2.3691,-2.375,-2.417,-2.4961,-2.5478,-2.5693,-2.5693,-2.5693,-2.5693,-2.5693,-2.5693,-2.5693,-2.5693,-2.5693,-2.5693,-2.5693,-2.5693,-2.5693,-2.5693,-2.5693,-2.5693,-2.5693,-2.5693,-2.5693,-2.5693,-3.9697,-3.9697,-3.9697,-3.9697,-3.9697,-3.9697,-3.9697,-3.9697,-3.9697,-3.9697,-3.9697,-3.9697,-3.9697,-3.9697,-3.9697,-3.9697,-3.9697,-3.9584,-3.9333,-3.932,-3.9195,-3.8931,-3.8919,-3.8781,-3.8479,-3.7914,-3.7475,-3.7186,-3.6923,-3.6694,-3.6405,-3.6405,-3.6405,-3.6405,-3.6405,-3.6405,-3.6405,-3.6405,-3.6405,-3.6405,-3.6405,-3.6405,-3.6405,-3.6405,-3.6405,-3.6405,-3.6405,-3.6405,-3.6405,-3.6405,-3.6405,-3.6405,-3.6405,-3.5697,-3.4844,-3.4504,-3.371,-3.2938,-3.3089,-3.2108,-3.1134,-3.1178,-3.0721,-3.009,-2.9544,-2.8912,-2.8402,-2.8402,-2.7447,-2.6572,-2.6572,-2.5565,-2.4766,-2.4766,-2.4043,0.0,0.0,-2.3369,-2.3496,-2.3496,-2.3867,-2.4209,-2.4394,-2.4414,-2.4238,-2.3828,-2.3789,-2.3701,-2.3496,-2.3682,-2.4004,-2.4509,-2.4519,-2.4785,-2.543,-2.5635,-2.5693,-2.5693,-2.5693,-2.5693,-2.5693,-2.5693,-2.5693,-2.5693,-2.5693,-2.5693,-2.5693,-2.5693,-2.5693,-2.5693,-2.5693,-2.5693,-2.5693,-2.5693,-2.5693,-2.5693,-3.9697,-3.9697,-3.9697,-3.9697,-3.9697,-3.9697,-3.9697,-3.9697,-3.9697,-3.9697,-3.9697,-3.9697,-3.9697,-3.9697,-3.9697,-3.9697,-3.9697,-3.9697,-3.9697,-3.9697,-3.9697,-3.9697,-3.9697,-3.9496,-3.9069,-3.8504,-3.7927,-3.7374,-3.7249,-3.6958,-3.6405,-3.6405,-3.6405,-3.6405,-3.6061,-3.5918,-3.5906,-3.5607,-3.5451,-3.5451,-3.5451,-3.5451,-3.5451,-3.5451,-3.5451,-3.5451,-3.5451,-3.5451,-3.5451,-3.5451,-3.5451,-3.5499,-3.581,-3.5223,-3.4351,-3.4222,-3.3065,-3.1908,-3.2293,-3.0916,-2.9544,-3.0226,-2.9681,-2.8912,-2.8634,-2.7804,-2.7173,-2.7173,-2.638,-2.5693,-2.5693,-2.5371,-2.5116,-2.5116,0.0,0.0,0.0,-2.3935,-2.3975,-2.4072,-2.4365,-2.4609,-2.467,-2.4717,-2.4551,-2.4121,-2.4082,-2.4043,-2.3935,-2.4033,-2.4434,-2.5205,-2.5225,-2.5391,-2.5684,-2.5693,-2.5693,-2.5693,-2.5693,-2.5693,-2.5693,-2.5693,-2.5693,-2.5693,-2.5693,-2.5693,-2.5693,-2.5693,-2.5693,-2.5693,-2.5693,-2.5693,-2.5693,-2.5693,-2.5693,-2.5693,-3.9697,-3.9697,-3.9697,-3.9697,-3.9697,-3.9697,-3.9697,-3.9697,-3.9697,-3.9697,-3.9697,-3.9697,-3.9697,-3.9697,-3.9697,-3.9697,-3.9697,-3.9697,-3.9697,-3.9697,-3.9697,-3.9697,-3.9697,-3.9672,-3.9634,-3.9094,-3.853,-3.7952,-3.7425,-3.6958,-3.6405,-3.6405,-3.6405,-3.6358,-3.5126,-3.4532,-3.4483,-3.3155,-3.2582,-3.2582,-3.2582,-3.2582,-3.2582,-3.2582,-3.2582,-3.2582,-3.2582,-3.2582,-3.2582,-3.2582,-3.2582,-3.2833,-3.4117,-3.4483,-3.4629,-3.5808,-3.3744,-3.0945,-3.039,-2.9836,-2.9131,-2.8132,-2.7825,-2.74,-2.6245,-2.5917,-2.583,-2.583,-2.5791,-2.5693,-2.5693,-2.5371,-2.5116,-2.5116,0.0,0.0,-2.4375,-2.4375,-2.4521,-2.4969,-2.5047,-2.5185,-2.5557,-2.5586,-2.5459,-2.501,-2.5018,-2.4795,-2.4394,-2.4756,-2.5195,-2.5625,-2.5635,-2.5654,-2.5693,-2.5693,-2.5693,-2.5693,-2.5693,-2.5693,-2.5693,-2.5693,-2.5693,-2.5693,-2.5693,-2.5693,-2.5693,-2.5693,-2.5693,-2.5693,-2.5693,-2.5693,-2.5693,-2.5693,-2.5693,-2.5693,-3.9697,-3.9697,-3.9697,-3.9697,-3.9697,-3.9697,-3.9697,-3.9697,-3.9697,-3.9697,-3.9697,-3.9697,-3.9697,-3.9697,-3.9697,-3.9697,-3.9697,-3.9697,-3.9697,-3.9697,-3.9697,-3.9697,-3.9697,-3.9697,-3.9697,-3.9484,-3.8931,-3.8002,-3.7801,-3.7236,-3.6405,-3.6405,-3.6405,-3.6358,-3.587,-3.5174,-3.4434,-3.4703,-3.3836,-3.2381,-3.3254,-3.3105,-3.228,-3.228,-3.228,-3.2431,-3.3304,-3.3055,-3.2431,-3.3304,-3.3613,-3.3723,-3.4227,-3.4385,-3.4178,-3.2994,-3.1462,-2.9917,-2.852,-2.7623,-2.7342,-2.8448,-2.7579,-2.6294,-2.583,-2.5693,-2.5693,-2.5693,-2.5693,-2.5693,-2.5693,-2.5596,-2.5478,-2.5478,0.0,-2.4814,-2.4814,-2.4814,-2.4883,-2.5096,-2.5312,-2.5547,-2.5674,-2.5693,-2.5557,-2.5145,-2.5116,-2.5047,-2.4834,-2.5244,-2.5557,-2.5684,-2.5693,-2.5693,-2.5693,-2.5693,-2.5693,-2.5693,-2.5693,-2.5693,-2.5693,-2.5693,-2.5693,-2.5693,-2.5693,-2.5693,-2.5693,-2.5693,-2.5693,-2.5693,-2.5693,-2.5693,-2.5693,-2.5693,-2.5693,-2.5693,-3.9697,-3.9697,-3.9697,-3.9697,-3.9697,-3.9697,-3.9697,-3.9697,-3.9697,-3.9697,-3.9697,-3.9697,-3.9697,-3.9697,-3.9697,-3.9697,-3.9697,-3.9697,-3.9697,-3.9697,-3.9697,-3.9697,-3.9697,-3.9697,-3.9697,-3.9697,-3.9132,-3.8002,-3.8002,-3.7437,-3.6405,-3.6405,-3.6405,-3.6358,-3.5966,-3.5271,-3.4434,-3.4909,-3.3787,-3.1785,-3.3155,-3.2905,-3.1673,-3.1673,-3.1927,-3.2381,-3.2905,-3.2744,-3.2431,-3.3415,-3.3723,-3.3723,-3.3723,-3.3723,-3.3315,-3.0979,-3.0003,-2.9431,-2.8126,-2.6873,-2.6279,-2.7835,-2.6982,-2.5693,-2.5693,-2.5693,-2.5693,-2.5693,-2.5693,-2.5693,-2.5693,-2.5693,-2.5693,-2.5693,-2.5478,-2.5283,-2.5283,-2.5283,-2.5283,-2.5283,-2.5547,-2.5693,-2.5693,-2.5693,-2.5605,-2.5303,-2.5283,-2.5283,-2.5283,-2.5566,-2.5693,-2.5693,-2.5693,-2.5693,-2.5693,-2.5693,-2.5693,-2.5693,-2.5693,-2.5693,-2.5693,-2.5693,-2.5693,-2.5693,-2.5693,-2.5693,-2.5693,-2.5693,-2.5693,-2.5693,-2.5693,-2.5693,-2.5693,-2.5693,-2.5693,-2.5693,-3.9697,-3.9697,-3.9697,-3.9697,-3.9697,-3.9697,-3.9697,-3.9697,-3.9697,-3.9697,-3.9697,-3.9697,-3.9697,-3.9697,-3.9697,-3.9697,-3.9697,-3.9697,-3.9697,-3.9697,-3.9697,-3.9697,-3.9697,-3.9697,-3.9697,-3.9697,-3.9145,-3.8002,-3.8002,-3.7437,-3.6358,-3.6358,-3.6358,-3.631,-3.4981,-3.4385,-3.4276,-3.2894,-3.1531,-3.0421,-3.1724,-3.148,-3.0266,-3.0317,-3.1122,-3.2079,-3.0773,-3.1173,-3.228,-3.228,-3.228,-3.228,-3.228,-3.228,-3.2028,-3.0669,-3.0003,-2.9646,-2.9534,-2.7955,-2.6289,-2.585,-2.5693,-2.5693,-2.5693,-2.5693,-2.5693,-2.5693,-2.5693,-2.5693,-2.5693,-2.5693,-2.5693,-2.5693,-2.5693,-2.5693,-2.5693,-2.5693,-2.5693,-2.5693,-2.5693,-2.5693,-2.5693,-2.5693,-2.5693,-2.5693,-2.5693,-2.5693,-2.5693,-2.5693,-2.5693,-2.5693,-2.5693,-2.5693,-2.5693,-2.5693,-2.5693,-2.5693,-2.5693,-2.5693,-2.5693,-2.5693,-2.5693,-2.5693,-2.5693,-2.5693,-2.5693,-2.5693,-2.5693,-2.5693,-2.5693,-2.5693,-2.5693,-2.5693,-2.5693,-2.5693,-3.9697,-3.9697,-3.9697,-3.9697,-3.9697,-3.9697,-3.9697,-3.9697,-3.9697,-3.9697,-3.9697,-3.9697,-3.9697,-3.9697,-3.9697,-3.9697,-3.9697,-3.9697,-3.9697,-3.9697,-3.9697,-3.9697,-3.9697,-3.9697,-3.9697,-3.9697,-3.8699,-3.6579,-3.6579,-3.5523,-3.354,-3.354,-3.354,-3.3491,-3.3093,-3.2392,-3.1542,-3.209,-3.0968,-2.9006,-3.0369,-3.011,-2.9006,-2.9964,-2.9964,-2.9713,-3.1173,-3.0773,-2.966,-3.0566,-3.0927,-3.1071,-3.1977,-3.228,-3.2028,-3.0669,-3.0223,-2.9849,-2.859,-2.7544,-2.6911,-2.7323,-2.6562,-2.5693,-2.5693,-2.5693,-2.5693,-2.5693,-2.5693,-2.5693,-2.5693,-2.5693,-2.5693,-2.5693,-2.5693,-2.5693,-2.5693,-2.5693,-2.5693,-2.5693,-2.5693,-2.5693,-2.5693,-2.5693,-2.5693,-2.5693,-2.5693,-2.5693,-2.5693,-2.5693,-2.5693,-2.5693,-2.5693,-2.5693,-2.5693,-2.5693,-2.5693,-2.5693,-2.5693,-2.5693,-2.5693,-2.5693,-2.5693,-2.5693,-2.5693,-2.5693,-2.5693,-2.5693,-2.5693,-2.5693,-2.5693,-2.5693,-2.5693,-2.5693,-2.5693,-2.5693,-3.9581,-3.9697,-3.9697,-3.9697,-3.9697,-3.9697,-3.9697,-3.9697,-3.9697,-3.9697,-3.9697,-3.9697,-3.9697,-3.9697,-3.9697,-3.9697,-3.9697,-3.9697,-3.9697,-3.9697,-3.9697,-3.9697,-3.9697,-3.9697,-3.9697,-3.9697,-3.8862,-3.7173,-3.6372,-3.5102,-3.343,-3.2672,-3.228,-3.228,-3.228,-3.1836,-3.1122,-3.1977,-3.1071,-2.9207,-3.0566,-3.0266,-2.9207,-2.9964,-3.012,-3.0016,-3.1122,-3.0824,-3.0016,-3.0824,-3.0721,-3.0421,-3.1276,-3.1122,-3.0566,-2.9765,-2.9503,-2.9304,-2.8232,-2.7598,-2.7363,-2.7642,-2.6694,-2.5693,-2.5693,-2.5693,-2.5693,-2.5693,-2.5693,-2.5693,-2.5693,-2.5693,-2.5693,-2.5693,-2.5693,-2.5693,-2.5693,-2.5693,-2.5693,-2.5693,-2.5693,-2.5693,-2.5693,-2.5693,-2.5693,-2.5693,-2.5693,-2.5693,-2.5693,-2.5693,-2.5693,-2.5693,-2.5693,-2.5693,-2.5693,-2.5693,-2.5693,-2.5693,-2.5693,-2.5693,-2.5693,-2.5693,-2.5693,-2.5693,-2.5693,-2.5693,-2.5693,-2.5693,-2.5693,-2.5693,-2.5693,-2.5693,-2.5693,-2.5693,-2.5693,-2.5693,-3.9413,-3.9697,-3.9697,-3.9697,-3.9697,-3.9697,-3.9697,-3.9697,-3.9697,-3.9697,-3.9697,-3.9697,-3.9697,-3.9697,-3.9697,-3.9697,-3.9697,-3.9697,-3.9697,-3.9697,-3.9697,-3.9697,-3.9697,-3.9633,-3.953,-3.9633,-3.937,-3.8704,-3.6897,-3.5673,-3.4999,-3.3172,-3.228,-3.228,-3.218,-3.2129,-3.2129,-3.1977,-3.1224,-3.0214,-3.148,-3.1224,-3.012,-3.0266,-3.0968,-3.1774,-3.0721,-3.1019,-3.1927,-3.1927,-3.1122,-3.012,-3.012,-2.9303,-2.8291,-2.8291,-2.8291,-2.8291,-2.8291,-2.7988,-2.7611,-2.7119,-2.6396,-2.5732,-2.5703,-2.5693,-2.5693,-2.5693,-2.5693,-2.5693,-2.5693,-2.5693,-2.5693,-2.5693,-2.5693,-2.5693,-2.5693,-2.5693,-2.5693,-2.5693,-2.5693,-2.5693,-2.5693,-2.5693,-2.5693,-2.5693,-2.5693,-2.5693,-2.5693,-2.5693,-2.5693,-2.5693,-2.5693,-2.5693,-2.5693,-2.5693,-2.5693,-2.5693,-2.5693,-2.5693,-2.5693,-2.5693,-2.5693,-2.5693,-2.5693,-2.5693,-2.5693,-2.5693,-2.5693,-2.5693,-2.5693,-2.5693,-2.5693,-2.5693,-2.5693,-2.5693,-3.9633,-3.9697,-3.9697,-3.9697,-3.9697,-3.9697,-3.9697,-3.9697,-3.9697,-3.9697,-3.9697,-3.9697,-3.9697,-3.9697,-3.9697,-3.9697,-3.9697,-3.9697,-3.9697,-3.9697,-3.9697,-3.9697,-3.9697,-3.9141,-3.8019,-3.9129,-3.8921,-3.7275,-3.6413,-3.5165,-3.3595,-3.2718,-3.228,-3.223,-3.1224,-3.0721,-3.0669,-2.9608,-2.9006,-2.8751,-2.9049,-2.8996,-2.8857,-2.9911,-2.9807,-2.925,-3.0016,-2.9807,-2.9154,-2.9154,-2.8953,-2.8751,-2.8751,-2.8548,-2.8291,-2.8291,-2.8291,-2.8291,-2.8291,-2.7988,-2.7611,-2.7119,-2.6631,-2.6162,-2.5762,-2.5693,-2.5693,-2.5693,-2.5693,-2.5693,-2.5693,-2.5693,-2.5693,-2.5693,-2.5693,-2.5693,-2.5693,-2.5693,-2.5693,-2.5693,-2.5693,-2.5693,-2.5693,-2.5693,-2.5693,-2.5693,-2.5693,-2.5693,-2.5693,-2.5693,-2.5693,-2.5693,-2.5693,-2.5693,-2.5693,-2.5693,-2.5693,-2.5693,-2.5693,-2.5693,-2.5693,-2.5693,-2.5693,-2.5693,-2.5693,-2.5693,-2.5693,-2.5693,-2.5693,-2.5693,-2.5693,-2.5693,-2.5693,-2.5693,-2.5693,-2.5693,-3.9581,-3.9697,-3.9697,-3.9697,-3.9697,-3.9697,-3.9697,-3.9697,-3.9697,-3.9697,-3.9697,-3.9697,-3.9697,-3.9697,-3.9697,-3.9697,-3.9697,-3.9697,-3.9697,-3.9025,-3.8635,-3.8635,-3.7979,-3.721,-3.6487,-3.721,-3.7003,-3.5764,-3.4573,-3.3395,-3.22,-3.0944,-3.0369,-3.0369,-2.966,-2.9355,-2.9303,-2.8601,-2.8291,-2.8291,-2.8291,-2.8291,-2.8398,-2.9102,-2.89,-2.8398,-2.9102,-2.89,-2.8291,-2.8291,-2.8291,-2.8291,-2.8291,-2.8291,-2.8291,-2.8291,-2.8291,-2.8291,-2.8291,-2.8135,-2.7861,-2.7432,-2.7002,-2.6523,-2.583,-2.5693,-2.5693,-2.5693,-2.5693,-2.5693,-2.5693,-2.5693,-2.5693,-2.5693,-2.5693,-2.5693,-2.5693,-2.5693,-2.5693,-2.5693,-2.5693,-2.5693,-2.5693,-2.5693,-2.5693,-2.5693,-2.5693,-2.5693,-2.5693,-2.5693,-2.5693,-2.5693,-2.5693,-2.5693,-2.5693,-2.5693,-2.5693,-2.5693,-2.5693,-2.5693,-2.5693,-2.5693,-2.5693,-2.5693,-2.5693,-2.5693,-2.5693,-2.5693,-2.5693,-2.5693,-2.5693,-2.5693,-2.5693,-2.5693,-2.5693,-2.5693,-3.8968,-3.9392,-3.9584,-3.9672,-3.9697,-3.9697,-3.9697,-3.9697,-3.9697,-3.9697,-3.9697,-3.9697,-3.9697,-3.9697,-3.9697,-3.9697,-3.9697,-3.9697,-3.9697,-3.8295,-3.7624,-3.7849,-3.6433,-3.5563,-3.53,-3.5288,-3.5053,-3.4603,-3.302,-3.1966,-3.1412,-2.9852,-2.9076,-2.8953,-2.8751,-2.8644,-2.8644,-2.8398,-2.8291,-2.8291,-2.8291,-2.8291,-2.8291,-2.8291,-2.8291,-2.8291,-2.8291,-2.8291,-2.8291,-2.8291,-2.8291,-2.8291,-2.8291,-2.8291,-2.8291,-2.8291,-2.8291,-2.8291,-2.8291,-2.8291,-2.8193,-2.7826,-2.7393,-2.6904,-2.6045,-2.5742,-2.5693,-2.5693,-2.5693,-2.5693,-2.5693,-2.5693,-2.5693,-2.5693,-2.5693,-2.5693,-2.5693,-2.5693,-2.5693,-2.5693,-2.5693,-2.5693,-2.5693,-2.5693,-2.5693,-2.5693,-2.5693,-2.5693,-2.5693,-2.5693,-2.5693,-2.5693,-2.5693,-2.5693,-2.5693,-2.5693,-2.5693,-2.5693,-2.5693,-2.5693,-2.5693,-2.5693,-2.5693,-2.5693,-2.5693,-2.5693,-2.5693,-2.5693,-2.5693,-2.5693,-2.5693,-2.5693,-2.5693,-2.5693,-2.5693,-2.5693,-3.7068,-3.8155,-3.9132,-3.9609,-3.9697,-3.9697,-3.9697,-3.9697,-3.9697,-3.9697,-3.9697,-3.9697,-3.9697,-3.9697,-3.9697,-3.9697,-3.9697,-3.9697,-3.9697,-3.8295,-3.8072,-3.9362,-3.7979,-3.6595,-3.5354,-3.5288,-3.5053,-3.4603,-3.4255,-3.3659,-3.2886,-3.2561,-3.2141,-3.1724,-3.0577,-3.0016,-2.9964,-2.8804,-2.8291,-2.8291,-2.8291,-2.8291,-2.8291,-2.8291,-2.8291,-2.8291,-2.8291,-2.8291,-2.8291,-2.8291,-2.8291,-2.8291,-2.8291,-2.8291,-2.8291,-2.8291,-2.8291,-2.8291,-2.8291,-2.8291,-2.8193,-2.7826,-2.7679,-2.7405,-2.6494,-2.6006,-2.5693,-2.5693,-2.5693,-2.5693,-2.5693,-2.5693,-2.5693,-2.5693,-2.5693,-2.5693,-2.5693,-2.5693,-2.5693,-2.5693,-2.5693,-2.5693,-2.5693,-2.5693,-2.5693,-2.5693,-2.5693,-2.5693,-2.5693,-2.5693,-2.5693,-2.5693,-2.5693,-2.5693,-2.5693,-2.5693,-2.5693,-2.5693,-2.5693,-2.5693,-2.5693,-2.5693,-2.5693,-2.5693,-2.5693,-2.5693,-2.5693,-2.5693,-2.5693,-2.5693,-2.5693,-2.5693,-2.5693,-2.5693,-2.5693,-2.5693,-3.5184,-3.6582,-3.77,-3.7626,-3.8784,-3.9584,-3.9283,-3.9496,-3.9697,-3.9697,-3.9697,-3.9697,-3.9697,-3.9697,-3.9697,-3.9697,-3.9697,-3.9697,-3.9697,-3.8295,-3.7412,-3.7263,-3.5825,-3.4348,-3.2871,-3.2825,-3.2586,-3.2163,-3.1847,-3.1319,-3.0485,-3.037,-3.039,-3.0379,-2.9572,-2.9285,-2.9444,-2.8647,-2.8291,-2.8291,-2.8291,-2.8291,-2.8291,-2.8291,-2.8291,-2.8291,-2.8291,-2.8291,-2.8291,-2.8291,-2.8291,-2.8291,-2.8291,-2.8291,-2.8291,-2.8291,-2.8291,-2.8291,-2.8291,-2.8291,-2.8252,-2.8066,-2.7894,-2.762,-2.7187,-2.6582,-2.6035,-2.5732,-2.5693,-2.5693,-2.5693,-2.5693,-2.5693,-2.5693,-2.5693,-2.5693,-2.5693,-2.5693,-2.5693,-2.5693,-2.5693,-2.5693,-2.5693,-2.5693,-2.5693,-2.5693,-2.5693,-2.5693,-2.5693,-2.5693,-2.5693,-2.5693,-2.5693,-2.5693,-2.5693,-2.5693,-2.5693,-2.5693,-2.5693,-2.5693,-2.5693,-2.5693,-2.5693,-2.5693,-2.5693,-2.5693,-2.5693,-2.5693,-2.5693,-2.5693,-2.5693,-2.5693,-2.5693,-2.5693,-2.5693,-2.5693]}]]